[[{"header":{"parameterUnit":"m.s-1","parameterCategory":1,"la1":30.6,"la2":29.2853,"lo1":-89.7004,"lo2":-87.6739,"dy":0.0162,"dx":0.0183,"nx":112,"ny":82,"refTime":"2024-05-02T00:00:00:Z","depth":0,"parameterNumber":2,"parameterNumberName":"U-component_of_WINDS"},"data":[0.0,0.0,0.0,0.0,0.0,0.0,0.0,0.0,0.0,0.0,0.0,0.0,0.0,0.0,0.0,0.0,0.0,0.0,0.0,0.0,0.0,0.0,0.0,0.0,0.0,0.0,0.0,0.0,0.0,0.0,0.0,0.0,0.0,0.0,0.0,0.0,0.0,0.0,0.0,0.0,0.0,0.0,0.0,0.0,0.0,0.0,0.0,0.0,0.0,0.0,0.0,0.0,0.0,0.0,0.0,0.0,0.0,0.0,0.0,0.0,0.0,0.0,0.0,0.0,0.0,0.0,0.0,0.0,0.0,0.0,0.0,0.0,0.0,0.0,0.0,0.0,0.0,0.0,0.0,0.0,0.0,0.0,0.0,0.0,0.0,0.0,0.0,0.0,0.0,0.0,-3.4595,-3.7136,-4.2344,-4.5723,-4.6001,-4.4832,-4.1472,-3.5351,0.0,0.0,0.0,0.0,0.0,0.0,0.0,0.0,0.0,0.0,0.0,0.0,0.0,0.0,0.0,0.0,0.0,0.0,0.0,0.0,0.0,0.0,0.0,0.0,0.0,0.0,0.0,0.0,0.0,0.0,0.0,0.0,0.0,0.0,0.0,0.0,0.0,0.0,0.0,0.0,0.0,0.0,0.0,0.0,0.0,0.0,0.0,0.0,0.0,0.0,0.0,0.0,0.0,0.0,0.0,0.0,0.0,0.0,0.0,0.0,0.0,0.0,0.0,0.0,0.0,0.0,0.0,0.0,0.0,0.0,0.0,0.0,0.0,0.0,0.0,0.0,0.0,0.0,0.0,0.0,0.0,0.0,0.0,0.0,0.0,0.0,0.0,0.0,0.0,0.0,0.0,0.0,0.0,0.0,0.0,0.0,0.0,0.0,0.0,0.0,0.0,0.0,0.0,0.0,-3.5762,-4.2207,-4.4052,-4.4801,-4.484,-4.1498,-3.7854,-3.415,0.0,0.0,0.0,0.0,0.0,0.0,0.0,0.0,0.0,0.0,0.0,0.0,0.0,0.0,0.0,0.0,0.0,0.0,0.0,0.0,0.0,0.0,0.0,0.0,0.0,0.0,0.0,0.0,0.0,0.0,0.0,0.0,0.0,0.0,0.0,0.0,0.0,0.0,0.0,0.0,0.0,0.0,0.0,0.0,0.0,0.0,0.0,0.0,0.0,0.0,0.0,0.0,0.0,0.0,0.0,0.0,0.0,0.0,0.0,0.0,0.0,0.0,0.0,0.0,0.0,0.0,0.0,0.0,0.0,0.0,0.0,0.0,0.0,0.0,0.0,0.0,0.0,0.0,0.0,0.0,0.0,0.0,0.0,0.0,0.0,0.0,0.0,0.0,0.0,0.0,0.0,0.0,0.0,0.0,0.0,0.0,0.0,0.0,0.0,0.0,0.0,0.0,0.0,-3.3761,-3.6472,-4.1903,-4.3005,-4.305,-4.2391,-3.9339,-3.6167,-3.3089,-3.1874,0.0,0.0,0.0,0.0,0.0,0.0,0.0,0.0,0.0,0.0,0.0,0.0,0.0,0.0,0.0,0.0,0.0,0.0,0.0,0.0,0.0,0.0,0.0,0.0,0.0,0.0,0.0,0.0,0.0,0.0,0.0,0.0,0.0,0.0,0.0,0.0,0.0,0.0,0.0,0.0,0.0,0.0,0.0,0.0,0.0,0.0,0.0,0.0,0.0,0.0,0.0,0.0,0.0,0.0,0.0,0.0,0.0,0.0,0.0,0.0,0.0,0.0,0.0,0.0,0.0,0.0,0.0,0.0,0.0,0.0,0.0,0.0,0.0,0.0,0.0,0.0,0.0,0.0,0.0,0.0,0.0,0.0,0.0,0.0,0.0,0.0,0.0,0.0,0.0,0.0,0.0,0.0,0.0,0.0,0.0,0.0,0.0,0.0,0.0,0.0,0.0,0.0,-3.5849,-3.7081,-4.0687,-4.1479,-4.1256,-4.0108,-3.7212,-3.4421,-3.2025,-2.9322,0.0,0.0,0.0,0.0,0.0,0.0,0.0,0.0,0.0,0.0,0.0,0.0,0.0,0.0,0.0,0.0,0.0,0.0,0.0,0.0,0.0,0.0,0.0,0.0,0.0,0.0,0.0,0.0,0.0,0.0,0.0,0.0,0.0,0.0,0.0,0.0,0.0,0.0,0.0,0.0,0.0,0.0,0.0,0.0,0.0,0.0,0.0,0.0,0.0,0.0,0.0,0.0,0.0,0.0,0.0,0.0,0.0,0.0,0.0,0.0,0.0,0.0,0.0,0.0,0.0,0.0,0.0,0.0,0.0,0.0,0.0,0.0,0.0,0.0,0.0,0.0,0.0,0.0,0.0,0.0,0.0,0.0,0.0,0.0,0.0,0.0,0.0,0.0,0.0,0.0,0.0,0.0,0.0,0.0,0.0,0.0,0.0,0.0,0.0,0.0,0.0,0.0,-3.5315,-3.7775,-4.0777,-4.0487,-3.9732,-3.8882,-3.4472,-3.1527,-3.0941,-2.7256,0.0,0.0,0.0,0.0,0.0,0.0,0.0,0.0,0.0,0.0,0.0,0.0,0.0,0.0,0.0,0.0,0.0,0.0,0.0,0.0,0.0,0.0,0.0,0.0,0.0,0.0,0.0,0.0,0.0,0.0,0.0,0.0,0.0,0.0,0.0,0.0,0.0,0.0,0.0,0.0,0.0,0.0,0.0,0.0,0.0,0.0,0.0,0.0,0.0,0.0,0.0,0.0,0.0,0.0,0.0,0.0,0.0,0.0,0.0,0.0,0.0,0.0,0.0,0.0,0.0,0.0,0.0,0.0,0.0,0.0,0.0,0.0,0.0,0.0,0.0,0.0,0.0,0.0,0.0,0.0,0.0,0.0,0.0,0.0,0.0,0.0,0.0,0.0,0.0,0.0,0.0,0.0,0.0,0.0,0.0,0.0,0.0,0.0,0.0,0.0,0.0,0.0,-3.3055,-3.5155,-3.7823,-3.8285,-3.7639,-3.5789,-3.3036,-3.0731,-2.922,0.0,0.0,0.0,0.0,0.0,0.0,0.0,0.0,0.0,0.0,0.0,0.0,0.0,0.0,0.0,0.0,0.0,0.0,0.0,0.0,0.0,0.0,0.0,0.0,0.0,0.0,0.0,0.0,0.0,0.0,0.0,0.0,0.0,0.0,0.0,0.0,0.0,0.0,0.0,0.0,0.0,0.0,0.0,0.0,0.0,0.0,0.0,0.0,0.0,0.0,0.0,0.0,0.0,0.0,0.0,0.0,0.0,0.0,0.0,0.0,0.0,0.0,0.0,0.0,0.0,0.0,0.0,0.0,0.0,0.0,0.0,0.0,0.0,0.0,0.0,0.0,0.0,0.0,0.0,0.0,0.0,0.0,0.0,0.0,0.0,0.0,0.0,0.0,0.0,0.0,0.0,0.0,0.0,0.0,0.0,0.0,0.0,0.0,0.0,0.0,0.0,0.0,-3.0161,-3.1715,-3.355,-3.6046,-3.6317,-3.5546,-3.3587,-3.1017,-2.9001,-2.7771,0.0,0.0,0.0,0.0,0.0,0.0,0.0,0.0,0.0,0.0,0.0,0.0,0.0,0.0,0.0,0.0,0.0,0.0,0.0,0.0,0.0,0.0,0.0,0.0,0.0,0.0,0.0,0.0,0.0,0.0,0.0,0.0,0.0,0.0,0.0,0.0,0.0,0.0,0.0,0.0,0.0,0.0,0.0,0.0,0.0,0.0,0.0,0.0,0.0,0.0,0.0,0.0,0.0,0.0,0.0,0.0,0.0,0.0,0.0,0.0,0.0,0.0,0.0,0.0,0.0,0.0,0.0,0.0,0.0,0.0,0.0,0.0,0.0,0.0,0.0,0.0,0.0,0.0,0.0,0.0,0.0,0.0,0.0,0.0,0.0,0.0,0.0,0.0,0.0,0.0,0.0,0.0,0.0,0.0,0.0,0.0,0.0,0.0,0.0,0.0,0.0,0.0,-3.0166,-3.1715,-3.3513,-3.5973,-3.4761,-3.344,-3.2619,-2.8154,-2.5852,0.0,0.0,0.0,0.0,0.0,0.0,0.0,0.0,0.0,0.0,0.0,0.0,0.0,0.0,0.0,0.0,0.0,0.0,0.0,0.0,0.0,0.0,0.0,0.0,0.0,0.0,0.0,0.0,0.0,0.0,0.0,0.0,0.0,0.0,0.0,0.0,0.0,0.0,0.0,0.0,0.0,0.0,0.0,0.0,0.0,0.0,0.0,0.0,0.0,0.0,0.0,0.0,0.0,0.0,0.0,0.0,0.0,0.0,0.0,0.0,0.0,0.0,0.0,0.0,0.0,0.0,0.0,0.0,0.0,0.0,0.0,0.0,0.0,0.0,0.0,0.0,0.0,0.0,0.0,0.0,0.0,0.0,0.0,0.0,0.0,0.0,0.0,0.0,0.0,0.0,0.0,0.0,0.0,0.0,0.0,0.0,0.0,0.0,0.0,0.0,0.0,0.0,0.0,-2.916,-3.0282,-3.1629,-3.3513,-3.3256,-3.2179,-3.0234,-2.7714,-2.6129,-2.5852,0.0,0.0,0.0,0.0,0.0,0.0,0.0,0.0,0.0,0.0,0.0,0.0,0.0,0.0,0.0,0.0,0.0,0.0,0.0,0.0,0.0,0.0,0.0,0.0,0.0,0.0,0.0,0.0,0.0,0.0,0.0,0.0,0.0,0.0,0.0,0.0,0.0,0.0,0.0,0.0,0.0,0.0,0.0,0.0,0.0,0.0,0.0,0.0,0.0,0.0,0.0,0.0,0.0,0.0,0.0,0.0,0.0,0.0,0.0,0.0,0.0,0.0,0.0,0.0,0.0,0.0,0.0,0.0,0.0,0.0,0.0,0.0,0.0,0.0,0.0,0.0,0.0,0.0,0.0,0.0,0.0,0.0,0.0,0.0,0.0,0.0,0.0,0.0,0.0,0.0,0.0,0.0,0.0,0.0,0.0,0.0,0.0,0.0,0.0,0.0,0.0,0.0,-2.8275,-2.9512,-3.0687,-3.1971,-3.1825,-3.0785,-2.8693,-2.6455,-2.4921,-2.4328,0.0,0.0,0.0,0.0,0.0,0.0,0.0,0.0,0.0,0.0,0.0,0.0,0.0,0.0,0.0,0.0,0.0,0.0,0.0,0.0,0.0,0.0,0.0,0.0,0.0,0.0,0.0,0.0,0.0,0.0,0.0,0.0,0.0,0.0,0.0,0.0,0.0,0.0,0.0,0.0,0.0,0.0,0.0,0.0,0.0,0.0,0.0,0.0,0.0,0.0,0.0,0.0,0.0,0.0,0.0,0.0,0.0,0.0,0.0,0.0,0.0,0.0,0.0,0.0,0.0,0.0,0.0,0.0,0.0,0.0,0.0,0.0,0.0,0.0,0.0,0.0,0.0,0.0,0.0,0.0,0.0,0.0,0.0,0.0,0.0,0.0,0.0,0.0,0.0,0.0,0.0,0.0,0.0,0.0,0.0,0.0,0.0,0.0,0.0,0.0,0.0,0.0,-2.7578,-2.9072,-3.032,-3.1213,-3.0552,-2.9404,-2.779,-2.4791,-2.2892,-2.2586,0.0,0.0,0.0,0.0,0.0,0.0,0.0,0.0,0.0,0.0,0.0,0.0,0.0,0.0,0.0,0.0,0.0,0.0,0.0,0.0,0.0,0.0,0.0,0.0,0.0,0.0,0.0,0.0,0.0,0.0,0.0,0.0,0.0,0.0,0.0,0.0,0.0,0.0,0.0,0.0,0.0,0.0,0.0,0.0,0.0,0.0,0.0,0.0,0.0,0.0,0.0,0.0,0.0,0.0,0.0,0.0,0.0,0.0,0.0,0.0,-3.6131,-3.4729,0.0,0.0,0.0,0.0,0.0,0.0,0.0,0.0,0.0,0.0,0.0,0.0,0.0,0.0,0.0,0.0,0.0,0.0,0.0,0.0,0.0,0.0,0.0,0.0,0.0,0.0,0.0,0.0,0.0,0.0,0.0,0.0,0.0,0.0,0.0,0.0,0.0,0.0,0.0,0.0,-2.7504,-2.8092,-2.8851,-3.0283,-2.9503,-2.8203,-2.6594,-2.444,-2.291,-2.2235,-2.1518,0.0,0.0,0.0,0.0,0.0,0.0,0.0,0.0,0.0,0.0,0.0,0.0,0.0,0.0,0.0,0.0,0.0,0.0,0.0,0.0,0.0,0.0,0.0,0.0,0.0,0.0,0.0,0.0,0.0,0.0,0.0,0.0,0.0,0.0,0.0,0.0,0.0,0.0,0.0,0.0,0.0,0.0,0.0,0.0,0.0,0.0,0.0,0.0,0.0,0.0,0.0,0.0,0.0,0.0,0.0,0.0,0.0,0.0,0.0,-3.8181,-3.6531,0.0,0.0,0.0,0.0,0.0,0.0,0.0,0.0,0.0,0.0,0.0,0.0,0.0,0.0,0.0,0.0,0.0,0.0,0.0,0.0,0.0,0.0,0.0,0.0,0.0,0.0,0.0,0.0,0.0,0.0,0.0,0.0,0.0,0.0,0.0,0.0,0.0,0.0,0.0,0.0,-2.6697,-2.7268,-2.7767,-2.8478,-2.8024,-2.7023,-2.5434,-2.3649,-2.2235,-2.1393,-2.1046,0.0,0.0,0.0,0.0,0.0,0.0,0.0,0.0,0.0,0.0,0.0,0.0,0.0,0.0,0.0,0.0,0.0,0.0,0.0,0.0,0.0,0.0,0.0,0.0,0.0,0.0,0.0,0.0,0.0,0.0,0.0,0.0,0.0,0.0,0.0,0.0,0.0,0.0,0.0,0.0,0.0,0.0,0.0,0.0,0.0,0.0,0.0,0.0,0.0,0.0,0.0,0.0,0.0,-4.5771,-4.6206,-4.5935,-4.5833,-4.4987,-4.3532,-4.1287,-3.9365,-3.7641,-3.6241,0.0,0.0,0.0,0.0,0.0,0.0,0.0,0.0,0.0,0.0,0.0,0.0,0.0,0.0,0.0,0.0,0.0,0.0,0.0,0.0,0.0,0.0,-2.9653,-3.004,-3.0649,-3.0262,-2.6839,0.0,0.0,0.0,0.0,0.0,0.0,0.0,0.0,0.0,0.0,0.0,-2.5852,-2.6657,-2.7046,-2.6832,-2.6609,-2.5897,-2.4448,-2.2928,-2.1581,-2.0465,-2.0614,-2.0331,0.0,0.0,0.0,0.0,0.0,0.0,0.0,0.0,0.0,0.0,0.0,0.0,0.0,0.0,0.0,0.0,0.0,0.0,0.0,0.0,0.0,0.0,0.0,0.0,0.0,0.0,0.0,0.0,0.0,0.0,0.0,0.0,-3.7347,-3.7449,0.0,0.0,0.0,0.0,0.0,0.0,0.0,0.0,0.0,0.0,0.0,0.0,0.0,-4.621,-4.6857,-5.0405,-5.1183,-4.9255,-5.1961,-5.257,-5.1251,-5.0642,-4.9864,-4.9018,-4.806,0.0,-3.8754,-3.7882,0.0,0.0,0.0,0.0,0.0,0.0,0.0,0.0,0.0,0.0,0.0,0.0,0.0,0.0,0.0,0.0,0.0,0.0,0.0,0.0,0.0,0.0,-3.1582,-3.0378,-3.0649,-3.0722,-2.8898,-2.8236,-2.7538,-2.612,-2.5065,-2.4377,0.0,0.0,0.0,0.0,0.0,0.0,-2.5937,-2.6443,-2.6756,-2.6805,-2.5897,-2.4983,-2.4125,-2.2945,-2.1609,-2.0145,-2.0081,-1.9898,-1.9399,-1.9523,0.0,0.0,0.0,0.0,0.0,0.0,0.0,0.0,0.0,0.0,0.0,0.0,0.0,0.0,0.0,0.0,0.0,0.0,0.0,0.0,0.0,0.0,0.0,0.0,0.0,0.0,0.0,0.0,0.0,-3.871,-4.0223,-3.8159,-4.0392,-4.106,0.0,0.0,0.0,0.0,0.0,0.0,0.0,0.0,0.0,-4.8071,-5.0135,-5.115,-5.1048,-5.4329,-5.504,-5.3281,-5.5006,-5.5277,-5.4194,-5.345,-5.2706,-5.1961,-5.1183,-4.824,-4.3842,-4.182,-3.9648,-3.7371,0.0,0.0,0.0,0.0,-3.5573,-3.5401,-3.6655,-3.5897,-3.4553,-3.5532,0.0,0.0,0.0,0.0,0.0,0.0,0.0,-3.0767,-3.0402,-3.163,-3.2848,-3.2645,-3.3152,-3.3389,-3.2307,-3.1157,-2.9671,-2.7487,-2.723,-2.7006,-2.5857,-2.5128,0.0,0.0,0.0,-2.4988,-2.5385,-2.5637,-2.568,-2.5522,-2.4706,-2.3836,-2.3117,-2.2595,-2.184,-2.0737,-2.0251,-1.9907,-1.9737,-1.935,-1.9958,0.0,0.0,0.0,0.0,0.0,0.0,0.0,0.0,0.0,0.0,0.0,0.0,0.0,0.0,0.0,0.0,0.0,0.0,0.0,0.0,0.0,0.0,0.0,0.0,0.0,0.0,0.0,0.0,-4.0772,-4.2489,-3.914,-4.3031,-4.4378,0.0,0.0,0.0,0.0,0.0,0.0,-4.78,-4.9018,-5.0541,-5.257,-5.4837,-5.5852,-5.5513,-5.7679,-5.8118,-5.6833,-5.7205,-5.7103,-5.6528,-5.5378,-5.46,-5.4025,-5.3044,-5.1251,-4.8751,-4.5573,-4.2625,-3.9986,-3.8497,-3.755,-3.7087,-3.7483,-3.7144,-3.6705,-3.8396,-3.7889,-3.6569,-3.7168,-3.6096,-3.437,-3.3254,0.0,0.0,0.0,0.0,-3.1785,-3.2646,-3.3389,-3.4167,-3.4912,-3.5351,-3.543,-3.4912,-3.3761,-3.1989,-2.8973,-2.9007,-2.8924,-2.7029,-2.5984,0.0,-2.4545,-2.4732,-2.5004,-2.5265,-2.5198,-2.4981,-2.4538,-2.3831,-2.3105,-2.2347,-2.2313,-2.1989,-2.1258,-2.0636,-2.0217,-2.0002,-1.9473,-1.9913,-2.1475,0.0,0.0,0.0,0.0,0.0,0.0,0.0,0.0,0.0,0.0,0.0,0.0,0.0,0.0,0.0,0.0,0.0,0.0,0.0,0.0,0.0,0.0,0.0,0.0,0.0,0.0,0.0,0.0,0.0,-4.1305,-4.6244,0.0,0.0,0.0,0.0,-4.7428,-4.8206,-5.0236,-5.3957,-5.4228,-5.5886,-5.9471,-5.9742,-6.0182,-6.0892,-6.1061,-6.0723,-5.9877,-5.9235,-5.8896,-5.8761,-5.663,-5.5649,-5.5478,-5.4059,-5.2909,-5.1792,-4.8139,-4.5263,-4.3003,-4.1576,-4.0967,-4.0865,-4.0164,-3.9478,-3.8836,-3.8937,-3.755,-3.6005,-3.8193,-3.8328,-3.7652,-3.7584,-3.6017,0.0,0.0,-3.4324,-3.4312,-3.4392,-3.4945,-3.5667,-3.6491,-3.6129,-3.56,-3.5532,-3.4945,-3.3525,-3.0581,-2.8872,-2.7655,-2.6826,0.0,-2.6467,-2.6059,-2.6323,-2.6465,-2.6109,-2.5779,-2.5286,-2.4575,-2.3831,-2.3105,-2.2347,-2.2313,-2.1989,-2.1258,-2.1156,-2.0805,-2.0035,-1.9968,-2.0365,-2.1183,-2.0425,0.0,0.0,0.0,0.0,0.0,0.0,0.0,0.0,0.0,0.0,0.0,0.0,0.0,0.0,0.0,0.0,0.0,0.0,0.0,0.0,0.0,0.0,0.0,0.0,0.0,0.0,0.0,0.0,-4.8376,-5.2773,0.0,-5.0574,-5.0507,-5.1352,-5.2808,-5.3619,-5.5243,-5.7983,-5.9066,-6.0419,-6.2245,-6.3193,-6.3396,-6.2719,-6.3193,-6.2313,-6.0114,-5.9844,-5.9201,-5.822,-5.6494,-5.5681,-5.5649,-5.416,-5.2773,-5.1488,-5.0168,-4.8308,-4.608,-4.4147,-4.3064,-4.2489,-4.1245,-4.0663,-4.0358,-3.9851,-3.9199,-3.8464,-3.8328,-3.7787,-3.7077,-3.6603,-3.5836,-3.5318,-3.5847,-3.5983,-3.5983,-3.5983,-3.6186,-3.6299,-3.6096,-3.5825,-3.56,-3.56,-3.5013,-3.4032,-3.251,-3.1021,-2.977,-2.9025,-2.7672,-2.664,-2.6499,-2.6198,-2.5962,-2.5818,-2.5248,-2.4812,-2.4541,-2.341,-2.2584,-2.2313,-2.2313,-2.2178,-2.1921,-2.1461,-2.1089,-2.0771,-2.0285,-2.0386,-2.119,-2.042,-2.0688,0.0,0.0,0.0,0.0,0.0,0.0,0.0,0.0,0.0,0.0,0.0,0.0,0.0,0.0,0.0,0.0,0.0,0.0,0.0,0.0,0.0,0.0,0.0,0.0,0.0,-4.9289,-5.2807,-5.3044,-5.7476,-5.937,-5.6359,-5.6562,-5.7306,-5.8287,-5.9268,-6.0452,-6.1907,-6.3193,-6.4005,-6.4241,-6.4952,-6.4749,-6.3531,-6.3734,-6.2584,-6.0114,-6.0114,-5.9336,-5.7848,-5.6393,-5.5681,-5.5649,-5.416,-5.2773,-5.1555,-5.1286,-5.0202,-4.8409,-4.621,-4.5026,-4.4384,-4.2895,-4.2185,-4.1813,-4.0798,-4.0316,-3.9943,-3.8937,-3.8319,-3.7811,-3.728,-3.6941,-3.6907,-3.7709,-3.7574,-3.7178,-3.7178,-3.6998,-3.666,-3.6129,-3.5802,-3.5667,-3.596,-3.5419,-3.4573,-3.3592,-3.2408,-3.1258,-3.0277,-2.8856,-2.7774,-2.752,-2.6826,-2.6336,-2.6336,-2.5473,-2.4778,-2.4541,-2.341,-2.255,-2.2313,-2.253,-2.2564,-2.2313,-2.2057,-2.1833,-2.1597,-2.1062,-2.1028,-2.1563,-2.0805,-2.0893,-2.1921,0.0,0.0,0.0,0.0,0.0,0.0,0.0,0.0,0.0,0.0,0.0,0.0,0.0,0.0,0.0,0.0,0.0,0.0,0.0,0.0,0.0,0.0,0.0,-4.6752,-5.2063,-5.5581,-5.4972,-6.0114,-6.255,-5.9641,-6.1975,-6.37,-6.37,-6.4986,-6.5797,-6.5764,-6.644,-6.6474,-6.5696,-6.4986,-6.4241,-6.3531,-6.2753,-6.1637,-6.0114,-6.008,-5.9268,-5.7814,-5.6359,-5.5716,-5.5546,-5.4126,-5.301,-5.2198,-5.1488,-5.0744,-4.983,-4.7665,-4.6786,-4.6616,-4.5122,-4.4045,-4.3105,-4.1677,-4.0696,-4.0113,-4.0113,-4.0113,-4.0113,-4.0113,-3.9605,-3.9174,-3.991,-3.9073,-3.7956,-3.7956,-3.7381,-3.6829,-3.6795,-3.6197,-3.5802,-3.6569,-3.6163,-3.516,-3.3728,-3.2848,-3.1887,-3.0412,-3.0142,-2.9871,-2.9145,-2.8349,0.0,-2.779,-2.6505,-2.5338,-2.4609,-2.3864,-2.3139,-2.2381,-2.3004,-2.3105,-2.2347,-2.297,-2.3038,-2.2293,-2.2279,-2.2313,-2.2313,-2.1597,-2.1224,-2.1224,0.0,0.0,0.0,0.0,0.0,0.0,0.0,0.0,0.0,0.0,0.0,0.0,0.0,0.0,0.0,0.0,0.0,0.0,0.0,0.0,0.0,-4.7936,-5.0304,-5.0744,-5.5006,-5.9032,-6.1535,-6.5222,-6.7455,-6.7151,-6.7387,-6.7557,-6.7557,-6.7929,-6.7895,-6.732,-6.6981,-6.6474,-6.5696,-6.4986,-6.4241,-6.3531,-6.2753,-6.1637,-6.008,-5.9573,-5.8524,-5.707,-5.6156,-5.5412,-5.4803,-5.3281,-5.2198,-5.1454,-5.071,-4.9965,-4.9154,-4.7462,-4.6786,-4.6549,-4.4485,-4.2929,-4.1677,-4.073,-4.0282,-4.0113,-4.0113,-4.0113,-4.0113,-4.0113,-3.9977,-3.9842,-4.0045,-3.9808,-3.9368,-3.8836,-3.8159,-3.7449,-3.6931,-3.6197,-3.5667,-3.5893,-3.5769,-3.5329,-3.437,-3.4032,-3.3254,-3.1224,-3.0446,-3.0021,-2.9837,-2.8669,-2.779,-2.779,-2.6505,-2.5541,-2.5304,-2.4643,-2.3898,-2.3173,-2.3274,-2.3105,-2.2347,-2.2496,-2.226,-2.1529,-2.2023,-2.2313,-2.2313,-2.209,-2.1989,0.0,0.0,0.0,0.0,0.0,0.0,0.0,0.0,0.0,0.0,0.0,0.0,0.0,0.0,0.0,0.0,0.0,0.0,0.0,0.0,0.0,0.0,-5.1657,-5.4397,-5.6258,-5.8795,-6.1704,-6.5121,-6.7658,-6.9383,-7.0128,-7.0094,-6.9891,-6.9586,-6.9553,-6.9079,-6.7963,-6.7489,-6.6779,-6.573,-6.4986,-6.4241,-6.3531,-6.2448,-6.1332,-6.008,-5.937,-5.8254,-5.6765,-5.6055,-5.531,-5.4532,-5.3315,-5.2198,-5.1183,-5.0744,-4.9932,-4.8883,0.0,0.0,0.0,0.0,-4.2489,-4.1136,-4.0696,-4.0383,-4.0113,-4.0113,-4.0113,-4.0113,-4.0113,-4.0113,-4.0113,-4.0113,-3.9876,-3.9537,-3.9106,-3.8464,-3.7787,-3.7347,-3.6671,-3.6096,-3.6096,-3.5836,-3.5363,-3.4641,-3.4506,0.0,-3.2408,-3.1495,-3.092,-3.0615,-2.9262,-2.8315,-2.8315,-2.6996,-2.5947,-2.5626,-2.5236,-2.4541,-2.3477,-2.3695,0.0,0.0,0.0,-2.2429,-2.1684,-2.2076,0.0,0.0,0.0,-2.2313,-2.2313,-2.2313,0.0,0.0,-2.2717,-2.2895,0.0,0.0,0.0,0.0,0.0,0.0,0.0,0.0,0.0,0.0,0.0,0.0,0.0,0.0,0.0,0.0,-5.5378,-5.7949,-6.2178,-6.2821,-6.3903,-6.6609,-6.8301,-6.9519,-7.0229,-7.0939,-7.1041,-7.0364,-7.0297,-6.9654,-6.8132,-6.7963,0.0,0.0,0.0,-6.4072,-6.326,-6.1873,-6.0757,-5.9979,-5.9167,-5.8017,-5.6664,-5.5919,-5.5175,-5.4431,-5.3687,-5.2536,-5.1185,-5.1116,-5.0202,-4.8815,-4.8071,-4.7293,-4.6278,-4.4113,-4.2455,-4.1305,-4.1136,0.0,0.0,-4.0113,-4.0113,-4.0113,-4.0113,-4.0113,-4.0113,-4.0113,-3.9639,-3.9106,-3.9106,-3.8565,-3.8024,-3.8024,-3.7449,-3.6897,-3.6829,-3.6231,-3.5498,-3.4776,-3.4607,-3.4404,-3.366,-3.2848,-3.209,-3.1427,-3.0059,-2.9111,-2.9111,-2.7774,-2.6556,-2.5913,-2.5761,0.0,-2.3646,-2.4135,-2.3864,-2.2381,-2.2902,-2.297,-2.2313,-2.2313,-2.2313,-2.2313,-2.2313,-2.2313,-2.2313,-2.2313,-2.2313,-2.2313,-2.2313,-2.2426,0.0,0.0,0.0,0.0,0.0,0.0,0.0,0.0,0.0,0.0,0.0,0.0,0.0,0.0,0.0,-5.6461,-5.9336,-6.2009,-6.4681,-6.5561,-6.6373,-6.7557,-6.9045,-7.0263,-7.1041,-7.1244,-7.1244,-7.1109,-7.1109,-7.0432,-6.8944,-6.8267,-6.6948,-6.4884,-6.4106,-6.3091,-6.1738,-6.0791,-5.9979,-5.9201,-5.7881,0.0,-5.5919,-5.5141,-5.4397,-5.3687,-5.2875,-5.2029,-5.1151,-5.0574,-4.9458,-4.8071,-4.7293,-4.6177,-4.4818,-4.3132,-4.232,-4.1914,-4.0756,-4.0214,-4.0113,-4.0113,-4.0113,-4.0113,-4.0113,-4.0113,0.0,-4.0113,-4.0011,-3.991,-3.991,-3.9343,-3.8768,-3.8768,-3.8227,-3.7516,-3.6931,-3.6694,-3.6332,-3.5532,-3.5363,-3.5126,-3.4404,-3.3173,-3.2259,-3.2124,-3.0818,-2.9905,-2.9905,-2.8534,-2.7519,-2.7384,-2.686,-2.5879,-2.4406,-2.4406,-2.3864,-2.2381,-2.2415,-2.2448,-2.2313,-2.2313,-2.2313,-2.2313,-2.2313,-2.2313,-2.2313,-2.2313,-2.2313,-2.2313,-2.2313,-2.2321,0.0,0.0,0.0,0.0,0.0,0.0,0.0,0.0,0.0,0.0,0.0,-4.9695,-5.1961,0.0,-5.7476,-6.1197,-6.3362,-6.5256,-6.7151,-6.7387,-6.7354,-6.7354,-6.9045,-7.0026,-6.9654,-7.0635,-7.1142,-7.077,-7.0398,-6.9891,-6.9147,-6.7996,-6.6677,-6.5189,-6.4444,-6.3328,-6.1873,-6.0689,-5.9742,-5.8998,-5.7509,-5.6427,-5.5683,-5.4938,-5.4194,-5.3484,-5.3078,-5.2266,-5.1116,-4.9627,-4.8342,-4.7293,-4.6549,-4.5568,-4.4412,-4.2861,-4.2049,-4.1576,-4.0485,-4.0113,-4.0113,-4.0113,-4.0113,-4.0113,-4.0113,-4.0113,-4.0113,-4.0113,-4.0113,-4.0113,-4.0113,-3.9842,-3.9571,-3.9571,-3.8971,-3.8362,-3.798,-3.7584,-3.711,-3.6332,-3.6197,-3.596,-3.5182,-3.4134,-3.3139,-3.2429,-3.136,-3.0514,-3.0156,-2.8737,-2.779,-2.779,-2.7131,-2.6251,-2.5135,-2.4711,-2.3864,-2.2381,-2.2665,-2.2699,-2.2313,-2.2313,-2.2313,-2.2313,-2.2313,-2.2313,-2.2313,-2.2313,-2.2313,-2.2313,-2.2313,-2.2313,0.0,0.0,0.0,0.0,0.0,0.0,0.0,-4.6752,-4.8071,-5.027,-5.2029,-5.4126,-5.7306,-5.9201,-6.1603,-6.5493,-6.6779,-6.7624,-6.8707,-6.8301,-6.7557,-6.6711,-6.847,-6.9316,-6.8233,-6.9789,-7.0635,-7.0026,-6.9553,-6.918,-6.8876,-6.7861,-6.6711,-6.5527,-6.4918,-6.3802,-6.2178,-6.0791,-5.9742,-5.8998,-5.7374,-5.6292,-5.5683,-5.4803,-5.4059,-5.3484,-5.3179,-5.2367,-5.1048,-4.8649,-4.7327,-4.6718,-4.5838,-4.5128,-4.4412,-4.2861,-4.1914,-4.1305,-4.0417,-4.0113,-4.0113,-4.0113,-4.0113,-4.0113,-4.0113,-4.0113,-4.0113,-4.0113,-4.0113,-4.0113,-4.0113,-4.0113,-4.0113,-4.0113,-3.9673,-3.9174,-3.9039,-3.8531,-3.7889,-3.7168,-3.7032,-3.6806,-3.614,-3.5453,-3.4438,-3.2936,-3.1989,-3.119,-3.0615,-2.9176,-2.8263,-2.8263,-2.7469,-2.6556,-2.566,-2.4898,-2.3932,-2.2598,-2.3071,-2.3071,-2.2313,-2.2313,-2.2313,-2.2313,-2.2313,-2.2313,-2.2313,-2.2313,-2.2313,-2.2313,-2.2313,-2.2313,-3.8153,-3.9941,-4.2527,-4.5368,-4.6316,-4.8081,0.0,-5.4431,-5.4228,-5.6427,-5.866,-6.0486,-6.1569,-6.3497,-6.5527,-6.7354,-6.8335,-6.8639,-6.8098,-6.7963,-6.7387,-6.5967,-6.7184,-6.8368,-6.891,-6.9214,-6.9316,-6.9214,-6.9755,-6.9485,-6.8098,-6.8538,-6.759,-6.4816,-6.4647,-6.3565,-6.1434,-6.0554,-5.9742,-5.8961,-5.6867,-5.5784,-5.5683,-5.4262,-5.3585,-5.3416,-5.2063,-5.1386,-5.098,-4.8105,-4.6853,-4.665,-4.5292,-4.4682,-4.4412,-4.2861,-4.2252,-4.1982,-4.0587,-4.0113,-4.0113,-4.0113,-4.0113,-4.0113,-4.0113,-4.0113,-4.0113,-4.0113,-4.0113,-4.0113,-4.0113,-4.0113,-4.0113,-4.0113,-4.0045,-3.9808,-3.914,-3.8937,-3.8667,-3.7922,-3.7787,-3.7753,-3.7652,-3.7043,-3.6017,-3.4472,-3.3072,-3.2158,-3.2056,-3.0751,-2.9818,-2.9818,-2.8534,-2.7114,-2.5728,-2.4898,-2.4135,-2.3342,-2.3342,-2.3071,-2.2313,-2.2313,-2.2313,-2.2313,-2.2313,-2.2313,-2.2313,-2.2313,-2.2313,-2.2313,-2.2313,-2.2313,-4.3371,-4.4234,-4.5372,-4.8022,-5.0045,-5.2198,-5.5446,-5.6021,-5.6765,-5.9877,-6.1637,-6.3091,-6.4681,-6.6068,-6.7455,-6.8977,-6.9519,-6.962,-6.9282,-6.8098,-6.6711,-6.5222,-6.485,-6.5324,-6.6948,-6.7895,-6.8402,-6.8402,-6.8673,-6.8571,-6.7929,-6.7387,-6.6339,-6.4647,-6.4174,-6.3125,-6.1332,-6.0486,-5.9742,-5.8998,-5.6765,-5.5681,-5.5683,-5.4194,-5.3518,-5.3416,-5.1894,-5.1185,-5.0982,-4.8477,-4.7192,-4.6684,-4.5635,-4.4959,-4.4479,-4.3335,-4.2658,-4.2151,-4.1102,-4.0485,-4.0113,-4.0113,-4.0113,-4.0113,-4.0113,-4.0113,-4.0113,-4.0113,-4.0113,-4.0113,-4.0113,-4.0113,-4.0113,-4.0113,-4.0113,-4.0011,-3.9706,-3.9639,-3.9436,-3.8667,-3.8531,-3.8274,-3.7353,-3.6628,-3.5808,-3.471,-3.4007,-3.3275,-3.2429,-3.1413,-3.0412,-2.9533,-2.8466,-2.7384,-2.6319,-2.5947,-2.5286,-2.4101,-2.4034,-2.3729,-2.297,-2.253,-2.2313,-2.2313,-2.2313,-2.2313,-2.2313,-2.2313,-2.2313,-2.2313,-2.2313,-2.2313,-4.5962,-4.6978,-4.8165,-5.0718,-5.3754,-5.6359,-5.734,-5.8118,-5.9471,-6.2381,-6.3429,-6.4377,-6.617,-6.7117,-6.8098,-6.9654,-6.9891,-6.9823,-6.9586,-6.7455,-6.5358,-6.3869,-6.2178,-6.1873,-6.3666,-6.5561,-6.6846,-6.7252,-6.7489,-6.759,-6.759,-6.6576,-6.5561,-6.4647,-6.3903,-6.2787,-6.1332,-6.0486,-5.9742,-5.8998,-5.6765,-5.5681,-5.5683,-5.4194,-5.3518,-5.3416,-5.1894,-5.1185,-5.1016,-4.8785,-4.7462,-4.6718,-4.6007,-4.5229,-4.4547,-4.3944,-4.3267,-4.2455,-4.1542,-4.0832,-4.0383,-4.018,-4.0113,-4.0113,-4.0113,-4.0113,-4.0113,-4.0113,-4.0113,-4.0113,-4.0113,-4.0113,-4.0113,-4.0113,-4.0113,-4.0113,-4.0113,-3.9927,-3.9605,-3.9068,-3.8815,-3.8306,-3.7222,-3.6424,-3.5747,-3.4995,-3.4669,-3.4063,-3.2798,-3.1968,-3.0939,-2.945,-2.8619,-2.7841,-2.7063,-2.6826,-2.6166,-2.488,-2.4812,-2.4372,-2.3444,-2.3071,-2.2733,-2.2313,-2.2482,-2.2584,-2.2584,-2.2584,-2.2584,-2.2632,-2.2801,-2.2801,-4.3434,-4.6549,-5.0452,-5.3651,-5.7205,-6.0317,-6.1839,-6.2787,-6.3531,-6.4377,-6.4546,-6.4816,-6.5561,-6.6339,-6.7354,-6.8876,-6.9147,-6.8876,-6.8064,-6.5459,-6.3057,-6.1569,-5.9404,-5.8321,-5.9133,-6.1907,-6.4241,-6.5662,-6.644,-6.6846,-6.6846,-6.6812,-6.6102,-6.4647,-6.3903,-6.2787,-6.1332,-6.0486,-5.9742,-5.8998,-5.6765,-5.5681,-5.5683,-5.4194,-5.3518,-5.3416,-5.1894,-5.1185,-5.1016,-4.8785,-4.7462,-4.6718,-4.6007,-4.5229,-4.4615,-4.4581,-4.4045,-4.3139,-4.1711,-4.1204,-4.1035,-4.035,-4.0113,-4.0113,-4.0113,-4.0113,-4.0113,-4.0113,-4.0113,-4.0113,-4.0113,-4.0113,-4.0113,-4.0113,-4.0113,-4.0113,-4.0113,-3.9506,-3.8935,-3.8902,-3.8325,-3.7819,-3.7787,-3.715,-3.6446,-3.5774,-3.5065,-3.4336,-3.3566,-3.2758,-3.1718,-3.0209,-2.9397,-2.8619,-2.7824,-2.7097,-2.6387,-2.5592,-2.5575,-2.4932,-2.3444,-2.4068,-2.3763,-2.2313,-2.3004,-2.3376,-2.3376,-2.3376,-2.3376,-2.3376,-2.4101,-2.4034,-4.8346,-5.1094,-5.395,-5.8011,-6.0351,-6.2009,-6.3531,-6.3294,-6.2821,-6.3091,-6.1535,-6.0216,-6.0452,-6.1129,-6.2313,-6.4309,-6.6305,-6.7658,-6.7861,-6.6643,-6.441,-6.0926,-5.9404,-5.8152,-5.6898,-5.9505,-6.1873,-6.3396,-6.4647,-6.5358,-6.5358,-6.5358,-6.4884,-6.3903,-6.2685,-6.1806,-6.1298,-6.0013,-5.8998,-5.8254,-5.6021,-5.4702,-5.4228,-5.3721,-5.3518,-5.3416,-5.1894,-5.1185,-5.1082,-4.9357,-4.7902,-4.6786,-4.6515,-4.5669,-4.4615,-4.4615,-4.4445,-4.3978,-4.2455,-4.161,-4.1068,-4.035,-4.0113,-4.0113,-4.0113,-4.0113,-4.0113,-4.0113,-4.0113,-4.0113,-4.0113,-4.0113,-4.0113,-4.0113,-3.9688,-3.9315,-3.9315,-3.869,-3.8161,-3.8161,-3.7994,-3.7648,-3.7084,-3.643,-3.541,-3.3833,-3.3352,-3.3111,-3.2853,-3.1774,-3.0837,-3.0359,-2.9605,-2.9018,-2.8733,-2.7949,-2.7317,-2.708,-2.6133,-2.5372,-2.4898,-2.4643,-2.4271,-2.3763,-2.4,-2.4135,-2.4135,-2.4135,-2.4135,-2.4135,-2.4372,-2.4372,-5.2266,-5.5006,-5.7509,-6.1501,-6.3024,-6.3734,-6.4444,-6.326,-6.1772,-6.096,-5.8389,-5.6224,-5.5953,-5.6089,-5.7137,-5.9945,-6.2009,-6.3971,-6.6034,-6.4986,-6.3159,-6.0825,-5.9641,-5.8355,-5.6664,-5.8457,-6.0216,-6.1467,-6.3463,-6.4478,-6.4241,-6.4478,-6.4275,-6.3531,-6.2076,-6.1163,-6.0858,-5.9641,-5.8389,-5.7103,-5.5683,-5.4465,-5.3518,-5.3518,-5.3348,-5.301,-5.1726,-5.1048,-5.071,-4.9492,-4.8308,-4.7192,-4.7192,-4.6447,-4.5331,-4.506,-4.4993,-4.4756,-4.3234,-4.2219,-4.1474,-4.073,-4.0316,-4.0113,-4.0113,-4.0113,-4.0113,-4.0113,-4.0113,-4.0113,-4.0113,-4.0113,-4.0003,-3.974,-3.9289,-3.8827,-3.8553,-3.7905,-3.7352,-3.7352,-3.7175,-3.6783,-3.629,-3.5646,-3.4668,-3.3096,-3.2642,-3.2394,-3.2126,-3.1554,-3.0959,-3.0447,-2.9695,-2.9237,-2.9202,-2.8405,-2.7864,-2.7806,-2.6911,-2.6133,-2.5642,-2.5406,-2.5049,-2.4508,-2.4745,-2.488,-2.488,-2.488,-2.488,-2.4914,-2.5151,-2.5151,-5.4938,-5.8118,-6.1061,-6.3937,-6.5155,-6.5425,-6.4613,-6.2651,-6.0385,-5.8084,-5.5209,-5.2875,-5.2063,-5.1454,-5.23,-5.6021,-5.69,-5.8626,-6.3024,-6.1231,-5.9979,-6.1332,-6.0182,-5.8964,-5.8152,-5.8795,-5.9505,-6.0114,-6.2854,-6.4208,-6.3565,-6.4208,-6.4241,-6.3497,-6.2009,-6.0858,-6.0114,-5.9268,-5.7814,-5.5681,-5.5649,-5.4871,-5.3518,-5.3518,-5.3078,-5.2266,-5.1522,-5.0777,-5.0033,-4.9289,-4.8578,-4.7906,-4.7906,-4.7428,-4.665,-4.5974,-4.5669,-4.5432,-4.395,-4.2963,-4.2185,-4.1441,-4.0696,-4.0113,-4.0113,-4.0113,-4.0113,-4.0113,-4.0113,-4.0113,-4.0113,-4.0087,-3.985,-3.9069,-3.8854,-3.8608,-3.7876,-3.7084,-3.6538,-3.6538,-3.5975,-3.5519,-3.5519,-3.4951,-3.4324,-3.3634,-3.3006,-3.2312,-3.1493,-3.1992,-3.189,-3.0553,-2.9789,-2.9335,-2.921,-2.8602,-2.8092,-2.7821,-2.7806,-2.7148,-2.5728,-2.6319,-2.6031,-2.4643,-2.5304,-2.5676,-2.5676,-2.5676,-2.5676,-2.566,-2.6353,-2.6319,-5.8118,-6.1569,-6.4444,-6.5222,-6.5155,-6.441,-6.255,-5.9539,-5.6494,-5.4194,-5.0507,-4.7462,-4.6684,-4.8206,-5.0608,-5.3822,-5.8051,-6.1941,-6.4749,-6.5425,-6.5155,-6.3903,-6.3429,-6.2448,-6.0622,-6.1603,-6.1975,-6.1061,-6.2212,-6.3125,-6.3497,-6.4208,-6.4005,-6.2719,-6.1197,-6.0317,-6.0114,-5.7746,-5.6292,-5.5716,-5.46,-5.3856,-5.3518,-5.3518,-5.3078,-5.2266,-5.1522,-5.0777,-5.0033,-4.9289,-4.8578,-4.7906,-4.7906,-4.7124,-4.5974,-4.5771,-4.5365,-4.4823,-4.4418,-4.3403,-4.2185,-4.1441,-4.0696,-4.0113,-4.0113,-4.0113,-4.0113,-4.0113,-4.0113,-4.0113,-4.0113,-3.9662,-3.9123,-3.8935,-3.8015,-3.7112,-3.6934,-3.6321,-3.5782,-3.5782,-3.5651,-3.5519,-3.5519,-3.537,-3.5011,-3.4354,-3.4114,-3.3366,-3.168,-3.121,-3.0864,-3.0529,-3.0305,-2.9998,-2.947,-2.9566,-2.9202,-2.8072,-2.7879,-2.7384,-2.6454,-2.659,-2.6522,-2.6166,-2.6319,-2.642,-2.642,-2.642,-2.642,-2.642,-2.659,-2.659,-6.2245,-6.4816,-6.6576,-6.6271,-6.4884,-6.2888,-5.9979,-5.6664,-5.3213,-4.9627,-4.665,-4.4282,-4.2888,-4.4485,-4.7158,-5.0507,-5.4938,-5.9471,-6.3666,-6.5222,-6.6,-6.6034,-6.6034,-6.5425,-6.3869,-6.4174,-6.4275,-6.3768,-6.3802,-6.3599,-6.3057,-6.4038,-6.3768,-6.1975,-6.0723,-5.9641,-5.866,-5.7002,-5.5852,-5.5209,-5.4397,-5.3822,-5.3518,-5.3518,-5.2875,-5.1792,-5.1386,-5.0608,-4.9593,-4.9187,-4.8781,-4.8376,-4.8376,-4.7902,-4.709,-4.6413,-4.5906,-4.5466,-4.4818,-4.3775,-4.2726,-4.232,-4.1441,-4.0629,-4.0993,-4.062,-4.018,-4.0493,-4.035,-4.0003,-3.9662,-3.9236,-3.8745,-3.8044,-3.7231,-3.6508,-3.6196,-3.5782,-3.5519,-3.5519,-3.5519,-3.5519,-3.5519,-3.5519,-3.528,-3.4623,-3.4503,-3.3963,-3.2587,-3.1809,-3.115,-3.0552,-3.0519,-3.0348,-2.9954,-3.0154,-2.9913,-2.9087,-2.8576,-2.7977,-2.7215,-2.686,-2.6691,-2.6691,-2.6691,-2.6691,-2.6691,-2.6691,-2.6691,-2.6691,-2.6691,-2.6691,-6.6203,-6.7557,-6.7963,-6.6914,-6.4444,-6.1231,-5.7374,-5.389,-5.0067,-4.5292,-4.3436,-4.2083,-4.0155,-4.117,-4.3572,-4.7428,-5.0642,-5.5007,-6.1603,-6.326,-6.4816,-6.7557,-6.7996,-6.776,-6.7015,-6.6373,-6.6203,-6.6779,-6.6203,-6.4918,-6.2787,-6.3802,-6.3429,-6.1231,-6.0452,-5.9032,-5.6833,-5.6697,-5.5953,-5.46,-5.4499,-5.4126,-5.3518,-5.3518,-5.2672,-5.1185,-5.1185,-5.0371,-4.9018,-4.9018,-4.9018,-4.9018,-4.9018,-4.8951,-4.868,-4.7293,-4.6718,-4.6447,-4.5089,-4.4147,-4.3511,-4.3409,-4.2489,-4.1441,-4.1982,-4.1264,-4.0383,-4.0899,-4.051,-3.9765,-3.9069,-3.8745,-3.8241,-3.6934,-3.6538,-3.629,-3.5651,-3.5519,-3.5519,-3.5519,-3.5519,-3.5519,-3.5519,-3.5519,-3.531,-3.4743,-3.4653,-3.4414,-3.3724,-3.3066,-3.2168,-3.0911,-3.0761,-3.0712,-3.0509,-3.0452,-3.0293,-2.9979,-2.9376,-2.863,-2.7718,-2.7147,-2.6793,-2.6691,-2.6641,-2.6607,-2.6607,-2.6556,-2.6556,-2.6607,-2.6607,-2.6641,-6.7252,-6.8741,-6.9147,-6.6542,-6.3666,-6.0351,-5.5987,-5.0777,-4.6075,-4.3267,-4.0663,-3.8734,-3.8362,-4.046,-4.3707,-4.8105,-5.186,-5.6359,-6.2448,-6.4478,-6.5967,-6.7692,-6.8504,-6.8571,-6.7793,-6.759,-6.732,-6.6846,-6.6677,-6.5933,-6.4309,-6.3903,-6.2651,-6.0385,-6.0182,-5.9032,-5.6833,-5.6224,-5.548,-5.4566,-5.3991,-5.3619,-5.3518,-5.3518,-5.2672,-5.1185,-5.1185,-5.0371,-4.9018,-4.9018,-4.9018,-4.9018,-4.9018,-4.8646,-4.8003,-4.7124,-4.6413,-4.5771,-4.4919,-4.4513,-4.4282,-4.3639,-4.2828,-4.2016,-4.1542,-4.1204,-4.0899,-4.0451,-3.9711,-3.9069,-3.8935,-3.7958,-3.6934,-3.6661,-3.6134,-3.5651,-3.5522,-3.5519,-3.5519,-3.5519,-3.5519,-3.5519,-3.5519,-3.5519,-3.5459,-3.534,-3.534,-3.507,-3.4414,-3.3724,-3.3036,-3.2258,-3.2138,-3.1688,-3.0599,-3.0514,-2.9993,-2.8787,-2.8994,-2.853,-2.7118,-2.7425,-2.7317,-2.6691,-2.6331,-2.6104,-2.6104,-2.5672,-2.5672,-2.6104,-2.6104,-2.6315,-6.8571,-6.935,-6.9079,-6.6846,-6.2854,-5.8254,-5.3348,-4.824,-4.3538,-4.0121,-3.8633,-3.7787,-3.7381,-3.9436,-4.2219,-4.5568,-4.8578,-5.2875,-5.9641,-6.2212,-6.4512,-6.7523,-6.8944,-6.935,-6.8605,-6.8132,-6.776,-6.7421,-6.6677,-6.5764,-6.4647,-6.2787,-6.1231,-6.0148,-5.8998,-5.7679,-5.6258,-5.5513,-5.4769,-5.4025,-5.3687,-5.3518,-5.3518,-5.3518,-5.2875,-5.1758,-5.1386,-5.0574,-4.956,-4.956,-4.9357,-4.9052,-4.9424,-4.912,-4.8342,-4.7192,-4.6583,-4.6109,-4.4987,-4.4615,-4.4547,-4.4147,-4.3504,-4.2895,-4.2929,-4.2388,-4.1711,-4.1339,-4.0428,-3.9347,-3.8539,-3.7469,-3.6508,-3.6102,-3.575,-3.5519,-3.5519,-3.5519,-3.5519,-3.5519,-3.5519,-3.5519,-3.5519,-3.5519,-3.5519,-3.5519,-3.5519,-3.54,-3.507,-3.4741,-3.4023,-3.2647,-3.2826,-3.2497,-3.1122,-3.1311,-3.0917,-2.9583,-2.9659,-2.9227,-2.8142,-2.7997,-2.7796,-2.7429,-2.6891,-2.662,-2.662,-2.6383,-2.619,-2.6108,-2.6354,-2.6414,-6.9113,-6.9519,-6.8876,-6.7049,-6.2212,-5.6494,-5.1082,-4.6278,-4.1779,-3.7642,-3.711,-3.7246,-3.6637,-3.8115,-4.0248,-4.276,-4.4925,-4.8917,-5.6359,-5.9505,-6.2618,-6.6914,-6.891,-6.9654,-6.891,-6.8267,-6.7827,-6.7692,-6.6305,-6.5121,-6.441,-6.1839,-6.0216,-5.9877,-5.8017,-5.6528,-5.548,-5.4871,-5.4228,-5.3518,-5.3518,-5.3518,-5.3518,-5.3518,-5.3078,-5.2266,-5.1691,-5.1014,-5.0304,-5.0168,-4.9763,-4.9289,-4.9695,-4.9492,-4.8815,-4.7327,-4.6887,-4.6819,-4.5331,-4.4852,-4.4852,-4.4852,-4.4282,-4.3741,-4.4181,-4.3504,-4.2455,-4.2151,-4.0988,-3.9556,-3.8155,-3.718,-3.6473,-3.6012,-3.5699,-3.5579,-3.5848,-3.5818,-3.5759,-3.5878,-3.5818,-3.5699,-3.5699,-3.5609,-3.5519,-3.5519,-3.5519,-3.5519,-3.5519,-3.5519,-3.4861,-3.3125,-3.3275,-3.3036,-3.1809,-3.1875,-3.1566,-3.0575,-3.0243,-2.9729,-2.9058,-2.8445,-2.8081,-2.7898,-2.7347,-2.7031,-2.7031,-2.6924,-2.6661,-2.6249,-2.6742,-2.6779,-6.7692,-6.9079,-6.9383,-6.6508,-6.1806,-5.6325,-5.0439,-4.5128,-4.0527,-3.7438,-3.6265,-3.5802,-3.5701,-3.6468,-3.8285,-4.1813,-4.3741,-4.7394,-5.4871,-5.8389,-6.1637,-6.5425,-6.7861,-6.8876,-6.8098,-6.7929,-6.7624,-6.6948,-6.5527,-6.4377,-6.3666,-6.2076,-6.0554,-5.9167,-5.8254,-5.6799,-5.4702,-5.4634,-5.4228,-5.3518,-5.3518,-5.3518,-5.3518,-5.3518,-5.3078,-5.23,-5.2232,-5.1792,-5.1048,-5.0371,-5.0067,-4.9932,-4.9323,-4.9052,-4.8815,-4.7327,-4.7225,-4.7597,-4.6109,-4.5602,-4.5602,-4.5602,-4.5094,-4.4378,-4.3707,-4.3409,-4.3003,-4.1677,-4.0172,-3.8833,-3.8011,-3.7157,-3.6637,-3.7105,-3.6357,-3.5818,-3.6985,-3.6776,-3.6567,-3.7135,-3.6776,-3.6387,-3.6387,-3.5908,-3.5519,-3.5519,-3.5519,-3.5519,-3.5519,-3.5519,-3.519,-3.4414,-3.3814,-3.3215,-3.2467,-3.1357,-3.0606,-3.0486,-2.9904,-2.9252,-2.8489,-2.8342,-2.7988,-2.7285,-2.6751,-2.6466,-2.6466,-2.5978,-2.5971,-2.6395,-2.6989,-2.7494,-6.5155,-6.732,-6.8199,-6.5662,-6.0419,-5.4566,-4.9526,-4.3944,-3.914,-3.6603,-3.5802,-3.56,-3.56,-3.5836,-3.6874,-3.9276,-3.9783,-4.2185,-4.8781,-5.1454,-5.4972,-6.096,-6.3666,-6.5628,-6.7117,-6.7252,-6.6948,-6.6203,-6.5189,-6.4072,-6.2888,-6.14,-6.008,-5.9032,-5.7442,-5.6156,-5.5277,-5.4397,-5.3788,-5.3518,-5.3518,-5.3518,-5.3518,-5.3518,-5.3348,-5.301,-5.2503,-5.2131,-5.176,-5.0459,-4.9659,-4.9227,-4.8927,-4.856,-4.8092,-4.7652,-4.7665,-4.7736,-4.6718,-4.6075,-4.5703,-4.5703,-4.5196,-4.4547,-4.4215,-4.4113,-4.391,-4.2828,-4.137,-3.9994,-3.9262,-3.8056,-3.7015,-3.6896,-3.6746,-3.6776,-3.7315,-3.7225,-3.7105,-3.7375,-3.6896,-3.6477,-3.6477,-3.5938,-3.5519,-3.5519,-3.5519,-3.5519,-3.5519,-3.5519,-3.54,-3.513,-3.4502,-3.3814,-3.3155,-3.2258,-3.1511,-3.1122,-3.0819,-3.017,-2.9113,-2.9044,-2.8693,-2.8004,-2.7425,-2.7115,-2.7115,-2.6904,-2.6693,-2.6539,-2.7077,-2.7259,-6.1467,-6.441,-6.6068,-6.3835,-5.8558,-5.2739,-4.8274,-4.2963,-3.8362,-3.6073,-3.56,-3.56,-3.56,-3.56,-3.6039,-3.7347,-3.7483,-3.9334,-4.4621,-4.7022,-5.0574,-5.6934,-5.9674,-6.2245,-6.5222,-6.6102,-6.6271,-6.573,-6.4613,-6.3396,-6.2144,-6.0622,-5.9438,-5.8693,-5.6765,-5.5615,-5.5378,-5.4126,-5.3518,-5.3518,-5.3518,-5.3518,-5.3518,-5.3518,-5.3518,-5.3484,-5.2909,-5.2536,-5.2166,-5.049,-4.9353,-4.866,-4.8158,-4.7663,-4.7208,-4.7425,-4.7606,-4.7701,-4.7035,-4.6447,-4.6007,-4.5771,-4.5196,-4.4615,-4.4615,-4.4615,-4.4418,-4.3639,-4.2096,-4.0543,-4.0007,-3.8513,-3.7165,-3.7315,-3.7255,-3.7285,-3.7883,-3.7853,-3.7704,-3.7704,-3.7195,-3.6716,-3.6507,-3.5938,-3.5519,-3.5519,-3.5519,-3.5519,-3.5519,-3.5519,-3.5519,-3.5519,-3.4891,-3.4234,-3.3544,-3.2886,-3.2198,-3.154,-3.1271,-3.0746,-2.9853,-2.9424,-2.8995,-2.8535,-2.7901,-2.7585,-2.7585,-2.7585,-2.7375,-2.6896,-2.7469,-2.7565,-5.6461,-6.0148,-6.3024,-6.0723,-5.619,-5.115,-4.6718,-4.2252,-3.8362,-3.6073,-3.56,-3.56,-3.56,-3.56,-3.5893,-3.6694,-3.8024,-4.029,-4.4073,-4.7124,-5.0405,-5.4194,-5.6596,-5.9133,-6.2144,-6.441,-6.5696,-6.5696,-6.3666,-6.211,-6.1366,-5.9877,-5.8693,-5.7915,-5.6461,-5.5344,-5.46,-5.3856,-5.3518,-5.3518,-5.3518,-5.3518,-5.3518,-5.3518,-5.3518,-5.3518,-5.3484,-5.3044,-5.2166,-5.049,-4.9353,-4.8559,-4.6883,-4.6208,-4.625,-4.6454,-4.6979,-4.7506,-4.6989,-4.6786,-4.665,-4.594,-4.5196,-4.4615,-4.4615,-4.4615,-4.4418,-4.3639,-4.1733,-3.9877,-3.9745,-3.8083,-3.6985,-3.8931,-3.7913,-3.7015,-3.896,-3.8871,-3.8392,-3.8392,-3.7853,-3.7195,-3.6596,-3.5938,-3.5519,-3.5519,-3.5519,-3.5519,-3.5519,-3.5519,-3.5519,-3.5519,-3.4891,-3.4234,-3.3544,-3.2886,-3.2198,-3.154,-3.0881,-3.0492,-3.0492,-2.9265,-2.8633,-2.8577,-2.7944,-2.7585,-2.7585,-2.7585,-2.7585,-2.761,-2.8198,-2.881,-5.0338,-5.3247,-5.531,-5.3078,-5.0135,-4.6887,-4.3403,-4.0358,-3.7753,-3.5971,-3.56,-3.56,-3.56,-3.56,-3.6343,-3.87,-3.9445,-4.0696,-4.3403,-4.6786,-5.0405,-5.4126,-6.0148,-6.4377,-6.5324,-6.5561,-6.5493,-6.4986,-6.3362,-6.1839,-6.0554,-5.9066,-5.8118,-5.7881,-5.6461,-5.5615,-5.5344,-5.4126,-5.3518,-5.3518,-5.3518,-5.3518,-5.3518,-5.3518,-5.3518,-5.3416,-5.2232,-5.159,-5.1119,-4.8284,-4.7014,-4.6655,-4.5662,-4.5264,-4.5342,-4.6054,-4.6433,-4.6635,-4.6615,-4.6271,-4.5832,-4.5732,-4.5196,-4.4615,-4.4615,-4.4615,-4.4288,-4.2843,-4.1909,-4.096,-3.9256,-3.8632,-3.8542,-3.8691,-3.8601,-3.8661,-3.9254,-3.926,-3.908,-3.908,-3.8542,-3.8003,-3.7823,-3.6896,-3.6178,-3.6178,-3.5789,-3.5519,-3.5519,-3.5519,-3.5519,-3.5519,-3.531,-3.51,-3.4891,-3.3425,-3.2617,-3.2856,-3.1809,-3.0972,-3.0522,-2.9714,-2.9056,-2.8607,-2.7944,-2.7585,-2.7585,-2.7585,-2.7585,-2.7585,-2.781,-2.7978,-4.5162,-4.797,-4.983,-4.8173,-4.6075,-4.3775,-4.1339,-3.9073,-3.7144,-3.5836,-3.56,-3.56,-3.56,-3.56,-3.6208,-3.8101,-3.8903,-4.0054,-4.2252,-4.5805,-4.9864,-5.4465,-6.0757,-6.485,-6.5121,-6.5222,-6.4986,-6.4241,-6.255,-6.0858,-5.9336,-5.8118,-5.734,-5.707,-5.5919,-5.5277,-5.5277,-5.4093,-5.3518,-5.3518,-5.3518,-5.3518,-5.3484,-5.3179,-5.3044,-5.2943,-5.1256,-5.0311,0.0,-4.7061,-4.5725,-4.537,-4.455,-4.409,-4.4028,-4.4934,-4.5136,-4.496,-4.5144,-4.4918,-4.4556,-4.473,-4.4697,-4.4559,-4.4212,-4.4355,-4.4327,-4.2892,-4.2269,-4.1563,-3.9753,-3.9154,-3.899,-3.8811,-3.8901,-3.911,-3.9379,-3.9373,-3.9349,-3.908,-3.8691,-3.8302,-3.8063,-3.7345,-3.6746,-3.6507,-3.6148,-3.5789,-3.5549,-3.5519,-3.5519,-3.5519,-3.5519,-3.5519,-3.5519,-3.4113,-3.3335,-3.3484,-3.2497,-3.169,-3.127,-3.0402,-2.9624,-2.8996,-2.8334,-2.7854,-2.7585,-2.7585,-2.7585,-2.7585,-2.7585,-2.7585,0.0,-4.391,-4.5906,-4.5162,-4.3436,-4.1542,-4.0096,-3.8227,0.0,-3.5769,-3.56,-3.5633,-3.5735,-3.5701,-3.5769,-3.6039,-3.728,-3.9005,-4.1204,-4.4993,-4.9661,-5.5412,-5.9404,-6.1873,-6.2347,-6.3734,-6.4275,-6.3497,-6.1366,-5.9471,-5.7983,-5.7137,-5.6393,-5.5649,-5.4905,-5.4532,-5.46,-5.3856,-5.3518,-5.3518,-5.3518,-5.3518,-5.3484,-5.2672,-5.23,-5.2199,-5.0457,-4.9286,-4.8456,-4.6576,-4.537,-4.4586,-4.3654,-4.294,-4.2496,-4.3383,-4.3288,-4.2749,-4.2928,-4.2973,-4.3007,-4.3184,-4.3798,-4.4355,-4.3472,-4.3798,-4.4327,-4.338,-4.252,-4.1691,-4.0826,-3.9538,-3.8631,-3.926,-3.8931,-3.8631,-3.929,-3.9373,-3.923,-3.8571,-3.8452,-3.8272,-3.7644,-3.7524,-3.7255,-3.6656,-3.6507,-3.6237,-3.5579,-3.5519,-3.5519,-3.5519,-3.5519,-3.5519,-3.5519,-3.4891,-3.4234,-3.3604,-3.2946,-3.2557,-3.2527,-3.127,-3.0283,-2.9681,-2.8996,-2.8338,-2.7735,-2.7675,-2.7675,-2.7675,-2.7615,-2.7585,-3.6918,0.0,-3.8937,-3.8193,-3.8024,-3.7821,0.0,-3.6738,-3.6569,-3.5769,-3.56,-3.5938,-3.7121,-3.6907,-3.7449,-4.0257,-4.1035,-4.2049,-4.4316,-5.0304,-5.5818,-5.9539,-6.326,-6.4681,-6.2584,-6.3734,-6.4072,-6.2753,-6.1061,-5.9471,-5.7983,-5.6664,-5.5615,-5.4871,-5.4126,-5.4025,-5.4566,-5.3856,-5.3518,-5.3518,-5.3518,-5.3518,-5.3484,-5.2672,-5.23,-5.2199,-4.9925,-4.8448,-4.7484,-4.5739,-4.4511,-4.3615,-4.3409,-4.294,-4.2449,-4.265,-4.2274,-4.1758,-4.1961,-4.2025,-4.2037,-4.2237,-4.2925,-4.3443,-4.2583,-4.2892,-4.329,-4.1723,-4.1164,-4.0792,-3.992,-3.9433,-3.92,-3.9343,-3.929,-3.923,-3.9379,-3.9373,-3.9343,-3.92,-3.917,-3.914,-3.896,-3.8512,-3.7943,-3.7285,-3.6776,-3.6237,-3.5579,-3.5519,-3.5519,-3.5519,-3.5519,-3.5519,-3.5519,-3.4891,-3.4444,-3.4294,-3.3634,-3.3036,-3.2497,-3.169,-3.0943,-3.0313,-2.9684,-2.9292,-2.9142,-2.8607,-2.8368,-2.8338,-2.7854,-2.7585,-3.56,-3.6197,-3.6694,-3.6265,-3.6468,-3.6694,-3.6231,-3.6197,-3.6129,-3.5667,-3.56,-3.5971,-3.7178,-3.7066,-3.7675,-4.0324,-4.1339,-4.3301,-4.7631,-5.2604,-5.7171,-6.0858,-6.3362,-6.441,-6.3497,-6.3531,-6.3125,-6.1975,-6.0486,-5.8795,-5.7002,-5.6156,-5.5209,-5.4126,-5.3721,-5.3687,-5.4093,-5.3687,-5.3518,-5.3518,-5.3518,-5.3315,-5.2909,-5.2164,-5.1623,-5.1185,-4.9094,-4.7657,-4.6681,-4.5346,-4.4236,-4.329,-4.329,-4.2761,-4.1961,-4.1961,-4.1294,-4.0501,-4.0618,-4.0896,-4.1255,-4.1357,-4.1981,-4.2552,-4.1658,-4.1723,-4.1885,-4.0995,-4.069,-4.0485,-3.9631,-3.9373,-3.9373,-3.9373,-3.9373,-3.9373,-3.9373,-3.9373,-3.9373,-3.9373,-3.9373,-3.9373,-3.9373,-3.911,-3.8542,-3.7554,-3.7135,-3.6567,-3.5639,-3.5519,-3.5519,-3.5519,-3.5519,-3.5519,-3.5519,-3.516,-3.4951,-3.4951,-3.4322,-3.3664,-3.3006,-3.2318,-3.1481,-3.0522,-2.9894,-2.9621,-2.9621,-2.9235,-2.9056,-2.9056,-2.8693,-2.8513,-3.5532,-3.6265,-3.6931,-3.6694,-3.6728,-3.6761,-3.666,-3.6096,-3.56,-3.56,-3.5701,-3.6062,-3.6965,-3.7337,-3.8014,-3.958,-4.1373,-4.479,-5.1183,-5.3923,-5.6731,-6.0655,-6.2076,-6.299,-6.3666,-6.2922,-6.2009,-6.1028,-5.9641,-5.7949,-5.5818,-5.5615,-5.4938,-5.3551,-5.3518,-5.3518,-5.3518,-5.3518,-5.345,-5.3315,-5.3315,-5.2909,-5.2097,-5.1386,-5.071,-5.0002,-4.846,-4.7205,-4.6138,-4.5337,-4.432,-4.329,-4.329,-4.2521,-4.1422,-4.1422,-4.0546,-3.9373,-3.9373,-3.9955,-4.069,-4.0519,-4.1002,-4.1499,-4.0727,-4.0423,-4.0362,-4.0454,-4.0485,-4.0343,-3.9559,-3.9373,-3.9373,-3.9373,-3.9373,-3.9373,-3.9373,-3.9373,-3.9373,-3.9373,-3.9373,-3.9373,-3.9373,-3.9373,-3.899,-3.7734,-3.7554,-3.7105,-3.5818,-3.5639,-3.5609,-3.5519,-3.5519,-3.5519,-3.5519,-3.5519,-3.5519,-3.5519,-3.4951,-3.4292,-3.3514,-3.2766,-3.1839,-3.0672,-3.0133,-2.9894,-2.9894,-2.9774,-2.9741,-2.9741,-2.9651,-2.9621,-3.5261,-3.6637,-3.7415,-3.6107,-3.6299,-3.6626,-3.596,-3.5667,-3.56,-3.56,-3.6129,-3.7032,-3.8396,-3.9681,-4.1238,-4.3396,-4.6578,-5.0405,-5.5277,-5.734,-5.8829,-6.0148,-6.2651,-6.3091,-6.0148,-6.14,-6.1535,-5.9539,-5.8558,-5.7374,-5.5749,-5.5108,-5.4363,-5.3518,-5.3518,-5.3518,-5.3518,-5.3518,-5.3179,-5.2469,-5.2469,-5.2097,-5.132,-5.0608,-5.0202,-5.0033,-4.9164,-4.7803,-4.6173,-4.6032,-4.4937,-4.329,-4.329,-4.2521,-4.1422,-4.1422,-4.0546,-3.9373,-3.9373,-3.9955,-4.0588,-3.9844,-3.9803,-4.0013,-3.9698,-3.9204,-3.8843,-3.9444,-3.9625,-3.9589,-3.9409,-3.9373,-3.9373,-3.9373,-3.9373,-3.9373,-3.9373,-3.9373,-3.9373,-3.9373,-3.9373,-3.9373,-3.9373,-3.9373,-3.914,-3.8362,-3.8242,-3.7793,-3.6507,-3.6327,-3.6118,-3.5579,-3.5519,-3.5519,-3.5519,-3.5519,-3.5519,-3.5519,-3.54,-3.4801,-3.3544,-3.2288,-3.157,-3.1361,-3.1241,-3.1212,-3.1212,-3.0642,-3.0372,-3.0342,-2.9861,-2.9621,-3.4213,-3.5498,-3.6603,-3.6332,-3.7415,-3.8396,-3.7618,-3.7144,-3.6817,-3.6817,-3.7144,-3.7855,-3.9343,-4.0798,-4.32,-4.7462,-5.0304,-5.3078,-5.6325,-5.7036,-5.7814,-5.9336,-6.0385,-6.0622,-5.9674,-6.0182,-5.9979,-5.8524,-5.7712,-5.6664,-5.5175,-5.4769,-5.4262,-5.3518,-5.3518,-5.3281,-5.2875,-5.2841,-5.2672,-5.23,-5.23,-5.1691,-5.0576,-4.9721,-4.9385,-4.9427,-4.8182,-4.6881,-4.5632,-4.5248,-4.3956,-4.2312,-4.2671,-4.2013,-4.0816,-4.0457,-3.9948,-3.9373,-3.9373,-3.9666,-3.992,-3.9553,-3.9455,-3.9525,-3.9427,-3.92,-3.902,-3.932,-3.9373,-3.9373,-3.9373,-3.9373,-3.9373,-3.9373,-3.9373,-3.9373,-3.9373,-3.9373,-3.9373,-3.9373,-3.9373,-3.9373,-3.9373,-3.9373,-3.92,-3.8482,-3.8093,-3.7524,-3.6596,-3.6178,-3.5848,-3.5549,-3.5519,-3.5519,-3.5519,-3.5519,-3.5519,-3.5519,-3.4831,-3.4143,-3.3514,-3.2198,-3.1511,-3.1511,-3.1511,-3.1511,-3.1511,-3.1182,-3.1032,-3.1032,-3.0761,-3.0642,-3.3355,-3.4484,-3.5769,-3.6626,-3.8058,-3.9411,-3.9681,-3.9073,-3.8633,-3.9309,-3.9478,-3.9783,-4.0704,-4.2388,-4.5331,-5.0608,-5.2909,-5.4803,-5.7002,-5.6833,-5.7171,-5.9066,-5.8626,-5.8524,-5.9471,-5.893,-5.8186,-5.7442,-5.6697,-5.5784,-5.4668,-5.4431,-5.3991,-5.3247,-5.3213,-5.2841,-5.2063,-5.2063,-5.1961,-5.1792,-5.1792,-5.1082,-4.9799,-4.8895,-4.8561,-4.8652,-4.7136,-4.5929,-4.4896,-4.4317,-4.302,-4.1482,-4.1961,-4.1452,-4.0337,-3.9679,-3.9373,-3.9373,-3.9373,-3.9373,-3.9373,-3.9373,-3.932,-3.92,-3.9343,-3.932,-3.92,-3.9379,-3.9373,-3.9373,-3.9373,-3.9373,-3.9373,-3.9373,-3.9373,-3.9373,-3.9373,-3.9373,-3.9373,-3.9373,-3.9373,-3.9373,-3.9373,-3.929,-3.905,-3.8691,-3.7943,-3.7225,-3.6776,-3.6148,-3.5669,-3.5519,-3.5519,-3.5519,-3.5519,-3.5519,-3.5519,-3.5519,-3.4233,-3.3484,-3.3484,-3.2198,-3.1511,-3.1511,-3.1511,-3.1511,-3.1511,-3.1511,-3.1511,-3.1511,-3.1511,-3.1511,-3.322,-3.4484,-3.5769,-3.6626,-3.6931,-3.7946,-4.1271,-4.0933,-4.0756,-4.3532,-4.4141,-4.391,-4.3274,-4.5539,-4.8545,-5.1725,-5.4093,-5.6325,-5.8558,-5.8829,-5.9099,-5.9911,-5.937,-5.8693,-5.8084,-5.7374,-5.6664,-5.5919,-5.5175,-5.4702,-5.46,-5.3957,-5.3213,-5.2401,-5.2401,-5.2029,-5.1286,-5.1285,-5.0947,-5.0236,-5.0236,-4.983,-4.9055,-4.8098,-4.7764,-4.7909,-4.6937,-4.5603,-4.4189,-4.4125,-4.302,-4.1422,-4.1482,-4.1025,-4.0337,-3.9679,-3.9373,-3.9373,-3.9373,-3.9373,-3.9373,-3.9373,-3.899,-3.8571,-3.923,-3.896,-3.8601,-3.923,-3.9373,-3.9373,-3.9373,-3.9373,-3.9373,-3.9373,-3.9373,-3.9373,-3.9373,-3.9373,-3.9373,-3.9373,-3.9373,-3.9373,-3.9373,-3.8901,-3.8661,-3.926,-3.8242,-3.7404,-3.7345,-3.6806,-3.6178,-3.5579,-3.5519,-3.5519,-3.5519,-3.5519,-3.5519,-3.5519,-3.4233,-3.3484,-3.3484,-3.2198,-3.1511,-3.1511,-3.1511,-3.1511,-3.1511,-3.1511,-3.1511,-3.1511,-3.1511,-3.1511,-3.1968,-3.3795,-3.5769,-3.6626,-3.7506,-3.887,-4.1644,-4.2618,-4.3498,-4.5534,-4.6312,-4.6583,-4.6249,-4.8244,-5.0777,-5.3315,-5.5615,-5.7679,-5.9438,-5.8896,-5.8423,-5.8693,-5.7679,-5.6867,-5.6562,-5.5685,-5.5074,-5.5039,-5.4144,-5.3705,-5.3889,-5.3179,-5.2604,-5.23,-5.186,-5.1251,-5.0507,-5.0507,-5.0135,-4.9424,-4.9864,-4.9695,-4.8923,-4.7406,-4.7177,-4.7747,-4.5241,-4.389,-4.3389,-4.2408,-4.1287,-4.0157,-4.0157,-4.0247,-4.0337,-3.9679,-3.9373,-3.9373,-3.9373,-3.9373,-3.9373,-3.9373,-3.926,-3.908,-3.9313,-3.923,-3.908,-3.9313,-3.9373,-3.9373,-3.9373,-3.911,-3.8781,-3.8781,-3.8781,-3.8781,-3.8781,-3.911,-3.9373,-3.9373,-3.908,-3.8781,-3.8781,-3.8212,-3.8003,-3.8691,-3.7674,-3.6985,-3.7375,-3.6507,-3.5789,-3.5519,-3.5519,-3.5519,-3.5519,-3.5519,-3.5519,-3.5519,-3.4622,-3.4113,-3.4113,-3.3245,-3.2557,-3.2108,-3.2108,-3.1899,-3.1511,-3.1511,-3.1511,-3.1511,-3.1511,-3.1511,-3.1596,-3.3355,-3.5453,-3.6231,-3.7889,-4.0054,-4.276,-4.435,-4.6003,-4.8409,-4.8748,-4.868,-4.8886,-4.9799,-5.1251,-5.3518,-5.5547,-5.7273,-5.8558,-5.7848,-5.7205,-5.7205,-5.6122,-5.5239,-5.4888,-5.3974,-5.339,-5.3288,-5.2666,-5.2407,-5.2637,-5.2202,-5.186,-5.1623,-5.1116,-5.0507,-4.9763,-4.9729,-4.9492,-4.9018,-4.9289,-4.8996,-4.8209,-4.661,-4.6089,-4.6238,-4.3556,-4.2372,-4.2259,-4.1151,-4.017,-3.9373,-3.9373,-3.9679,-4.0038,-3.9553,-3.9373,-3.9373,-3.9373,-3.9373,-3.9373,-3.9373,-3.9373,-3.9373,-3.9373,-3.9373,-3.9373,-3.9373,-3.9373,-3.9373,-3.9373,-3.908,-3.8721,-3.8721,-3.8721,-3.8721,-3.8721,-3.908,-3.9373,-3.9373,-3.905,-3.8631,-3.8422,-3.7853,-3.7644,-3.8302,-3.7135,-3.6477,-3.7315,-3.6297,-3.5519,-3.5519,-3.5519,-3.5519,-3.5519,-3.5519,-3.5519,-3.5519,-3.507,-3.4743,-3.4503,-3.3874,-3.3275,-3.2826,-3.2826,-3.2497,-3.1809,-3.1809,-3.172,-3.1511,-3.1511,-3.1511,-3.2496,-3.3376,-3.4675,-3.543,-3.7898,-4.111,-4.4857,-4.6278,-4.8071,-5.2604,-5.1725,-5.0338,-5.1082,-5.0033,-4.9763,-5.1961,-5.3585,-5.4871,-5.5615,-5.5681,-5.5716,-5.5716,-5.504,-5.4186,-5.3086,-5.2317,-5.1451,-5.0474,-5.0619,-5.0766,-5.0766,-5.1028,-5.0813,-5.0101,-5.0067,-4.9729,-4.9018,-4.8984,-4.8984,-4.8984,-4.821,-4.7407,-4.6583,-4.5594,-4.4417,-4.3038,-4.2094,-4.1306,-4.0659,-4.0659,-4.017,-3.9373,-3.9373,-3.9373,-3.9373,-3.9373,-3.9373,-3.9373,-3.9373,-3.9373,-3.9373,-3.9373,-3.9373,-3.9373,-3.9373,-3.9373,-3.9373,-3.9373,-3.9373,-3.9373,-3.9373,-3.9373,-3.9373,-3.9373,-3.9373,-3.9373,-3.9373,-3.9373,-3.9373,-3.9373,-3.9373,-3.92,-3.8512,-3.7823,-3.7614,-3.8272,-3.6746,-3.5968,-3.7225,-3.6297,-3.5519,-3.5519,-3.5519,-3.5519,-3.5519,-3.5519,-3.5519,-3.5519,-3.5519,-3.519,-3.4533,-3.3873,-3.3514,-3.3514,-3.3514,-3.3185,-3.2497,-3.2527,-3.2138,-3.154,-3.1511,-3.1511,-3.2496,-3.3761,-3.5588,-3.6884,-3.9825,-4.3105,-4.5838,-4.7462,-4.9458,-5.345,-5.3315,-5.2401,-5.2063,-5.2097,-5.2198,-5.23,-5.3585,-5.4871,-5.5615,-5.5243,-5.4938,-5.4938,-5.4262,-5.3378,-5.2359,-5.0945,-5.0005,-4.9705,-4.8688,-4.8381,-4.905,-4.9316,-4.9327,-4.9128,-4.9244,-4.8984,-4.824,-4.824,-4.7662,-4.6533,-4.6333,-4.6341,-4.655,-4.5076,-4.3935,-4.3005,-4.1463,-4.0466,-3.9913,-3.8811,-3.8486,-3.8691,-3.8691,-3.899,-3.9373,-3.9373,-3.9373,-3.9373,-3.9373,-3.9373,-3.9373,-3.9373,-3.9373,-3.9373,-3.9373,-3.9373,-3.932,-3.8841,-3.905,-3.932,-3.8811,-3.905,-3.929,-3.8811,-3.8691,-3.8691,-3.8691,-3.908,-3.9373,-3.9373,-3.902,-3.8482,-3.7823,-3.6591,-3.603,-3.6948,-3.5554,-3.4823,-3.5899,-3.5729,-3.5519,-3.5519,-3.5519,-3.5519,-3.5519,-3.5519,-3.5519,-3.5519,-3.5519,-3.54,-3.522,-3.5011,-3.4681,-3.4234,-3.4204,-3.3873,-3.3215,-3.2736,-3.2647,-3.2886,-3.1929,-3.175,-3.3491,-3.481,-3.6569,-3.87,-4.1779,-4.506,-4.7902,-4.9729,-5.1589,-5.4465,-5.3957,-5.3078,-5.3179,-5.2875,-5.2638,-5.2773,-5.3551,-5.4329,-5.4769,-5.4431,-5.416,-5.416,-5.3179,-5.2056,-5.1026,-4.9384,-4.8243,-4.7817,-4.692,-4.667,-4.7283,-4.7555,-4.7728,-4.7803,-4.7604,-4.7489,-4.7432,-4.6786,-4.6114,-4.5492,-4.4849,-4.4626,-4.4654,-4.3633,-4.2622,-4.1554,-4.0188,-3.928,-3.873,-3.8065,-3.8033,-3.8422,-3.8691,-3.905,-3.9373,-3.9373,-3.9373,-3.9343,-3.911,-3.92,-3.9379,-3.911,-3.902,-3.902,-3.902,-3.8841,-3.8542,-3.8123,-3.8302,-3.8571,-3.8422,-3.8691,-3.896,-3.8841,-3.8811,-3.8811,-3.8811,-3.911,-3.9373,-3.9373,-3.908,-3.8376,-3.7074,-3.605,-3.5421,-3.5363,-3.4473,-3.4232,-3.5356,-3.5133,-3.5067,-3.5457,-3.5519,-3.5519,-3.5519,-3.5519,-3.5519,-3.5519,-3.5519,-3.5519,-3.5519,-3.5519,-3.531,-3.4923,-3.4891,-3.4562,-3.3873,-3.3484,-3.3365,-3.3484,-3.2677,-3.2497,-3.4923,-3.6096,-3.7438,-4.0527,-4.3673,-4.6921,-5.0439,-5.23,-5.3721,-5.5209,-5.3923,-5.2942,-5.4329,-5.2909,-5.1961,-5.3281,-5.3518,-5.3484,-5.3416,-5.3315,-5.3247,-5.3146,-5.169,-5.0278,-4.9251,-4.7736,-4.6379,-4.5297,-4.5349,-4.5395,-4.5395,-4.5719,-4.5971,-4.616,-4.5496,-4.5571,-4.6566,-4.4918,-4.4431,-4.507,-4.359,-4.238,-4.1399,-4.1531,-4.0734,-3.92,-3.8512,-3.7883,-3.7375,-3.7913,-3.8153,-3.8272,-3.8901,-3.92,-3.9194,-3.9194,-3.9194,-3.914,-3.8512,-3.8721,-3.914,-3.8512,-3.8332,-3.8392,-3.8332,-3.7913,-3.7464,-3.7345,-3.7375,-3.7554,-3.8153,-3.8332,-3.8542,-3.917,-3.9379,-3.9373,-3.9373,-3.9373,-3.9409,-3.9313,-3.932,-3.862,-3.6416,-3.5899,-3.5239,-3.3614,-3.3458,-3.3945,-3.5222,-3.4576,-3.4409,-3.5392,-3.5519,-3.5519,-3.5519,-3.5519,-3.5519,-3.5519,-3.5519,-3.5519,-3.5519,-3.5519,-3.5519,-3.5519,-3.5519,-3.519,-3.4593,-3.4533,-3.4234,-3.3664,-3.3544,-3.3514,-3.4438,-3.5284,-3.6874,-4.1035,-4.5196,-4.8815,-5.0777,-5.1455,-5.2131,-5.3653,-5.4025,-5.4194,-5.4532,-5.4194,-5.3788,-5.3551,-5.3518,-5.3281,-5.2638,-5.1898,-5.1252,-5.0653,-4.9622,-4.8514,-4.7558,-4.6624,-4.5672,-4.4608,-4.3657,-4.3111,-4.3111,-4.3358,-4.3541,-4.3595,-4.4147,-4.4594,-4.4915,-4.388,-4.288,-4.1976,-4.1461,-4.0214,-3.8379,-3.9616,-3.929,-3.7793,-3.7165,-3.6806,-3.6656,-3.6267,-3.6417,-3.6896,-3.7075,-3.7404,-3.7853,-3.7853,-3.7853,-3.7823,-3.7674,-3.7704,-3.7823,-3.7674,-3.7973,-3.8302,-3.7764,-3.7883,-3.7973,-3.6956,-3.7045,-3.7434,-3.7584,-3.8003,-3.8422,-3.8571,-3.902,-3.9373,-3.9373,-3.9373,-3.926,-3.8721,-3.8601,-3.8112,-3.6658,-3.5123,-3.355,-3.1951,-3.2318,-3.3185,-3.4206,-3.4143,-3.4409,-3.5392,-3.5519,-3.5519,-3.5519,-3.5519,-3.5519,-3.5519,-3.5519,-3.5519,-3.5519,-3.5519,-3.5519,-3.5519,-3.5519,-3.5429,-3.528,-3.4773,-3.4713,-3.504,-3.3993,-3.3784,-3.4474,-3.5588,-3.7516,-4.3064,-4.6752,-4.939,-5.0879,-5.1185,-5.1454,-5.2232,-5.2706,-5.2976,-5.2976,-5.3247,-5.3247,-5.2536,-5.2706,-5.2505,-5.1296,-5.0688,-5.0072,-4.9222,-4.7965,-4.7026,-4.6485,-4.5087,-4.3996,-4.3429,-4.25,-4.1931,-4.1931,-4.2031,-4.218,-4.2271,-4.2346,-4.2501,-4.2772,-4.1494,-4.0528,-3.9882,-3.9344,-3.8364,-3.7019,-3.8095,-3.8001,-3.6956,-3.6626,-3.6297,-3.6028,-3.5998,-3.6178,-3.6507,-3.6806,-3.7135,-3.7404,-3.7404,-3.7404,-3.7375,-3.7075,-3.7165,-3.7375,-3.7075,-3.7195,-3.7404,-3.7075,-3.6985,-3.6866,-3.6207,-3.6237,-3.6567,-3.6896,-3.7225,-3.7554,-3.7853,-3.8422,-3.8841,-3.8512,-3.8452,-3.8362,-3.8003,-3.7913,-3.7307,-3.5444,-3.3247,-3.1649,-3.1257,-3.123,-3.1901,-3.3774,-3.3602,-3.3905,-3.5359,-3.5519,-3.5519,-3.5519,-3.5519,-3.5519,-3.5519,-3.5519,-3.5519,-3.5519,-3.5519,-3.5519,-3.5519,-3.5519,-3.5519,-3.5519,-3.513,-3.516,-3.5489,-3.4771,-3.4651,-3.4208,-3.6196,-3.8768,-4.4722,-4.7428,-4.8984,-5.0306,-5.061,-5.0676,-5.0811,-5.1016,-5.1185,-5.1185,-5.156,-5.1663,-5.1057,-5.1329,-5.1094,-4.9579,-4.9237,-4.8784,-4.7896,-4.6385,-4.5395,-4.531,-4.3554,-4.2351,-4.2231,-4.1632,-4.1205,-4.1205,-4.0995,-4.0945,-4.1155,-4.0317,-4.0104,-4.0578,-3.9011,-3.8334,-3.8522,-3.7543,-3.6866,-3.6507,-3.6896,-3.6806,-3.6327,-3.6327,-3.5998,-3.5549,-3.6088,-3.6327,-3.6357,-3.6896,-3.7075,-3.7075,-3.7075,-3.7075,-3.7015,-3.6507,-3.6656,-3.6985,-3.6477,-3.6387,-3.6477,-3.6357,-3.6028,-3.5639,-3.5549,-3.5519,-3.5639,-3.6327,-3.6477,-3.6626,-3.7135,-3.7674,-3.7943,-3.7494,-3.7404,-3.7375,-3.7255,-3.6999,-3.6049,-3.3604,-3.1435,-3.0254,-3.0857,-3.033,-3.0759,-3.3429,-3.3052,-3.3359,-3.5294,-3.5519,-3.5519,-3.5519,-3.5519,-3.5519,-3.5519,-3.5359,-3.5231,-3.5231,-3.51,-3.5001,-3.5001,-3.5166,-3.5231,-3.5231,-3.5231,-3.5326,-3.5519,-3.5519,-3.5519,-3.242,-3.6195,-4.0333,-4.3139,-4.55,-4.7293,-4.8173,-4.8311,-4.8514,-4.9154,-5.0304,-5.1185,-5.1185,-5.0627,-5.012,-5.002,-4.936,-4.8594,-4.7773,-4.6951,-4.6166,-4.5348,-4.4311,-4.3407,-4.2943,-4.2578,-4.2171,-4.1602,-4.0905,-4.0516,-4.0516,-3.9409,-3.8822,-3.8843,-3.8162,-3.8186,-3.9026,-3.8038,-3.7637,-3.784,-3.6392,-3.6028,-3.6477,-3.5968,-3.5699,-3.5639,-3.5639,-3.5579,-3.5519,-3.5609,-3.5639,-3.5639,-3.5729,-3.5759,-3.5759,-3.5759,-3.5759,-3.5759,-3.5669,-3.5699,-3.5759,-3.5669,-3.6028,-3.6387,-3.5818,-3.5968,-3.6237,-3.5669,-3.5519,-3.5639,-3.6327,-3.6477,-3.6507,-3.6596,-3.6686,-3.6866,-3.7315,-3.7404,-3.7255,-3.6716,-3.5423,-3.3829,-3.189,-3.1246,-3.0771,-3.0101,-2.9895,-3.0533,-3.2522,-3.2664,-3.3359,-3.5294,-3.5519,-3.5519,-3.5519,-3.5519,-3.5519,-3.5519,-3.4677,-3.4211,-3.4211,-3.3429,-3.301,-3.301,-3.3774,-3.4211,-3.4211,-3.4211,-3.4643,-3.5519,-3.5519,-3.5519,-3.2403,-3.5613,-3.887,-4.1508,-4.3538,-4.5229,-4.6413,-4.6989,-4.7394,-4.7699,-4.7869,-4.8155,-4.8524,-4.8492,-4.8167,-4.7355,-4.7235,-4.6773,-4.553,-4.4684,-4.3828,-4.2985,-4.2491,-4.2132,-4.1871,-4.1512,-4.1145,-4.0846,-3.9858,-3.929,-3.929,-3.8362,-3.7853,-3.7853,-3.7554,-3.7429,-3.7499,-3.7067,-3.6737,-3.6464,-3.5804,-3.5639,-3.5938,-3.5639,-3.5519,-3.5519,-3.5519,-3.5519,-3.5519,-3.5519,-3.5519,-3.5519,-3.5519,-3.5519,-3.5519,-3.5519,-3.5519,-3.5519,-3.5519,-3.5519,-3.5519,-3.5519,-3.5699,-3.5878,-3.5579,-3.5699,-3.5878,-3.5579,-3.5519,-3.5579,-3.5848,-3.5938,-3.5938,-3.5938,-3.5938,-3.5998,-3.6297,-3.6357,-3.6071,-3.5276,-3.3662,-3.2164,-3.1352,-3.0771,-3.0292,-2.9856,-2.9804,-3.0292,-3.1646,-3.2272,-3.315,-3.4509,-3.5166,-3.5519,-3.5519,-3.5519,-3.5231,-3.4706,-3.4245,-3.3774,-3.3227,-3.2806,-3.2343,-3.1829,-3.2735,-3.3192,-3.3192,-3.3192,-3.3429,-3.3871,-3.3871,-3.3871,-3.2357,-3.4442,-3.6535,-3.914,-4.1204,-4.2929,-4.4248,-4.5263,-4.5974,-4.6177,-4.5233,-4.4489,-4.5078,-4.5717,-4.5826,-4.4776,-4.4855,-4.4616,-4.3353,-4.275,-4.2187,-4.1468,-4.1422,-4.1302,-4.0905,-4.0427,-4.0008,-3.9679,-3.8721,-3.8153,-3.8153,-3.7524,-3.7165,-3.7165,-3.7015,-3.6716,-3.6237,-3.6237,-3.5998,-3.5519,-3.5519,-3.5519,-3.5519,-3.5519,-3.5519,-3.5519,-3.5519,-3.5519,-3.5519,-3.5519,-3.5519,-3.5519,-3.5519,-3.5519,-3.5519,-3.5519,-3.5519,-3.5519,-3.5519,-3.5519,-3.5519,-3.5519,-3.5519,-3.5519,-3.5519,-3.5519,-3.5519,-3.5519,-3.5519,-3.5519,-3.5519,-3.5519,-3.5519,-3.5519,-3.5519,-3.5519,-3.5519,-3.5519,-3.5198,-3.4211,-3.2664,-3.1499,-3.1241,-3.0419,-2.9804,-2.9804,-2.9804,-3.0139,-3.1082,-3.2019,-3.2876,-3.3567,-3.4773,-3.5294,-3.4806,-3.5001,-3.4706,-3.3705,-3.3429,-3.2947,-3.2272,-3.201,-3.1536,-3.0857,-3.1536,-3.201,-3.2236,-3.2236,-3.2379,-3.2593,-3.2593,-3.2593,-3.1473,-3.2515,-3.3964,-3.5498,-3.8091,-4.0485,-4.1271,-4.2557,-4.3809,-4.4581,-4.2802,-4.1181,-4.1244,-4.2246,-4.3003,-4.294,-4.2206,-4.1595,-4.1528,-4.1498,-4.146,-4.1422,-4.1422,-4.0876,-3.9649,-3.9463,-3.8931,-3.7644,-3.7494,-3.7464,-3.7464,-3.6866,-3.6537,-3.6537,-3.5938,-3.5579,-3.5549,-3.5549,-3.5549,-3.5519,-3.5519,-3.5519,-3.5519,-3.5519,-3.5519,-3.5519,-3.5519,-3.5519,-3.5519,-3.5519,-3.5519,-3.5519,-3.5519,-3.5519,-3.5519,-3.5519,-3.5519,-3.5519,-3.5519,-3.5519,-3.5519,-3.5519,-3.5519,-3.5519,-3.5519,-3.5519,-3.5519,-3.5519,-3.5519,-3.5519,-3.5519,-3.5519,-3.5519,-3.5519,-3.5519,-3.5519,-3.5519,-3.5519,-3.5198,-3.4211,-3.3192,-3.2236,-3.1352,-3.0419,-2.9804,-2.9804,-2.9804,-3.0139,-3.1082,-3.2019,-3.2629,-3.2664,-3.4375,-3.4739,-3.2912,-3.3567,-3.3671,-3.2735,-3.1865,-3.1315,-3.1278,-3.0419,-2.9934,-2.9856,-2.9934,-3.0381,-3.1278,-3.1278,-3.1756,-3.2593,-3.2593,-3.2593,-3.1857,-3.2381,-3.3051,-3.4539,-3.6434,-3.8048,-3.8319,-3.9884,-4.1347,-4.1644,-4.0573,-3.9681,-4.022,-4.0484,-4.0461,-4.0041,-3.9691,-3.9619,-4.0068,-3.9738,-3.9619,-4.0068,-4.0127,-3.9768,-3.8841,-3.8751,-3.8392,-3.7494,-3.7045,-3.6806,-3.6806,-3.6207,-3.5848,-3.5848,-3.5639,-3.5519,-3.5519,-3.5519,-3.5519,-3.5519,-3.5519,-3.5519,-3.5519,-3.5519,-3.5519,-3.5519,-3.5519,-3.5519,-3.5519,-3.5519,-3.5519,-3.5519,-3.5519,-3.5519,-3.5519,-3.5519,-3.5519,-3.5519,-3.5519,-3.5519,-3.5519,-3.5519,-3.5519,-3.5519,-3.5519,-3.5519,-3.5519,-3.5519,-3.5519,-3.5519,-3.5519,-3.5519,-3.5519,-3.5519,-3.5519,-3.5519,-3.5519,-3.4971,-3.4442,-3.4047,-3.2735,-3.1609,-3.1241,-3.0419,-2.9804,-2.9804,-2.9804,-2.9934,-3.0254,-3.1119,-3.1719,-3.1719,-3.2869,-3.3359,-3.2664,-3.2912,-3.27,-3.1756,-3.1389,-3.0932,-3.0305,-2.9972,-2.9804,-2.9804,-2.9804,-2.9972,-3.0305,-3.0305,-3.0457,-3.0809,-3.0809,-3.0809,-3.1684,-3.1767,-3.2019,-3.345,-3.4555,-3.5486,-3.5938,-3.7347,-3.8593,-3.8631,-3.7981,-3.761,-3.8326,-3.8073,-3.7823,-3.8033,-3.8063,-3.8212,-3.8691,-3.8362,-3.8242,-3.8691,-3.8751,-3.8482,-3.7823,-3.7734,-3.7464,-3.6806,-3.6387,-3.6148,-3.6148,-3.5729,-3.5519,-3.5519,-3.5519,-3.5519,-3.5519,-3.5519,-3.5519,-3.5519,-3.5519,-3.5519,-3.5519,-3.5519,-3.5519,-3.5519,-3.5519,-3.5519,-3.5519,-3.5519,-3.5519,-3.5519,-3.5519,-3.5519,-3.5519,-3.5519,-3.5519,-3.5519,-3.5519,-3.5519,-3.5519,-3.5519,-3.5519,-3.5519,-3.5519,-3.5519,-3.5519,-3.5519,-3.5519,-3.5519,-3.5519,-3.5519,-3.5519,-3.5519,-3.5519,-3.5519,-3.5519,-3.5001,-3.438,-3.4075,-3.2866,-3.1787,-3.1294,-3.0573,-3.0005,-2.9829,-2.9804,-2.9804,-2.9804,-3.062,-3.1082,-3.0771,-3.1865,-3.2343,-3.1719,-3.1974,-3.1719,-3.0809,-3.0733,-3.0457,-2.9818,-2.9804,-2.9804,-2.9804,-2.9804,-2.9804,-2.9804,-2.9804,-2.9804,-2.9804,-2.9804,-2.9804,0.0,0.0,0.0,-3.2037,-3.2406,-3.2829,-3.4117,-3.4991,-3.5519,-3.562,-3.5052,-3.4764,-3.5443,-3.4942,-3.504,-3.6956,-3.7315,-3.7375,-3.7375,-3.7375,-3.7375,-3.7404,-3.7404,-3.7165,-3.6537,-3.6477,-3.6207,-3.5549,-3.5519,-3.5519,-3.5519,-3.5519,-3.5519,-3.5519,-3.5519,-3.5519,-3.5519,-3.5519,-3.5519,-3.5519,-3.5519,-3.5519,-3.5519,-3.5519,-3.5519,-3.5519,-3.5519,-3.5519,-3.5519,-3.5519,-3.5519,-3.5519,-3.5519,-3.5519,-3.5519,-3.5519,-3.5519,-3.5519,-3.5519,-3.5519,-3.5519,-3.5519,-3.5519,-3.5519,-3.5519,-3.5519,-3.5519,-3.5519,-3.5519,-3.5519,-3.5519,-3.5519,-3.5519,-3.5519,-3.5519,-3.5519,-3.5519,-3.5519,-3.5198,-3.4245,-3.367,-3.2919,-3.1495,-3.0881,-3.0407,-2.988,-2.9804,-2.9804,-2.9804,-3.0582,-3.0809,-2.9895,-3.1452,-3.1792,-2.9934,-3.062,-3.0771,-2.9856,-2.9804,-2.9804,-2.9804,-2.9804,-2.9804,-2.9804,-2.9804,-2.9804,-2.9804,-2.9804,-2.9804,-2.9804,-2.9804,-2.9804,-3.1893,0.0,0.0,0.0,0.0,0.0,-3.2111,-3.2796,-3.3506,-3.3929,-3.3532,-3.3304,-3.4038,-3.3554,-3.3245,-3.3784,-3.51,-3.6207,-3.6686,-3.6746,-3.6896,-3.7345,-3.7404,-3.7165,-3.6537,-3.6477,-3.6207,-3.5549,-3.5519,-3.5519,-3.5519,-3.5519,-3.5519,-3.5519,-3.5519,-3.5519,-3.5519,-3.5519,-3.5519,-3.5519,-3.5519,-3.5519,-3.5519,-3.5519,-3.5519,-3.5519,-3.5519,-3.5519,-3.5519,-3.5519,-3.5519,-3.5519,-3.5519,-3.5519,-3.5519,-3.5519,-3.5519,-3.5519,-3.5519,-3.5519,-3.5519,-3.5519,-3.5519,-3.5519,-3.5519,-3.5519,-3.5519,-3.5519,-3.5519,-3.5519,-3.5519,-3.5519,-3.5519,-3.5519,-3.5519,-3.5519,-3.5519,-3.5519,-3.5424,-3.5133,-3.3848,-3.2679,-3.2263,-3.0976,-2.9955,-2.9804,-2.9804,-2.9804,-2.9804,-3.0049,-3.0101,-2.9818,-3.0254,-3.0368,-2.9818,-3.0024,-3.0062,-2.9818,-2.9804,-2.9804,-2.9804,-2.9804,-2.9804,-2.9804,-2.9804,-2.9804,-2.9804,-2.9804,-2.9804,-2.9804,-2.9804,-2.9804,-3.2044,-3.156,-3.1176,-3.1766,0.0,0.0,-3.1348,-3.1508,-3.1652,-3.1743,-3.1486,-3.1476,-3.2159,-3.1954,-3.1869,-3.2407,-3.3484,-3.4592,-3.5552,-3.5908,-3.6207,-3.6567,-3.6626,-3.6477,-3.6118,-3.6088,-3.5908,-3.5519,-3.5519,-3.537,-3.51,-3.507,-3.4951,-3.4681,-3.4681,-3.4681,-3.4681,-3.4951,-3.4951,-3.4681,-3.522,-3.534,-3.507,-3.507,-3.525,-3.5489,-3.519,-3.525,-3.5519,-3.5519,-3.5519,-3.5519,-3.5519,-3.5519,-3.5519,-3.5519,-3.5519,-3.5519,-3.5519,-3.5519,-3.5519,-3.5519,-3.5519,-3.5519,-3.5519,-3.5519,-3.5519,-3.5519,-3.5519,-3.5519,-3.5519,-3.5519,-3.5519,-3.5519,-3.5519,-3.5519,-3.5519,-3.5519,-3.5359,-3.4968,-3.3829,-3.2753,-3.211,-3.0979,-3.0055,-2.9829,-2.9804,-2.9804,-2.9804,-2.9804,-2.9804,-2.9804,-2.9804,-2.9804,-2.9804,-2.9804,-2.9804,-2.9804,-2.9804,-2.9804,-2.9804,-2.9804,-2.9804,-2.9804,-2.9804,-2.9804,-2.9804,-2.9804,-2.9804,-2.9804,-2.9804,-2.9804,-3.1869,-3.1271,-3.114,-3.2296,-3.1662,0.0,-3.1346,-3.0951,-3.0252,-2.9706,-2.9496,-2.9556,-3.0172,-3.0278,-3.0672,-3.1898,-3.2198,-3.2766,-3.4204,-3.4891,-3.528,-3.528,-3.528,-3.528,-3.528,-3.534,-3.537,-3.528,-3.528,-3.5011,-3.4444,-3.4384,-3.4144,-3.3514,-3.3484,-3.3484,-3.3484,-3.4174,-3.4174,-3.3514,-3.4861,-3.513,-3.4503,-3.4503,-3.4861,-3.5459,-3.4771,-3.4861,-3.5519,-3.5519,-3.5519,-3.5519,-3.5519,-3.5519,-3.5519,-3.5519,-3.5519,-3.5519,-3.5519,-3.5519,-3.5519,-3.5519,-3.5519,-3.5519,-3.5519,-3.5519,-3.5519,-3.5519,-3.5519,-3.5519,-3.5519,-3.5519,-3.5519,-3.5519,-3.5519,-3.5519,-3.5519,-3.5519,-3.5261,-3.4346,-3.3677,-3.2901,-3.1579,-3.0907,-3.0357,-2.9854,-2.9804,-2.9804,-2.9804,-2.9804,-2.9804,-2.9804,-2.9804,-2.9804,-2.9804,-2.9804,-2.9804,-2.9804,-2.9804,-2.9804,-2.9804,-2.9804,-2.9804,-2.9804,-2.9804,-2.9804,-2.9804,-2.9804,-2.9804,-2.9804,-2.9804,-2.9804,-3.3006,-3.3006,-3.2856,-3.2584,-3.2313,0.0,-3.1553,-3.0933,-3.0435,-3.0252,-2.9406,-2.8742,-2.8873,-2.894,-2.9056,-2.9325,-3.0223,-3.1539,-3.3425,-3.3814,-3.3873,-3.3873,-3.3873,-3.3873,-3.3873,-3.4352,-3.4472,-3.3933,-3.3873,-3.3814,-3.3694,-3.3694,-3.3634,-3.3484,-3.3484,-3.3484,-3.3484,-3.4174,-3.4174,-3.3514,-3.4861,-3.513,-3.4503,-3.4503,-3.4861,-3.5459,-3.4771,-3.4861,-3.5519,-3.5519,-3.5519,-3.5519,-3.5519,-3.5519,-3.5519,-3.5519,-3.5519,-3.5519,-3.5519,-3.5519,-3.5519,-3.5519,-3.5519,-3.5519,-3.5519,-3.5519,-3.5519,-3.5519,-3.5519,-3.5519,-3.5519,-3.5519,-3.5519,-3.5519,-3.5519,-3.5519,-3.5519,-3.5519,-3.5424,-3.5261,-3.3888,-3.266,-3.2371,-3.0999,-2.9905,-2.9804,-2.9804,-2.9804,-2.9804,-2.9804,-2.9804,-2.9804,-2.9804,-2.9804,-2.9804,-2.9804,-2.9804,-2.9804,-2.9804,-2.9804,-2.9804,-2.9804,-2.9804,-2.9804,-2.9804,-2.9804,-2.9804,-2.9804,-2.9804,-2.9804,-2.9804,-2.9804,-3.3484,-3.3484,-3.3425,-3.3095,-3.3006,0.0,0.0,-3.1232,-3.0887,-3.0521,-2.9449,-2.8642,-2.8976,-2.8539,-2.8188,-2.8547,-2.9146,-3.0013,-3.136,-3.2108,-3.2527,-3.2527,-3.2527,-3.2647,-3.2976,-3.3305,-3.3484,-3.3484,-3.3484,-3.3335,-3.3036,-3.3006,-3.2856,-3.2497,-3.2527,-3.2527,-3.2527,-3.3155,-3.3335,-3.3006,-3.4023,-3.4322,-3.3963,-3.3634,-3.3873,-3.4472,-3.4143,-3.4352,-3.5011,-3.537,-3.5519,-3.5519,-3.5519,-3.5519,-3.5519,-3.5519,-3.5519,-3.5519,-3.5519,-3.5519,-3.5519,-3.5519,-3.5519,-3.5519,-3.5519,-3.5519,-3.5519,-3.5519,-3.5519,-3.5519,-3.5519,-3.5519,-3.5519,-3.5519,-3.5519,-3.5519,-3.5519,-3.5519,-3.5359,-3.4839,-3.3567,-3.2593,-3.2593,-3.1033,-2.9804,-2.9804,-2.9804,-2.9804,-2.9804,-2.9804,-2.9804,-2.9804,-2.9804,-2.9804,-2.9804,-2.9804,-2.9804,-2.9804,-2.9804,-2.9804,-2.9804,-2.9804,-2.9804,-2.9804,-2.9804,-2.9804,-2.9804,-2.9804,-2.9804,-2.9804,-2.9804,-2.9804,-3.3993,-3.3963,-3.4023,-3.3754,-3.3873,-3.3694,0.0,0.0,0.0,-3.0881,-2.9774,-2.9086,-2.9532,-2.8603,-2.7974,-2.8517,-2.8487,-2.8577,-2.9142,-3.0103,-3.0823,-3.1092,-3.1122,-3.1331,-3.1898,-3.2048,-3.2407,-3.3066,-3.3125,-3.2886,-3.2318,-3.2288,-3.2049,-3.1511,-3.1511,-3.1511,-3.1511,-3.2288,-3.2587,-3.2318,-3.3245,-3.3544,-3.3275,-3.2766,-3.2886,-3.3484,-3.3484,-3.3873,-3.4563,-3.522,-3.5519,-3.5519,-3.5519,-3.5519,-3.5519,-3.5519,-3.5519,-3.5519,-3.5519,-3.5519,-3.5519,-3.5519,-3.5519,-3.5519,-3.5519,-3.5519,-3.5519,-3.5519,-3.5519,-3.5519,-3.5519,-3.5519,-3.5519,-3.5519,-3.5519,-3.5519,-3.5519,-3.5519,-3.5198,-3.4211,-3.3227,-3.2522,-3.2343,-3.0921,-2.9804,-2.9804,-2.9804,-2.9804,-2.9804,-2.9804,-2.9804,-2.9804,-2.9804,-2.9804,-2.9804,-2.9804,-2.9804,-2.9804,-2.9804,-2.9804,-2.9804,-2.9804,-2.9804,-2.9804,-2.9804,-2.9804,-2.9804,-2.9804,-2.9804,-2.9804,-2.9804,-2.9804,-3.513,-3.5699,-3.5848,-3.4683,-3.5282,-3.5639,-3.3694,0.0,-3.2916,-3.166,0.0,-3.0133,-2.9654,0.0,0.0,-2.8577,-2.8124,-2.7735,-2.7824,-2.7944,-2.8483,-2.9654,-2.9831,-2.9834,-2.9894,-3.0402,-3.1031,-3.169,-3.172,-3.169,-3.163,-3.16,-3.157,-3.1511,-3.1511,-3.1511,-3.1511,-3.2766,-3.2796,-3.163,-3.3484,-3.3754,-3.2617,-3.2527,-3.2886,-3.3484,-3.3484,-3.3873,-3.4563,-3.522,-3.5519,-3.5519,-3.5519,-3.5519,-3.5519,-3.5519,-3.5519,-3.5519,-3.5519,-3.5519,-3.5519,-3.5519,-3.5519,-3.5519,-3.5519,-3.5519,-3.5519,-3.5519,-3.5519,-3.5519,-3.5519,-3.5519,-3.5519,-3.5519,-3.5519,-3.5519,-3.5519,-3.5519,-3.5198,-3.4211,-3.3227,-3.2343,-3.1499,-3.0495,-2.9804,-2.9804,-2.9804,-2.9804,-2.9804,-2.9804,-2.9804,-2.9804,-2.9804,-2.9804,-2.9804,-2.9804,-2.9804,-2.9804,-2.9804,-2.9804,-2.9804,-2.9804,-2.9804,-2.9804,-2.9804,-2.9804,-2.9804,-2.9804,-2.9804,-2.9804,-2.9804,-2.9804,-3.5429,-3.5699,-3.5789,-3.522,-3.5489,-3.5579,-3.4352,-3.4084,-3.3814,-3.2856,0.0,0.0,0.0,0.0,0.0,0.0,-2.8607,-2.8158,-2.8158,-2.7854,-2.7794,-2.8364,-2.8453,-2.8603,-2.8966,-2.9594,-3.0253,-3.0853,-3.0913,-3.1092,-3.1481,-3.1511,-3.1511,-3.1511,-3.1511,-3.1511,-3.1511,-3.2049,-3.2228,-3.2079,-3.2557,-3.2677,-3.2527,-3.2527,-3.2647,-3.2976,-3.3724,-3.4264,-3.4563,-3.522,-3.5519,-3.5519,-3.5519,-3.5519,-3.5519,-3.5519,-3.5519,-3.5519,-3.5519,-3.5519,-3.5519,-3.5519,-3.5519,-3.5519,-3.5519,-3.5519,-3.5519,-3.5519,-3.5519,-3.5519,-3.5519,-3.5519,-3.5519,-3.5519,-3.5519,-3.5519,-3.5519,-3.5519,-3.5034,-3.3498,-3.2876,-3.2155,-3.062,-3.0062,-2.9804,-2.9804,-2.9804,-2.9804,-2.9804,-2.9804,-2.9804,-2.9804,-2.9804,-2.9804,-2.9804,-2.9804,-2.9804,-2.9804,-2.9804,-2.9804,-2.9804,-2.9804,-2.9804,-2.9804,-2.9804,-2.9804,-2.9804,-2.9804,-2.9804,-2.9804,-2.9804,-2.9804,-3.5519,-3.5639,-3.5729,-3.5549,-3.5639,-3.5609,-3.4921,-3.4923,-3.4833,-3.3933,-3.3155,0.0,0.0,0.0,-3.0013,-2.9681,0.0,-2.8547,-2.8338,-2.7914,-2.7585,-2.7585,-2.7585,-2.7794,-2.8278,-2.8936,-2.9505,-2.9953,-3.0163,-3.0552,-3.1182,-3.1212,-3.1301,-3.1481,-3.1511,-3.1511,-3.1511,-3.169,-3.1929,-3.2198,-3.1929,-3.2019,-3.2527,-3.2527,-3.2617,-3.2856,-3.3993,-3.4503,-3.4563,-3.522,-3.5519,-3.5519,-3.5519,-3.5519,-3.5519,-3.5519,-3.5519,-3.5519,-3.5519,-3.5519,-3.5519,-3.5519,-3.5519,-3.5519,-3.5519,-3.5519,-3.5519,-3.5519,-3.5519,-3.5519,-3.5519,-3.5519,-3.5424,-3.5166,-3.51,-3.5034,-3.4773,-3.4706,-3.4206,-3.2522,-3.22,-3.1683,-3.0088,-2.9804,-2.9804,-2.9804,-2.9804,-2.9804,-2.9804,-2.9804,-2.9804,-2.9804,-2.9804,-2.9804,-2.9804,-2.9804,-2.9804,-2.9804,-2.9804,-2.9804,-2.9804,-2.9804,-2.9804,-2.9804,-2.9804,-2.9804,-2.9804,-2.9804,-2.9804,-2.9804,-2.9804,-2.9804,-3.5519,-3.5968,-3.6297,-3.5669,-3.5998,-3.6267,-3.5609,-3.5968,-3.6058,-3.4743,-3.4951,-3.4801,-3.2826,-3.1899,-3.1032,-2.9774,-2.9026,0.0,0.0,-2.7615,-2.7585,-2.7585,-2.7585,-2.7615,-2.7615,-2.8218,-2.8637,-2.8667,-2.9235,-2.9894,-3.0492,-3.0522,-3.0823,-3.1481,-3.1511,-3.1511,-3.1511,-3.2138,-3.2138,-3.154,-3.2168,-3.2497,-3.2527,-3.2527,-3.2856,-3.3514,-3.4204,-3.4503,-3.4563,-3.522,-3.5519,-3.5519,-3.5519,-3.5519,-3.5519,-3.5519,-3.5519,-3.5519,-3.5519,-3.5519,-3.5519,-3.5519,-3.5519,-3.5519,-3.5519,-3.5519,-3.5519,-3.5519,-3.5519,-3.5519,-3.5519,-3.5519,-3.5231,-3.4279,-3.4075,-3.3808,-3.2876,-3.27,-3.2415,-3.1426,-3.1241,-3.0932,-2.9972,-2.9804,-2.9804,-2.9804,-2.9804,-2.9804,-2.9804,-2.9804,-2.9804,-2.9804,-2.9804,-2.9804,-2.9804,-2.9804,-2.9804,-2.9804,-2.9804,-2.9804,-2.9804,-2.9804,-2.9804,-2.9804,-2.9804,-2.9804,-2.9804,-2.9804,-2.9804,-2.9804,-2.9804,-2.9804,-3.5519,-3.5669,-3.5789,-3.5579,-3.5669,-3.5789,-3.5549,-3.5998,-3.6118,-3.4773,-3.5011,-3.4891,-3.2886,-3.2288,-3.1869,-3.1002,-2.9953,-2.9175,0.0,-2.8154,-2.7585,-2.7585,-2.7585,-2.7585,-2.7585,-2.7405,-2.7649,-2.8517,-2.8423,-2.8933,-3.0432,-3.0492,-3.0821,-3.1481,-3.1511,-3.172,-3.2138,-3.2378,-3.2617,-3.2826,-3.3066,-3.3155,-3.3185,-3.3604,-3.3933,-3.4204,-3.4861,-3.516,-3.519,-3.54,-3.5519,-3.5519,-3.5519,-3.5519,-3.5519,-3.5519,-3.5519,-3.5519,-3.5519,-3.5519,-3.5519,-3.5519,-3.5519,-3.5519,-3.5519,-3.5519,-3.5519,-3.5519,-3.5519,-3.5519,-3.5519,-3.5034,-3.4442,-3.4081,-3.3533,-3.2982,-3.2664,-3.2593,-3.2307,-3.1389,-3.1204,-3.0895,-2.9972,-2.9804,-2.9804,-2.9804,-2.9804,-2.9804,-2.9804,-2.9804,-2.9804,-2.9804,-2.9804,-2.9804,-2.9804,-2.9804,-2.9804,-2.9804,-2.9804,-2.9804,-2.9804,-2.9804,-2.9804,-2.9804,-2.9804,-2.9804,-2.9804,-2.9804,-2.9804,-2.9804,-2.9804,-2.9804,-3.5519,-3.5519,-3.5519,-3.5519,-3.5519,-3.5519,-3.5519,-3.5998,-3.6178,-3.507,-3.537,-3.531,-3.3544,-3.3036,-3.2587,-3.166,-3.0612,-2.9744,0.0,-2.8513,-2.7884,-2.7615,-2.7585,-2.7585,-2.7585,-2.7225,-2.7315,-2.8158,-2.7854,-2.8364,-3.0073,-3.0193,-3.0582,-3.1481,-3.172,-3.2049,-3.2527,-3.2736,-3.3066,-3.3484,-3.3484,-3.3604,-3.3873,-3.4324,-3.4653,-3.4861,-3.531,-3.5519,-3.5519,-3.5519,-3.5519,-3.5519,-3.5519,-3.5519,-3.5519,-3.5519,-3.5519,-3.5519,-3.5519,-3.5519,-3.5519,-3.5519,-3.5519,-3.5519,-3.5519,-3.5231,-3.4968,-3.4968,-3.4739,-3.4442,-3.4442,-3.4007,-3.3429,-3.3052,-3.2522,-3.201,-3.1683,-3.1573,-3.1452,-3.0809,-3.0696,-3.0533,-2.9895,-2.9804,-2.9804,-2.9804,-2.9804,-2.9804,-2.9804,-2.9804,-2.9804,-2.9804,-2.9804,-2.9804,-2.9804,-2.9804,-2.9804,-2.9804,-2.9804,-2.9804,-2.9804,-2.9804,-2.988,-3.008,-2.9905,-2.988,-3.008,-2.988,-2.9804,-2.9804,-2.9804,-2.9804]},{"header":{"parameterUnit":"m.s-1","parameterCategory":1,"la1":30.6,"la2":29.2853,"lo1":-89.7004,"lo2":-87.6739,"dy":0.0162,"dx":0.0183,"nx":112,"ny":82,"refTime":"2024-05-02T00:00:00:Z","depth":0,"parameterNumber":3,"parameterNumberName":"V-component_of_WINDS"},"data":[0.0,0.0,0.0,0.0,0.0,0.0,0.0,0.0,0.0,0.0,0.0,0.0,0.0,0.0,0.0,0.0,0.0,0.0,0.0,0.0,0.0,0.0,0.0,0.0,0.0,0.0,0.0,0.0,0.0,0.0,0.0,0.0,0.0,0.0,0.0,0.0,0.0,0.0,0.0,0.0,0.0,0.0,0.0,0.0,0.0,0.0,0.0,0.0,0.0,0.0,0.0,0.0,0.0,0.0,0.0,0.0,0.0,0.0,0.0,0.0,0.0,0.0,0.0,0.0,0.0,0.0,0.0,0.0,0.0,0.0,0.0,0.0,0.0,0.0,0.0,0.0,0.0,0.0,0.0,0.0,0.0,0.0,0.0,0.0,0.0,0.0,0.0,0.0,0.0,0.0,0.8505,0.913,1.1,1.1665,1.0515,1.0196,0.9289,0.7474,0.0,0.0,0.0,0.0,0.0,0.0,0.0,0.0,0.0,0.0,0.0,0.0,0.0,0.0,0.0,0.0,0.0,0.0,0.0,0.0,0.0,0.0,0.0,0.0,0.0,0.0,0.0,0.0,0.0,0.0,0.0,0.0,0.0,0.0,0.0,0.0,0.0,0.0,0.0,0.0,0.0,0.0,0.0,0.0,0.0,0.0,0.0,0.0,0.0,0.0,0.0,0.0,0.0,0.0,0.0,0.0,0.0,0.0,0.0,0.0,0.0,0.0,0.0,0.0,0.0,0.0,0.0,0.0,0.0,0.0,0.0,0.0,0.0,0.0,0.0,0.0,0.0,0.0,0.0,0.0,0.0,0.0,0.0,0.0,0.0,0.0,0.0,0.0,0.0,0.0,0.0,0.0,0.0,0.0,0.0,0.0,0.0,0.0,0.0,0.0,0.0,0.0,0.0,0.0,1.0339,1.2653,1.232,1.1795,1.1492,1.0684,0.9482,0.7845,0.0,0.0,0.0,0.0,0.0,0.0,0.0,0.0,0.0,0.0,0.0,0.0,0.0,0.0,0.0,0.0,0.0,0.0,0.0,0.0,0.0,0.0,0.0,0.0,0.0,0.0,0.0,0.0,0.0,0.0,0.0,0.0,0.0,0.0,0.0,0.0,0.0,0.0,0.0,0.0,0.0,0.0,0.0,0.0,0.0,0.0,0.0,0.0,0.0,0.0,0.0,0.0,0.0,0.0,0.0,0.0,0.0,0.0,0.0,0.0,0.0,0.0,0.0,0.0,0.0,0.0,0.0,0.0,0.0,0.0,0.0,0.0,0.0,0.0,0.0,0.0,0.0,0.0,0.0,0.0,0.0,0.0,0.0,0.0,0.0,0.0,0.0,0.0,0.0,0.0,0.0,0.0,0.0,0.0,0.0,0.0,0.0,0.0,0.0,0.0,0.0,0.0,0.0,0.9522,1.1631,1.4122,1.4025,1.3368,1.2306,1.1466,1.02,0.825,0.6921,0.0,0.0,0.0,0.0,0.0,0.0,0.0,0.0,0.0,0.0,0.0,0.0,0.0,0.0,0.0,0.0,0.0,0.0,0.0,0.0,0.0,0.0,0.0,0.0,0.0,0.0,0.0,0.0,0.0,0.0,0.0,0.0,0.0,0.0,0.0,0.0,0.0,0.0,0.0,0.0,0.0,0.0,0.0,0.0,0.0,0.0,0.0,0.0,0.0,0.0,0.0,0.0,0.0,0.0,0.0,0.0,0.0,0.0,0.0,0.0,0.0,0.0,0.0,0.0,0.0,0.0,0.0,0.0,0.0,0.0,0.0,0.0,0.0,0.0,0.0,0.0,0.0,0.0,0.0,0.0,0.0,0.0,0.0,0.0,0.0,0.0,0.0,0.0,0.0,0.0,0.0,0.0,0.0,0.0,0.0,0.0,0.0,0.0,0.0,0.0,0.0,0.0,1.1003,1.2407,1.4759,1.5097,1.4559,1.308,1.2136,1.0729,0.8618,0.7209,0.0,0.0,0.0,0.0,0.0,0.0,0.0,0.0,0.0,0.0,0.0,0.0,0.0,0.0,0.0,0.0,0.0,0.0,0.0,0.0,0.0,0.0,0.0,0.0,0.0,0.0,0.0,0.0,0.0,0.0,0.0,0.0,0.0,0.0,0.0,0.0,0.0,0.0,0.0,0.0,0.0,0.0,0.0,0.0,0.0,0.0,0.0,0.0,0.0,0.0,0.0,0.0,0.0,0.0,0.0,0.0,0.0,0.0,0.0,0.0,0.0,0.0,0.0,0.0,0.0,0.0,0.0,0.0,0.0,0.0,0.0,0.0,0.0,0.0,0.0,0.0,0.0,0.0,0.0,0.0,0.0,0.0,0.0,0.0,0.0,0.0,0.0,0.0,0.0,0.0,0.0,0.0,0.0,0.0,0.0,0.0,0.0,0.0,0.0,0.0,0.0,0.0,1.0881,1.2548,1.4741,1.4736,1.4412,1.4008,1.2419,1.0663,0.8872,0.7399,0.0,0.0,0.0,0.0,0.0,0.0,0.0,0.0,0.0,0.0,0.0,0.0,0.0,0.0,0.0,0.0,0.0,0.0,0.0,0.0,0.0,0.0,0.0,0.0,0.0,0.0,0.0,0.0,0.0,0.0,0.0,0.0,0.0,0.0,0.0,0.0,0.0,0.0,0.0,0.0,0.0,0.0,0.0,0.0,0.0,0.0,0.0,0.0,0.0,0.0,0.0,0.0,0.0,0.0,0.0,0.0,0.0,0.0,0.0,0.0,0.0,0.0,0.0,0.0,0.0,0.0,0.0,0.0,0.0,0.0,0.0,0.0,0.0,0.0,0.0,0.0,0.0,0.0,0.0,0.0,0.0,0.0,0.0,0.0,0.0,0.0,0.0,0.0,0.0,0.0,0.0,0.0,0.0,0.0,0.0,0.0,0.0,0.0,0.0,0.0,0.0,0.0,1.102,1.2363,1.372,1.3935,1.3653,1.3026,1.2024,1.0694,0.9038,0.0,0.0,0.0,0.0,0.0,0.0,0.0,0.0,0.0,0.0,0.0,0.0,0.0,0.0,0.0,0.0,0.0,0.0,0.0,0.0,0.0,0.0,0.0,0.0,0.0,0.0,0.0,0.0,0.0,0.0,0.0,0.0,0.0,0.0,0.0,0.0,0.0,0.0,0.0,0.0,0.0,0.0,0.0,0.0,0.0,0.0,0.0,0.0,0.0,0.0,0.0,0.0,0.0,0.0,0.0,0.0,0.0,0.0,0.0,0.0,0.0,0.0,0.0,0.0,0.0,0.0,0.0,0.0,0.0,0.0,0.0,0.0,0.0,0.0,0.0,0.0,0.0,0.0,0.0,0.0,0.0,0.0,0.0,0.0,0.0,0.0,0.0,0.0,0.0,0.0,0.0,0.0,0.0,0.0,0.0,0.0,0.0,0.0,0.0,0.0,0.0,0.0,0.9691,1.1076,1.2211,1.312,1.3174,1.2894,1.2225,1.1289,1.0199,0.8956,0.0,0.0,0.0,0.0,0.0,0.0,0.0,0.0,0.0,0.0,0.0,0.0,0.0,0.0,0.0,0.0,0.0,0.0,0.0,0.0,0.0,0.0,0.0,0.0,0.0,0.0,0.0,0.0,0.0,0.0,0.0,0.0,0.0,0.0,0.0,0.0,0.0,0.0,0.0,0.0,0.0,0.0,0.0,0.0,0.0,0.0,0.0,0.0,0.0,0.0,0.0,0.0,0.0,0.0,0.0,0.0,0.0,0.0,0.0,0.0,0.0,0.0,0.0,0.0,0.0,0.0,0.0,0.0,0.0,0.0,0.0,0.0,0.0,0.0,0.0,0.0,0.0,0.0,0.0,0.0,0.0,0.0,0.0,0.0,0.0,0.0,0.0,0.0,0.0,0.0,0.0,0.0,0.0,0.0,0.0,0.0,0.0,0.0,0.0,0.0,0.0,0.0,0.9802,1.1076,1.2198,1.3093,1.2652,1.2171,1.1913,1.0247,0.9028,0.0,0.0,0.0,0.0,0.0,0.0,0.0,0.0,0.0,0.0,0.0,0.0,0.0,0.0,0.0,0.0,0.0,0.0,0.0,0.0,0.0,0.0,0.0,0.0,0.0,0.0,0.0,0.0,0.0,0.0,0.0,0.0,0.0,0.0,0.0,0.0,0.0,0.0,0.0,0.0,0.0,0.0,0.0,0.0,0.0,0.0,0.0,0.0,0.0,0.0,0.0,0.0,0.0,0.0,0.0,0.0,0.0,0.0,0.0,0.0,0.0,0.0,0.0,0.0,0.0,0.0,0.0,0.0,0.0,0.0,0.0,0.0,0.0,0.0,0.0,0.0,0.0,0.0,0.0,0.0,0.0,0.0,0.0,0.0,0.0,0.0,0.0,0.0,0.0,0.0,0.0,0.0,0.0,0.0,0.0,0.0,0.0,0.0,0.0,0.0,0.0,0.0,0.0,1.0219,1.091,1.1551,1.2198,1.2104,1.1752,1.1042,1.0087,0.9414,0.9028,0.0,0.0,0.0,0.0,0.0,0.0,0.0,0.0,0.0,0.0,0.0,0.0,0.0,0.0,0.0,0.0,0.0,0.0,0.0,0.0,0.0,0.0,0.0,0.0,0.0,0.0,0.0,0.0,0.0,0.0,0.0,0.0,0.0,0.0,0.0,0.0,0.0,0.0,0.0,0.0,0.0,0.0,0.0,0.0,0.0,0.0,0.0,0.0,0.0,0.0,0.0,0.0,0.0,0.0,0.0,0.0,0.0,0.0,0.0,0.0,0.0,0.0,0.0,0.0,0.0,0.0,0.0,0.0,0.0,0.0,0.0,0.0,0.0,0.0,0.0,0.0,0.0,0.0,0.0,0.0,0.0,0.0,0.0,0.0,0.0,0.0,0.0,0.0,0.0,0.0,0.0,0.0,0.0,0.0,0.0,0.0,0.0,0.0,0.0,0.0,0.0,0.0,1.0256,1.0742,1.1169,1.1637,1.1583,1.1243,1.0479,0.9662,0.9194,0.9217,0.0,0.0,0.0,0.0,0.0,0.0,0.0,0.0,0.0,0.0,0.0,0.0,0.0,0.0,0.0,0.0,0.0,0.0,0.0,0.0,0.0,0.0,0.0,0.0,0.0,0.0,0.0,0.0,0.0,0.0,0.0,0.0,0.0,0.0,0.0,0.0,0.0,0.0,0.0,0.0,0.0,0.0,0.0,0.0,0.0,0.0,0.0,0.0,0.0,0.0,0.0,0.0,0.0,0.0,0.0,0.0,0.0,0.0,0.0,0.0,0.0,0.0,0.0,0.0,0.0,0.0,0.0,0.0,0.0,0.0,0.0,0.0,0.0,0.0,0.0,0.0,0.0,0.0,0.0,0.0,0.0,0.0,0.0,0.0,0.0,0.0,0.0,0.0,0.0,0.0,0.0,0.0,0.0,0.0,0.0,0.0,0.0,0.0,0.0,0.0,0.0,0.0,1.0003,1.0581,1.1035,1.1322,1.1196,1.0811,1.0218,0.9207,0.8816,0.9269,0.0,0.0,0.0,0.0,0.0,0.0,0.0,0.0,0.0,0.0,0.0,0.0,0.0,0.0,0.0,0.0,0.0,0.0,0.0,0.0,0.0,0.0,0.0,0.0,0.0,0.0,0.0,0.0,0.0,0.0,0.0,0.0,0.0,0.0,0.0,0.0,0.0,0.0,0.0,0.0,0.0,0.0,0.0,0.0,0.0,0.0,0.0,0.0,0.0,0.0,0.0,0.0,0.0,0.0,0.0,0.0,0.0,0.0,0.0,0.0,1.6609,1.5918,0.0,0.0,0.0,0.0,0.0,0.0,0.0,0.0,0.0,0.0,0.0,0.0,0.0,0.0,0.0,0.0,0.0,0.0,0.0,0.0,0.0,0.0,0.0,0.0,0.0,0.0,0.0,0.0,0.0,0.0,0.0,0.0,0.0,0.0,0.0,0.0,0.0,0.0,0.0,0.0,0.9977,1.019,1.0501,1.1022,1.1325,1.1216,1.061,1.0405,1.02,0.9987,0.9581,0.0,0.0,0.0,0.0,0.0,0.0,0.0,0.0,0.0,0.0,0.0,0.0,0.0,0.0,0.0,0.0,0.0,0.0,0.0,0.0,0.0,0.0,0.0,0.0,0.0,0.0,0.0,0.0,0.0,0.0,0.0,0.0,0.0,0.0,0.0,0.0,0.0,0.0,0.0,0.0,0.0,0.0,0.0,0.0,0.0,0.0,0.0,0.0,0.0,0.0,0.0,0.0,0.0,0.0,0.0,0.0,0.0,0.0,0.0,1.9454,1.8214,0.0,0.0,0.0,0.0,0.0,0.0,0.0,0.0,0.0,0.0,0.0,0.0,0.0,0.0,0.0,0.0,0.0,0.0,0.0,0.0,0.0,0.0,0.0,0.0,0.0,0.0,0.0,0.0,0.0,0.0,0.0,0.0,0.0,0.0,0.0,0.0,0.0,0.0,0.0,0.0,1.0348,1.0604,1.0938,1.1578,1.1859,1.1715,1.1059,1.0746,1.0546,1.0405,0.9954,0.0,0.0,0.0,0.0,0.0,0.0,0.0,0.0,0.0,0.0,0.0,0.0,0.0,0.0,0.0,0.0,0.0,0.0,0.0,0.0,0.0,0.0,0.0,0.0,0.0,0.0,0.0,0.0,0.0,0.0,0.0,0.0,0.0,0.0,0.0,0.0,0.0,0.0,0.0,0.0,0.0,0.0,0.0,0.0,0.0,0.0,0.0,0.0,0.0,0.0,0.0,0.0,0.0,2.6426,2.661,2.6454,2.6395,2.5908,2.507,2.2768,2.1151,2.0067,1.9371,0.0,0.0,0.0,0.0,0.0,0.0,0.0,0.0,0.0,0.0,0.0,0.0,0.0,0.0,0.0,0.0,0.0,0.0,0.0,0.0,0.0,0.0,1.7077,1.7344,1.7695,1.7034,1.3491,0.0,0.0,0.0,0.0,0.0,0.0,0.0,0.0,0.0,0.0,0.0,1.0775,1.1281,1.176,1.2334,1.2443,1.2214,1.1531,1.109,1.0819,1.0767,1.0306,0.9998,0.0,0.0,0.0,0.0,0.0,0.0,0.0,0.0,0.0,0.0,0.0,0.0,0.0,0.0,0.0,0.0,0.0,0.0,0.0,0.0,0.0,0.0,0.0,0.0,0.0,0.0,0.0,0.0,0.0,0.0,0.0,0.0,2.1562,2.1621,0.0,0.0,0.0,0.0,0.0,0.0,0.0,0.0,0.0,0.0,0.0,0.0,0.0,2.668,2.7121,2.9101,2.9551,2.8437,3.0,3.0351,2.959,2.9238,2.8789,2.8301,2.7538,0.0,2.2094,2.1651,0.0,0.0,0.0,0.0,0.0,0.0,0.0,0.0,0.0,0.0,0.0,0.0,0.0,0.0,0.0,0.0,0.0,0.0,0.0,0.0,0.0,0.0,1.8188,1.7539,1.7695,1.7648,1.635,1.5934,1.5343,1.3779,1.3013,1.2387,0.0,0.0,0.0,0.0,0.0,0.0,1.0976,1.1773,1.2406,1.2393,1.2666,1.2661,1.2193,1.2426,1.2257,1.1514,1.139,1.0916,0.9938,0.9867,0.0,0.0,0.0,0.0,0.0,0.0,0.0,0.0,0.0,0.0,0.0,0.0,0.0,0.0,0.0,0.0,0.0,0.0,0.0,0.0,0.0,0.0,0.0,0.0,0.0,0.0,0.0,0.0,0.0,2.2405,2.3223,2.2031,2.332,2.3647,0.0,0.0,0.0,0.0,0.0,0.0,0.0,0.0,0.0,2.7754,2.8945,2.9531,2.9473,3.1367,3.1777,3.0762,3.1758,3.1914,3.1289,3.0859,3.043,3.0,2.9551,2.7851,2.5312,2.4206,2.2891,2.1522,0.0,0.0,0.0,0.0,1.8964,1.8872,1.9592,1.9187,1.8469,1.9042,0.0,0.0,0.0,0.0,0.0,0.0,0.0,1.701,1.742,1.8262,1.8965,1.8848,1.9141,1.9277,1.8652,1.7988,1.7045,1.5433,1.5172,1.4931,1.3857,1.2977,0.0,0.0,0.0,1.1852,1.2108,1.2573,1.3014,1.3321,1.3275,1.3077,1.2682,1.2816,1.2641,1.1973,1.1721,1.1378,1.0884,1.0616,1.0556,0.0,0.0,0.0,0.0,0.0,0.0,0.0,0.0,0.0,0.0,0.0,0.0,0.0,0.0,0.0,0.0,0.0,0.0,0.0,0.0,0.0,0.0,0.0,0.0,0.0,0.0,0.0,0.0,2.3599,2.4531,2.2598,2.4844,2.5557,0.0,0.0,0.0,0.0,0.0,0.0,2.7598,2.8301,2.918,3.0351,3.166,3.2246,3.2051,3.3301,3.3555,3.2812,3.3027,3.2969,3.2637,3.1973,3.1523,3.1191,3.0625,2.959,2.8217,2.6378,2.4609,2.3086,2.2227,2.168,2.1466,2.1641,2.1445,2.1191,2.2168,2.1875,2.1113,2.1405,2.084,1.9844,1.9199,0.0,0.0,0.0,0.0,1.7348,1.8611,1.9277,1.9727,2.0156,2.041,2.0507,2.0156,1.9492,1.8422,1.677,1.6789,1.6699,1.5605,1.444,0.0,1.2913,1.2636,1.2706,1.3222,1.3433,1.367,1.406,1.3724,1.334,1.2935,1.2915,1.2695,1.2242,1.1914,1.1702,1.1606,1.1271,1.1209,1.1448,0.0,0.0,0.0,0.0,0.0,0.0,0.0,0.0,0.0,0.0,0.0,0.0,0.0,0.0,0.0,0.0,0.0,0.0,0.0,0.0,0.0,0.0,0.0,0.0,0.0,0.0,0.0,0.0,0.0,2.3848,2.6699,0.0,0.0,0.0,0.0,2.7383,2.7832,2.9004,3.1152,3.1309,3.2266,3.4336,3.4492,3.4746,3.5156,3.5254,3.5059,3.457,3.4199,3.4004,3.3926,3.2695,3.2129,3.2111,3.1211,3.0547,2.9902,2.7793,2.6133,2.4891,2.4004,2.3652,2.3594,2.3247,2.2793,2.2422,2.248,2.168,2.084,2.2051,2.2129,2.1738,2.1699,2.0742,0.0,0.0,1.9767,1.971,1.9806,2.0176,2.0644,2.1015,2.0859,2.0605,2.0566,2.0176,1.9355,1.7656,1.6711,1.6007,1.5488,0.0,1.4936,1.3892,1.4553,1.4859,1.3882,1.4326,1.4562,1.4153,1.3724,1.334,1.2935,1.2915,1.2695,1.2242,1.2184,1.2012,1.1626,1.1587,1.1758,1.2138,1.1733,0.0,0.0,0.0,0.0,0.0,0.0,0.0,0.0,0.0,0.0,0.0,0.0,0.0,0.0,0.0,0.0,0.0,0.0,0.0,0.0,0.0,0.0,0.0,0.0,0.0,0.0,0.0,0.0,2.793,3.0469,0.0,2.9199,2.916,2.9648,3.0565,3.0957,3.1894,3.3476,3.4101,3.4883,3.5937,3.6484,3.6601,3.6211,3.6484,3.5976,3.4707,3.4551,3.418,3.3613,3.2617,3.2229,3.2129,3.1269,3.0469,2.9726,2.8965,2.7891,2.6671,2.5488,2.4863,2.4531,2.3873,2.3477,2.3301,2.3008,2.2574,2.2207,2.2129,2.1816,2.1406,2.1133,2.0742,2.0391,2.0644,2.0722,2.0722,2.0722,2.0839,2.0957,2.084,2.0684,2.0605,2.0605,2.0215,1.9648,1.8769,1.791,1.7187,1.6758,1.5977,1.5264,1.4878,1.4935,1.4876,1.4496,1.4394,1.4289,1.4133,1.3516,1.3071,1.2915,1.2915,1.2837,1.2656,1.2359,1.2145,1.1992,1.1741,1.18,1.2203,1.1819,1.1824,0.0,0.0,0.0,0.0,0.0,0.0,0.0,0.0,0.0,0.0,0.0,0.0,0.0,0.0,0.0,0.0,0.0,0.0,0.0,0.0,0.0,0.0,0.0,0.0,0.0,2.8457,3.0488,3.0625,3.3184,3.4277,3.2539,3.2656,3.3086,3.3652,3.4219,3.4902,3.5742,3.6484,3.6953,3.709,3.75,3.7383,3.668,3.6797,3.6133,3.4707,3.4707,3.4258,3.3398,3.2559,3.2229,3.2129,3.1269,3.0469,2.9766,2.9685,2.8984,2.7949,2.668,2.5996,2.5625,2.4766,2.4355,2.4141,2.3555,2.3218,2.3003,2.248,2.2068,2.1775,2.1523,2.1328,2.1309,2.1717,2.1639,2.1465,2.1465,2.1307,2.1112,2.0859,2.0723,2.0644,2.0762,2.0449,1.9961,1.9394,1.8711,1.8047,1.748,1.666,1.6035,1.5849,1.5488,1.5244,1.5244,1.4707,1.427,1.4133,1.3516,1.3052,1.2915,1.3008,1.3027,1.2915,1.2734,1.2574,1.2437,1.2191,1.2171,1.2418,1.2012,1.2093,1.2656,0.0,0.0,0.0,0.0,0.0,0.0,0.0,0.0,0.0,0.0,0.0,0.0,0.0,0.0,0.0,0.0,0.0,0.0,0.0,0.0,0.0,0.0,0.0,2.6992,3.0059,3.209,3.1738,3.4707,3.6113,3.4434,3.5781,3.6777,3.6777,3.7519,3.7988,3.7969,3.8359,3.8379,3.793,3.7519,3.709,3.668,3.623,3.5586,3.4707,3.4687,3.4219,3.3379,3.2539,3.2168,3.215,3.125,3.0605,3.0137,2.9726,2.9297,2.8769,2.7519,2.7012,2.6914,2.5986,2.543,2.4949,2.4062,2.3496,2.3101,2.3101,2.3101,2.3101,2.3101,2.2808,2.2617,2.2984,2.2559,2.1914,2.1914,2.1582,2.121,2.119,2.0898,2.0723,2.1113,2.0879,2.0351,1.9473,1.8965,1.8364,1.7559,1.7402,1.7246,1.6785,1.6367,0.0,1.6085,1.5341,1.4629,1.4172,1.3743,1.3359,1.2954,1.3281,1.334,1.2935,1.3262,1.3301,1.2871,1.2895,1.2915,1.2915,1.2437,1.2223,1.2223,0.0,0.0,0.0,0.0,0.0,0.0,0.0,0.0,0.0,0.0,0.0,0.0,0.0,0.0,0.0,0.0,0.0,0.0,0.0,0.0,0.0,2.7676,2.9043,2.9297,3.1758,3.4082,3.5527,3.7656,3.8945,3.8769,3.8906,3.9004,3.9004,3.9219,3.9199,3.8867,3.8672,3.8379,3.793,3.7519,3.709,3.668,3.623,3.5586,3.4687,3.4394,3.3789,3.2949,3.2422,3.1992,3.1641,3.0762,3.0137,2.9707,2.9277,2.8848,2.8379,2.7402,2.7012,2.6875,2.5684,2.4785,2.4062,2.3516,2.3198,2.3101,2.3101,2.3101,2.3101,2.3101,2.3023,2.2945,2.3062,2.2925,2.2672,2.2422,2.2031,2.1621,2.1268,2.0898,2.0644,2.0723,2.0703,2.0449,1.9844,1.9648,1.9199,1.8027,1.7578,1.7376,1.7227,1.6594,1.6085,1.6085,1.5341,1.4746,1.4609,1.4192,1.3763,1.3379,1.3437,1.334,1.2935,1.2988,1.2852,1.2398,1.2715,1.2915,1.2915,1.2754,1.2695,0.0,0.0,0.0,0.0,0.0,0.0,0.0,0.0,0.0,0.0,0.0,0.0,0.0,0.0,0.0,0.0,0.0,0.0,0.0,0.0,0.0,0.0,2.9824,3.1406,3.248,3.3945,3.5625,3.7598,3.9062,4.0059,4.0488,4.0469,4.0351,4.0176,4.0156,3.9883,3.9238,3.8965,3.8555,3.7949,3.7519,3.709,3.668,3.6055,3.541,3.4687,3.4277,3.3633,3.2773,3.2363,3.1934,3.1484,3.0781,3.0137,2.9551,2.9297,2.8828,2.8223,0.0,0.0,0.0,0.0,2.4531,2.375,2.3496,2.3257,2.3101,2.3101,2.3101,2.3101,2.3101,2.3101,2.3101,2.3101,2.2964,2.2769,2.2578,2.2207,2.1816,2.1562,2.1172,2.084,2.084,2.0742,2.0468,2.0,1.9922,0.0,1.8711,1.8184,1.7852,1.7676,1.6894,1.6348,1.6348,1.5586,1.498,1.4833,1.457,1.4133,1.3555,1.3646,0.0,0.0,0.0,1.2949,1.252,1.2778,0.0,0.0,0.0,1.2915,1.2915,1.2915,0.0,0.0,1.1857,1.1509,0.0,0.0,0.0,0.0,0.0,0.0,0.0,0.0,0.0,0.0,0.0,0.0,0.0,0.0,0.0,0.0,3.1973,3.3457,3.5898,3.6269,3.6894,3.8457,3.9434,4.0137,4.0547,4.0957,4.1016,4.0625,4.0586,4.0215,3.9336,3.9238,0.0,0.0,0.0,3.6992,3.6523,3.5723,3.5078,3.4629,3.416,3.3496,3.2715,3.2285,3.1855,3.1426,3.0996,3.0332,2.9626,2.9512,2.8984,2.8184,2.7754,2.7305,2.6719,2.5469,2.4512,2.3848,2.375,0.0,0.0,2.3101,2.3101,2.3101,2.3101,2.3101,2.3101,2.3101,2.2828,2.2578,2.2578,2.2266,2.1953,2.1953,2.1621,2.1249,2.121,2.0918,2.0546,2.0078,1.998,1.9863,1.9434,1.8965,1.8481,1.8144,1.7311,1.6765,1.6765,1.6035,1.5332,1.4961,1.4911,0.0,1.3652,1.3899,1.3743,1.2954,1.3223,1.3262,1.2915,1.2915,1.2915,1.2915,1.2915,1.2915,1.2915,1.2915,1.2915,1.2915,1.2915,1.2559,0.0,0.0,0.0,0.0,0.0,0.0,0.0,0.0,0.0,0.0,0.0,0.0,0.0,0.0,0.0,3.2598,3.4258,3.5801,3.7344,3.7851,3.832,3.9004,3.9863,4.0566,4.1016,4.1133,4.1133,4.1055,4.1055,4.0664,3.9805,3.9414,3.8652,3.7461,3.7012,3.6426,3.5644,3.5098,3.4629,3.418,3.3418,0.0,3.2285,3.1836,3.1406,3.0996,3.0527,3.0039,2.9607,2.9199,2.8555,2.7754,2.7305,2.666,2.581,2.4902,2.4434,2.4199,2.3471,2.3159,2.3101,2.3101,2.3101,2.3101,2.3101,2.3101,0.0,2.3101,2.3042,2.2984,2.2984,2.2715,2.2383,2.2383,2.207,2.166,2.1268,2.1132,2.0977,2.0566,2.0468,2.0331,1.9863,1.9104,1.8578,1.85,1.7793,1.7266,1.7266,1.6515,1.5928,1.585,1.5508,1.4941,1.4055,1.4055,1.3743,1.2954,1.2974,1.2993,1.2915,1.2915,1.2915,1.2915,1.2915,1.2915,1.2915,1.2915,1.2915,1.2915,1.2915,1.2822,0.0,0.0,0.0,0.0,0.0,0.0,0.0,0.0,0.0,0.0,0.0,2.8691,3.0,0.0,3.3184,3.5332,3.6582,3.7676,3.8769,3.8906,3.8887,3.8887,3.9863,4.043,4.0215,4.0781,4.1074,4.0859,4.0644,4.0351,3.9922,3.9258,3.8496,3.7637,3.7207,3.6562,3.5723,3.5039,3.4492,3.4062,3.3203,3.2578,3.2148,3.1719,3.1289,3.0879,3.0644,3.0176,2.9512,2.8652,2.791,2.7305,2.6875,2.6309,2.5577,2.4746,2.4277,2.4004,2.3315,2.3101,2.3101,2.3101,2.3101,2.3101,2.3101,2.3101,2.3101,2.3101,2.3101,2.3101,2.3101,2.2945,2.2789,2.2789,2.25,2.2148,2.1873,2.1699,2.1426,2.0977,2.0898,2.0762,2.0312,1.9707,1.9085,1.8676,1.8105,1.7617,1.7455,1.6633,1.6085,1.6085,1.5664,1.5156,1.4512,1.4231,1.3743,1.2954,1.3086,1.3105,1.2915,1.2915,1.2915,1.2915,1.2915,1.2915,1.2915,1.2915,1.2915,1.2915,1.2915,1.2915,0.0,0.0,0.0,0.0,0.0,0.0,0.0,2.6992,2.7754,2.9023,3.0039,3.125,3.3086,3.418,3.5566,3.7812,3.8555,3.9043,3.9668,3.9434,3.9004,3.8516,3.9531,4.0019,3.9394,4.0293,4.0781,4.043,4.0156,3.9941,3.9766,3.918,3.8516,3.7832,3.748,3.6836,3.5898,3.5098,3.4492,3.4062,3.3125,3.25,3.2148,3.1641,3.1211,3.0879,3.0703,3.0234,2.9473,2.8158,2.7324,2.6973,2.6465,2.6055,2.5577,2.4746,2.4199,2.3848,2.3276,2.3101,2.3101,2.3101,2.3101,2.3101,2.3101,2.3101,2.3101,2.3101,2.3101,2.3101,2.3101,2.3101,2.3101,2.3101,2.2847,2.2617,2.2539,2.2246,2.1875,2.1405,2.1327,2.125,2.0918,2.0469,1.9883,1.8968,1.8422,1.8008,1.7676,1.6887,1.6359,1.6359,1.5859,1.5332,1.4852,1.4375,1.3782,1.3047,1.332,1.332,1.2915,1.2915,1.2915,1.2915,1.2915,1.2915,1.2915,1.2915,1.2915,1.2915,1.2915,1.2915,3.2014,3.0787,2.9502,2.9042,2.8036,2.797,0.0,3.1426,3.1309,3.2578,3.3867,3.4922,3.5547,3.666,3.7832,3.8887,3.9453,3.9629,3.9316,3.9238,3.8906,3.8086,3.8789,3.9473,3.9785,3.9961,4.0019,3.9961,4.0273,4.0117,3.9316,3.957,3.9023,3.7422,3.7324,3.6699,3.5469,3.4961,3.4492,3.4127,3.2832,3.2207,3.2148,3.1328,3.0937,3.084,3.0059,2.9668,2.9434,2.7773,2.7051,2.6934,2.6083,2.5732,2.5577,2.4746,2.4394,2.4238,2.3374,2.3101,2.3101,2.3101,2.3101,2.3101,2.3101,2.3101,2.3101,2.3101,2.3101,2.3101,2.3101,2.3101,2.3101,2.3101,2.3062,2.2925,2.2598,2.248,2.2324,2.1894,2.1816,2.1797,2.1738,2.1387,2.0742,1.9902,1.9046,1.852,1.8461,1.7754,1.7259,1.7259,1.6515,1.5694,1.4891,1.4375,1.3899,1.3477,1.3477,1.332,1.2915,1.2915,1.2915,1.2915,1.2915,1.2915,1.2915,1.2915,1.2915,1.2915,1.2915,1.2915,3.1151,3.0259,2.9324,2.914,2.9332,3.0137,3.2012,3.2344,3.2773,3.457,3.5586,3.6426,3.7344,3.8144,3.8945,3.9824,4.0137,4.0195,4.0,3.9316,3.8516,3.7656,3.7441,3.7715,3.8652,3.9199,3.9492,3.9492,3.9648,3.959,3.9219,3.8906,3.8301,3.7324,3.7051,3.6445,3.541,3.4922,3.4492,3.4062,3.2773,3.2229,3.2148,3.1289,3.0898,3.084,2.9961,2.9626,2.9509,2.7988,2.7246,2.6953,2.6348,2.5957,2.5615,2.5019,2.4629,2.4336,2.373,2.3315,2.3101,2.3101,2.3101,2.3101,2.3101,2.3101,2.3101,2.3101,2.3101,2.3101,2.3101,2.3101,2.3101,2.3101,2.3101,2.3042,2.2867,2.2828,2.2711,2.2324,2.2246,2.2377,2.2778,2.2391,2.2158,2.2433,2.0687,1.9163,1.8676,1.8091,1.7559,1.7051,1.6476,1.585,1.5195,1.498,1.4562,1.388,1.3841,1.3665,1.3262,1.3008,1.2915,1.2915,1.2915,1.2915,1.2915,1.2915,1.2915,1.2915,1.2915,1.2915,2.9706,2.9713,2.9878,2.9652,3.1035,3.2539,3.3105,3.3555,3.4336,3.6016,3.6621,3.7168,3.8203,3.875,3.9316,4.0215,4.0351,4.0312,4.0176,3.8945,3.7734,3.6875,3.5898,3.5723,3.6758,3.7851,3.8594,3.8828,3.8965,3.9023,3.9023,3.8437,3.7851,3.7324,3.6894,3.625,3.541,3.4922,3.4492,3.4062,3.2773,3.2229,3.2148,3.1289,3.0898,3.084,2.9961,2.9626,2.9528,2.8237,2.7402,2.6973,2.6562,2.6113,2.5654,2.5371,2.498,2.4512,2.3984,2.3574,2.3257,2.314,2.3101,2.3101,2.3101,2.3101,2.3101,2.3101,2.3101,2.3101,2.3101,2.3101,2.3101,2.3101,2.3101,2.3101,2.3101,2.3343,2.3504,2.3185,2.338,2.3762,2.423,2.3881,2.3772,2.439,2.2568,2.067,1.9513,1.869,1.7818,1.696,1.6523,1.6074,1.5625,1.5488,1.5069,1.4328,1.4289,1.4036,1.3535,1.332,1.3125,1.2915,1.3013,1.3071,1.3071,1.3071,1.3071,1.3066,1.3164,1.3164,2.8005,2.9441,3.1526,3.1445,3.3027,3.4824,3.5703,3.625,3.668,3.7168,3.7266,3.7422,3.7851,3.8301,3.8887,3.9766,3.9922,3.9766,3.9297,3.7793,3.6406,3.5547,3.4297,3.3672,3.4141,3.5742,3.709,3.791,3.8359,3.8594,3.8594,3.8574,3.8164,3.7324,3.6894,3.625,3.541,3.4922,3.4492,3.4062,3.2773,3.2229,3.2148,3.1289,3.0898,3.084,2.9961,2.9626,2.9528,2.8237,2.7402,2.6973,2.6562,2.6113,2.5693,2.5674,2.543,2.4969,2.4082,2.3789,2.3691,2.3237,2.3101,2.3101,2.3101,2.3101,2.3101,2.3101,2.3101,2.3101,2.3101,2.3101,2.3101,2.3101,2.3101,2.3101,2.3101,2.3973,2.4745,2.4724,2.5608,2.6419,2.6397,2.6013,2.552,2.5049,2.4496,2.3488,2.1539,1.9732,1.8266,1.7441,1.6973,1.6523,1.6105,1.5644,1.5234,1.4813,1.4766,1.4394,1.3535,1.386,1.3685,1.2915,1.3281,1.3496,1.3496,1.3496,1.3496,1.3496,1.388,1.3841,2.8906,3.0398,3.1938,3.3662,3.4844,3.5801,3.668,3.6543,3.6269,3.6426,3.5527,3.4766,3.4902,3.5293,3.5976,3.7129,3.8281,3.9062,3.918,3.8476,3.7187,3.5176,3.4297,3.3574,3.2933,3.4355,3.5723,3.6601,3.7324,3.7734,3.7734,3.7734,3.7461,3.6894,3.6191,3.5684,3.5391,3.4648,3.4062,3.3633,3.2344,3.1582,3.1309,3.1016,3.0898,3.084,2.9961,2.9626,2.9492,2.8496,2.7656,2.7012,2.6855,2.6367,2.5693,2.5693,2.5596,2.5391,2.4512,2.4023,2.3711,2.3237,2.3101,2.3101,2.3101,2.3101,2.3101,2.3101,2.3101,2.3101,2.3101,2.3101,2.3101,2.3101,2.3671,2.4211,2.4211,2.5126,2.5922,2.5922,2.6235,2.673,2.7441,2.7142,2.6744,2.6552,2.4735,2.3131,2.2474,2.1281,2.0362,2.0094,1.8815,1.7913,1.778,1.6587,1.5811,1.5674,1.5126,1.4648,1.4375,1.4192,1.3977,1.3685,1.3821,1.3899,1.3899,1.3899,1.3899,1.3899,1.4036,1.4036,3.0176,3.1758,3.3203,3.5508,3.6387,3.6797,3.7207,3.6523,3.5664,3.5195,3.3711,3.2461,3.2305,3.2383,3.2988,3.4609,3.5801,3.6934,3.8125,3.7519,3.6465,3.5117,3.4434,3.3691,3.2715,3.375,3.4766,3.5488,3.6641,3.7226,3.709,3.7226,3.7109,3.668,3.584,3.5312,3.5137,3.4434,3.3711,3.2969,3.2148,3.1445,3.0898,3.0898,3.0801,3.0605,2.9939,2.9473,2.9277,2.8574,2.7891,2.7246,2.7246,2.6816,2.6172,2.6016,2.5977,2.584,2.4961,2.4375,2.3945,2.3516,2.3218,2.3101,2.3101,2.3101,2.3101,2.3101,2.3101,2.3101,2.3101,2.3101,2.3212,2.3584,2.4253,2.4914,2.5336,2.6295,2.7075,2.7075,2.7383,2.7907,2.8609,2.8227,2.7824,2.7587,2.5791,2.419,2.3502,2.2559,2.1778,2.1419,2.0171,1.9169,1.8648,1.7492,1.6577,1.6135,1.5576,1.5126,1.4805,1.4668,1.4426,1.4114,1.425,1.4328,1.4328,1.4328,1.4328,1.4348,1.4484,1.4484,3.1719,3.3555,3.5254,3.6914,3.7617,3.7773,3.7305,3.6172,3.4863,3.3535,3.1875,3.0527,3.0059,2.9707,3.0195,3.2344,3.2851,3.3848,3.6387,3.5351,3.4629,3.541,3.4746,3.4043,3.3574,3.3945,3.4355,3.4707,3.6289,3.707,3.6699,3.707,3.709,3.666,3.5801,3.5137,3.4707,3.4219,3.3379,3.2229,3.2129,3.168,3.0898,3.0898,3.0644,3.0176,2.9746,2.9316,2.8887,2.8457,2.8047,2.7728,2.7728,2.7383,2.6934,2.6543,2.6367,2.623,2.5439,2.4805,2.4355,2.3926,2.3496,2.3101,2.3101,2.3101,2.3101,2.3101,2.3101,2.3101,2.3101,2.3144,2.3474,2.4532,2.4872,2.5252,2.6337,2.7441,2.8164,2.8164,2.9067,2.9804,2.9804,2.9327,2.8737,2.8222,2.7695,2.6636,2.4661,2.3619,2.2694,2.1743,2.1199,2.0351,1.8924,1.8353,1.7554,1.6265,1.6135,1.5713,1.4891,1.5195,1.4991,1.4192,1.4609,1.4824,1.4824,1.4824,1.4824,1.4852,1.5215,1.5195,3.3555,3.5547,3.7207,3.7656,3.7617,3.7187,3.6113,3.4375,3.2617,3.1289,2.916,2.7402,2.6953,2.7832,2.9219,3.1074,3.3516,3.5762,3.7383,3.7773,3.7617,3.6894,3.6621,3.6055,3.5,3.5566,3.5781,3.5254,3.5918,3.6445,3.666,3.707,3.6953,3.6211,3.5332,3.4824,3.4707,3.334,3.25,3.2168,3.1523,3.1094,3.0898,3.0898,3.0644,3.0176,2.9746,2.9316,2.8887,2.8457,2.8047,2.7728,2.7728,2.7207,2.6543,2.6426,2.6191,2.5879,2.5644,2.5059,2.4355,2.3926,2.3496,2.3101,2.3101,2.3101,2.3101,2.3101,2.3101,2.3101,2.3101,2.3714,2.4447,2.4745,2.6066,2.7337,2.7643,2.8569,2.9365,2.9365,2.9585,2.9804,2.9804,2.9679,2.9377,2.8762,2.8562,2.7873,2.6173,2.533,2.4826,2.4557,2.3517,2.2503,2.1707,2.0084,1.8648,1.7584,1.6627,1.585,1.5273,1.5352,1.5312,1.5069,1.5195,1.5254,1.5254,1.5254,1.5254,1.5254,1.5352,1.5352,3.5937,3.7422,3.8437,3.8262,3.7461,3.6309,3.4629,3.2715,3.0723,2.8652,2.6934,2.5566,2.4699,2.5684,2.7226,2.916,3.1719,3.4336,3.6758,3.7656,3.8105,3.8125,3.8125,3.7773,3.6875,3.7051,3.7109,3.6816,3.6836,3.6719,3.6406,3.6973,3.6816,3.5781,3.5059,3.4434,3.3867,3.291,3.2246,3.1875,3.1406,3.1074,3.0898,3.0898,3.0527,2.9902,2.9668,2.9219,2.8633,2.8398,2.8164,2.793,2.793,2.7656,2.7187,2.6797,2.6504,2.625,2.581,2.5273,2.4668,2.4434,2.3926,2.3457,2.3608,2.3393,2.314,2.3379,2.3237,2.3212,2.3714,2.4339,2.5041,2.6025,2.7174,2.8267,2.8727,2.9365,2.9804,2.9804,2.9804,2.9804,2.9804,2.9804,2.9603,2.8988,2.8888,2.8499,2.7344,2.6691,2.6138,2.5636,2.4879,2.4032,2.3141,2.136,1.9846,1.8754,1.7212,1.6152,1.5752,1.5508,1.541,1.541,1.541,1.541,1.541,1.541,1.541,1.541,1.541,1.541,3.8223,3.9004,3.9238,3.8633,3.7207,3.5351,3.3125,3.1113,2.8906,2.6083,2.5078,2.4297,2.3184,2.3769,2.5156,2.7383,2.9238,3.1678,3.5566,3.6523,3.7422,3.9004,3.9258,3.9121,3.8691,3.832,3.8223,3.8555,3.8223,3.748,3.625,3.6836,3.6621,3.5351,3.4902,3.4082,3.2812,3.2734,3.2305,3.1523,3.1465,3.125,3.0898,3.0898,3.041,2.9626,2.9626,2.9082,2.8301,2.8301,2.8301,2.8301,2.8301,2.8262,2.8105,2.7305,2.6973,2.6816,2.5966,2.5488,2.5184,2.5125,2.4531,2.3926,2.4238,2.3764,2.3257,2.3613,2.3506,2.3541,2.4532,2.5041,2.5734,2.7643,2.8227,2.8609,2.9585,2.9804,2.9804,2.9804,2.9804,2.9804,2.9804,2.9804,2.9628,2.9088,2.9013,2.8813,2.8298,2.7745,2.6992,2.5937,2.5812,2.5261,2.389,2.2482,2.1162,1.9889,1.8002,1.6738,1.6286,1.5792,1.5469,1.541,1.5497,1.5555,1.5555,1.5642,1.5642,1.5555,1.5555,1.5497,3.8828,3.9687,3.9922,3.8418,3.6758,3.4844,3.2324,2.9316,2.6602,2.498,2.3477,2.2363,2.2148,2.3359,2.5234,2.7773,2.9941,3.2539,3.6055,3.7226,3.8086,3.9082,3.9551,3.959,3.9141,3.9023,3.8867,3.8594,3.8496,3.8066,3.7129,3.6894,3.6172,3.4863,3.4746,3.4082,3.2812,3.2461,3.2031,3.1504,3.1172,3.0957,3.0898,3.0898,3.041,2.9626,2.9626,2.9082,2.8301,2.8301,2.8301,2.8301,2.8301,2.8086,2.7715,2.7207,2.6797,2.6426,2.5869,2.5635,2.5566,2.5195,2.4727,2.4258,2.3984,2.3789,2.3613,2.3296,2.3861,2.4532,2.4745,2.6149,2.7643,2.8004,2.8806,2.9585,2.974,2.9804,2.9804,2.9804,2.9804,2.9804,2.9804,2.9804,2.9754,2.9654,2.9654,2.9428,2.8813,2.8298,2.772,2.7067,2.7027,2.6531,2.5336,2.3948,2.2704,2.1643,1.9465,1.7957,1.7193,1.6397,1.5811,1.541,1.6017,1.6312,1.6312,1.6912,1.6912,1.6312,1.6312,1.5968,3.959,4.0039,3.9883,3.8594,3.6289,3.3633,3.0801,2.7851,2.5137,2.3164,2.2305,2.1816,2.1582,2.2711,2.4375,2.6309,2.8047,3.0527,3.4434,3.5918,3.7246,3.8984,3.9805,4.0039,3.9609,3.9336,3.9121,3.8926,3.8496,3.7969,3.7324,3.625,3.5351,3.4726,3.4062,3.3301,3.248,3.2051,3.1621,3.1191,3.0996,3.0898,3.0898,3.0898,3.0527,2.9883,2.9668,2.9199,2.8613,2.8613,2.8496,2.832,2.8535,2.8359,2.791,2.7246,2.6894,2.6621,2.5908,2.5693,2.5654,2.5488,2.5117,2.4766,2.4785,2.4473,2.4082,2.3867,2.4412,2.5188,2.5569,2.6912,2.8267,2.8846,2.9404,2.9804,2.9804,2.9804,2.9804,2.9804,2.9804,2.9804,2.9804,2.9804,2.9804,2.9804,2.9804,2.9704,2.9428,2.9151,2.8549,2.7394,2.7544,2.7268,2.6172,2.5018,2.3939,2.2854,2.0432,1.8754,1.8058,1.741,1.6992,1.6768,1.7547,1.7955,1.7955,1.8302,1.8169,1.7527,1.7155,1.6626,3.9902,4.0137,3.9766,3.8711,3.5918,3.2617,2.9492,2.6719,2.4121,2.1678,2.1426,2.1504,2.1152,2.1951,2.3179,2.4687,2.5937,2.8242,3.2539,3.4355,3.6152,3.8633,3.9785,4.0215,3.9785,3.9414,3.916,3.9082,3.8281,3.7598,3.7187,3.5703,3.4766,3.457,3.3496,3.2637,3.2031,3.168,3.1309,3.0898,3.0898,3.0898,3.0898,3.0898,3.0644,3.0176,2.9844,2.9453,2.9043,2.8965,2.873,2.8457,2.8691,2.8574,2.8184,2.7324,2.707,2.7031,2.6172,2.583,2.583,2.583,2.5566,2.5254,2.5508,2.5117,2.4512,2.4336,2.4995,2.5872,2.6346,2.7574,2.8882,2.9884,2.9955,2.9854,3.008,3.0055,3.0005,3.0105,3.0055,2.9955,2.9955,2.988,2.9804,2.9804,2.9804,2.9804,2.9804,2.9804,2.9252,2.7795,2.7921,2.772,2.6751,2.5812,2.4885,2.3996,2.1572,1.9911,1.937,1.8738,1.8367,1.8291,1.9104,1.9549,1.9549,1.9696,1.946,1.8897,1.8123,1.7432,3.9082,3.9883,4.0059,3.8398,3.5684,3.2519,2.9121,2.6055,2.3398,2.1561,2.0937,2.0723,2.0664,2.1055,2.2048,2.4141,2.5254,2.7363,3.168,3.3711,3.5586,3.7773,3.918,3.9766,3.9316,3.9219,3.9043,3.8652,3.7832,3.7168,3.6758,3.584,3.4961,3.416,3.3633,3.2793,3.1582,3.1543,3.1309,3.0898,3.0898,3.0898,3.0898,3.0898,3.0644,3.0195,3.0156,2.9902,2.9473,2.9082,2.8906,2.8828,2.8476,2.832,2.8184,2.7324,2.7266,2.748,2.6621,2.6328,2.6328,2.6328,2.6035,2.5557,2.5234,2.5125,2.4891,2.4062,2.5347,2.6877,2.6554,2.8448,3.0538,3.1135,3.0507,3.0055,3.1035,3.0859,3.0683,3.116,3.0859,3.0532,3.0532,3.0131,2.9804,2.9804,2.9804,2.9804,2.9804,2.9804,2.9528,2.8813,2.8373,2.7871,2.7304,2.6195,2.5511,2.5411,2.3522,2.2194,2.1713,2.0403,1.9552,1.9194,1.9931,2.0308,2.0308,2.099,2.0937,2.0208,1.934,1.8545,3.7617,3.8867,3.9375,3.791,3.4883,3.1504,2.8594,2.5371,2.2598,2.1133,2.0723,2.0605,2.0605,2.0742,2.1289,2.2676,2.2969,2.4355,2.8164,2.9707,3.1738,3.5195,3.6758,3.7891,3.875,3.8828,3.8652,3.8223,3.7637,3.6992,3.6309,3.5449,3.4687,3.4082,3.3164,3.2422,3.1914,3.1406,3.1055,3.0898,3.0898,3.0898,3.0898,3.0898,3.0801,3.0605,3.0312,3.0098,2.9959,3.0394,3.0357,3.0166,2.9982,2.9758,2.9326,2.793,2.7519,2.763,2.6973,2.6602,2.6387,2.6387,2.6094,2.5654,2.5527,2.5469,2.5352,2.4727,2.6229,2.7875,2.7491,2.9201,3.106,3.0959,3.0834,3.0859,3.1311,3.1235,3.1135,3.1361,3.0959,3.0608,3.0608,3.0156,2.9804,2.9804,2.9804,2.9804,2.9804,2.9804,2.9704,2.9478,2.895,2.8373,2.7821,2.7067,2.6499,2.6172,2.4569,2.3308,2.244,2.1886,2.1377,2.0864,2.162,2.2007,2.2007,2.2326,2.2151,2.1539,2.073,2.0033,3.5488,3.7187,3.8144,3.6855,3.3809,3.0449,2.7871,2.4805,2.2148,2.0879,2.0605,2.0605,2.0605,2.0605,2.086,2.1562,2.1641,2.2652,2.5762,2.7148,2.9199,3.2871,3.4453,3.5937,3.7656,3.8164,3.8262,3.7949,3.7305,3.6601,3.5879,3.5,3.4316,3.3887,3.2773,3.2109,3.1973,3.125,3.0898,3.0898,3.0898,3.0898,3.0898,3.0898,3.0898,3.0879,3.0547,3.0332,3.027,3.1244,3.1366,3.1,3.1274,3.1175,3.0657,2.892,2.8393,2.8309,2.7361,2.6816,2.6562,2.6426,2.6094,2.5693,2.5693,2.5693,2.5644,2.5195,2.6689,2.8454,2.8602,2.9888,3.1185,3.1311,3.126,3.1286,3.1788,3.1763,3.1637,3.1637,3.121,3.0809,3.0633,3.0156,2.9804,2.9804,2.9804,2.9804,2.9804,2.9804,2.9804,2.9804,2.9277,2.8662,2.8147,2.7595,2.7077,2.6524,2.5379,2.4347,2.3587,2.3248,2.2909,2.2546,2.2898,2.3095,2.3095,2.3095,2.292,2.2518,2.1752,2.1056,3.2598,3.4726,3.6387,3.5059,3.2441,2.9531,2.6973,2.4394,2.2148,2.0879,2.0605,2.0605,2.0605,2.0605,2.0723,2.1132,2.1953,2.3262,2.5382,2.7207,2.9101,3.1289,3.2676,3.4141,3.5879,3.7187,3.793,3.793,3.6758,3.5859,3.543,3.457,3.3887,3.3437,3.2598,3.1953,3.1523,3.1094,3.0898,3.0898,3.0898,3.0898,3.0898,3.0898,3.0898,3.0898,3.0879,3.0625,3.027,3.1244,3.1366,3.1085,3.1922,3.228,3.2085,3.0312,2.9929,2.9974,2.7748,2.7012,2.6934,2.6523,2.6094,2.5693,2.5693,2.5693,2.5644,2.5195,2.6459,2.8313,2.995,3.0497,3.1035,3.2667,3.1813,3.106,3.2692,3.2616,3.2215,3.2215,3.1763,3.121,3.0708,3.0156,2.9804,2.9804,2.9804,2.9804,2.9804,2.9804,2.9804,2.9804,2.9277,2.8662,2.8147,2.7595,2.7077,2.6524,2.5912,2.5586,2.5586,2.4556,2.3973,2.3979,2.3396,2.3095,2.3095,2.3095,2.3095,2.3065,2.2279,2.1416,2.9062,3.0742,3.1934,3.0644,2.8945,2.707,2.5059,2.3301,2.1797,2.082,2.0605,2.0605,2.0605,2.0605,2.1036,2.2344,2.2773,2.3496,2.5059,2.7012,2.9101,3.125,3.4726,3.7168,3.7715,3.7851,3.7812,3.7519,3.6582,3.5703,3.4961,3.4101,3.3555,3.3418,3.2598,3.2109,3.1953,3.125,3.0898,3.0898,3.0898,3.0898,3.0898,3.0898,3.0898,3.0918,3.1539,3.1692,3.1711,3.3263,3.3845,3.3742,3.3711,3.3723,3.3552,3.2023,3.1541,3.1382,2.9483,2.8633,2.8155,2.6804,2.6094,2.5693,2.5693,2.5693,2.6022,2.7624,2.8468,2.9351,3.1156,3.1988,3.234,3.2466,3.239,3.2441,3.3011,3.2943,3.2792,3.2792,3.234,3.1888,3.1738,3.0959,3.0357,3.0357,3.003,2.9804,2.9804,2.9804,2.9804,2.9804,2.9628,2.9453,2.9277,2.8047,2.7369,2.757,2.6751,2.6047,2.5611,2.4933,2.4381,2.4004,2.3396,2.3095,2.3095,2.3095,2.3095,2.3095,2.2823,2.2555,2.6074,2.7695,2.8769,2.7812,2.6602,2.5273,2.3867,2.2559,2.1445,2.0742,2.0605,2.0605,2.0605,2.0605,2.0957,2.2053,2.2461,2.3125,2.4394,2.6445,2.8789,3.1445,3.5078,3.7441,3.7598,3.7656,3.7519,3.709,3.6113,3.5137,3.4258,3.3555,3.3105,3.2949,3.2285,3.1914,3.1914,3.123,3.0898,3.0898,3.0898,3.0898,3.0879,3.0703,3.0625,3.0721,3.1564,3.1897,0.0,3.4114,3.4928,3.4813,3.5041,3.4993,3.4631,3.325,3.2643,3.2218,3.045,2.959,2.9074,2.7411,2.6328,2.5791,2.6304,2.6062,2.611,2.8121,2.905,2.9784,3.1409,3.2276,3.2717,3.2566,3.2641,3.2817,3.3043,3.3111,3.3018,3.2792,3.2466,3.2139,3.1938,3.1336,3.0834,3.0633,3.0331,3.003,2.9829,2.9804,2.9804,2.9804,2.9804,2.9804,2.9804,2.8624,2.7971,2.8097,2.7268,2.665,2.6239,2.5511,2.4858,2.433,2.3722,2.3321,2.3095,2.3095,2.3095,2.3095,2.3095,2.3095,0.0,2.5352,2.6504,2.6074,2.5078,2.3984,2.3208,2.207,0.0,2.0703,2.0605,2.0625,2.0683,2.0664,2.0703,2.086,2.1523,2.2519,2.3789,2.5977,2.8672,3.1992,3.4297,3.5723,3.5996,3.6797,3.7109,3.666,3.543,3.4336,3.3476,3.2988,3.2559,3.2129,3.1699,3.1484,3.1523,3.1094,3.0898,3.0898,3.0898,3.0898,3.0879,3.041,3.0195,3.0213,3.1148,3.1398,3.1317,3.3917,3.4813,3.4678,3.5906,3.6031,3.5344,3.4124,3.3291,3.2581,3.0762,3.016,2.9905,2.8246,2.6839,2.6062,2.7363,2.6839,2.611,2.7437,2.868,2.9806,3.1045,3.1804,3.2416,3.2943,3.2667,3.2416,3.2968,3.3111,3.2918,3.2365,3.2265,3.2114,3.1587,3.1486,3.126,3.0758,3.0633,3.0407,2.9854,2.9804,2.9804,2.9804,2.9804,2.9804,2.9804,2.9277,2.8662,2.8197,2.7645,2.7318,2.7293,2.6239,2.541,2.485,2.433,2.3778,2.3221,2.317,2.317,2.317,2.312,2.3095,2.1368,0.0,2.248,2.2051,2.1953,2.1836,0.0,2.1211,2.1113,2.0703,2.0605,2.0801,2.1486,2.1309,2.1621,2.3242,2.3691,2.4277,2.5586,2.9043,3.2226,3.4375,3.6523,3.7344,3.6133,3.6797,3.6992,3.623,3.5254,3.4336,3.3476,3.2715,3.2109,3.168,3.125,3.1191,3.1504,3.1094,3.0898,3.0898,3.0898,3.0898,3.0879,3.041,3.0195,3.0213,3.0894,3.1688,3.2635,3.4,3.509,3.5953,3.6263,3.6031,3.5462,3.5158,3.4693,3.3966,3.2198,3.1596,3.1319,2.9575,2.8143,2.741,2.8588,2.8121,2.7579,2.9761,3.053,3.1089,3.2326,3.2796,3.2893,3.3086,3.2968,3.2918,3.3043,3.3111,3.3086,3.2893,3.2867,3.2842,3.2692,3.2315,3.1838,3.1286,3.0859,3.0407,2.9854,2.9804,2.9804,2.9804,2.9804,2.9804,2.9804,2.9277,2.8838,2.8712,2.8222,2.772,2.7329,2.665,2.6021,2.5435,2.4908,2.4525,2.4399,2.4004,2.3803,2.3778,2.3321,2.3095,2.0605,2.0898,2.1132,2.0937,2.1055,2.1132,2.0918,2.0898,2.0859,2.0644,2.0605,2.082,2.1465,2.1346,2.1697,2.3281,2.3867,2.5,2.75,3.0371,3.3008,3.5137,3.6582,3.7187,3.666,3.668,3.6445,3.5781,3.4922,3.3945,3.291,3.2422,3.1875,3.125,3.1016,3.0996,3.123,3.0996,3.0898,3.0898,3.0898,3.0781,3.0547,3.0117,2.9805,2.9626,3.0381,3.1469,3.2763,3.3939,3.5187,3.6405,3.6405,3.5881,3.5132,3.5132,3.465,3.3834,3.2892,3.2168,3.1513,3.0532,2.9396,2.8634,2.9852,2.9761,2.9533,3.0822,3.1223,3.1488,3.2742,3.3111,3.3111,3.3111,3.3111,3.3111,3.3111,3.3111,3.3111,3.3111,3.3111,3.3111,3.3111,3.2817,3.234,3.1512,3.116,3.0683,2.9905,2.9804,2.9804,2.9804,2.9804,2.9804,2.9804,2.9503,2.9327,2.9327,2.88,2.8247,2.7695,2.7178,2.6474,2.5611,2.5084,2.48,2.48,2.4531,2.4381,2.4381,2.4023,2.3873,2.0566,2.0937,2.1268,2.1132,2.1151,2.1171,2.1112,2.084,2.0605,2.0605,2.0664,2.082,2.1288,2.1502,2.1892,2.2852,2.3887,2.5859,2.9551,3.1133,3.2754,3.5019,3.584,3.6367,3.6758,3.6328,3.5801,3.5234,3.4434,3.3457,3.2226,3.2109,3.1719,3.0918,3.0898,3.0898,3.0898,3.0898,3.0859,3.0781,3.0781,3.0547,3.0078,2.9668,2.9277,2.8941,2.9697,3.0876,3.2381,3.3624,3.5017,3.6405,3.6405,3.568,3.468,3.468,3.4022,3.3111,3.3111,3.2283,3.1223,3.1444,3.0617,2.9806,3.111,3.144,3.1392,3.1464,3.1488,3.1733,3.2828,3.3111,3.3111,3.3111,3.3111,3.3111,3.3111,3.3111,3.3111,3.3111,3.3111,3.3111,3.3111,3.3111,3.2717,3.1662,3.1512,3.1135,3.0055,2.9905,2.988,2.9804,2.9804,2.9804,2.9804,2.9804,2.9804,2.9804,2.9327,2.8775,2.8122,2.7494,2.6716,2.5737,2.5285,2.5084,2.5084,2.4983,2.4901,2.4901,2.4825,2.48,2.041,2.1152,2.1602,2.0899,2.0957,2.1093,2.0762,2.0644,2.0605,2.0605,2.0859,2.1327,2.2168,2.291,2.3809,2.4992,2.6824,2.9101,3.1914,3.3105,3.3965,3.4726,3.6172,3.6426,3.4726,3.5449,3.5527,3.4375,3.3809,3.3125,3.2268,3.1816,3.1387,3.0898,3.0898,3.0898,3.0898,3.0898,3.0703,3.0293,3.0293,3.0078,2.9704,2.9219,2.8984,2.8887,2.8672,3.0016,3.2331,3.2532,3.4093,3.6405,3.6405,3.568,3.468,3.468,3.4022,3.3111,3.3111,3.2283,3.1356,3.2481,3.1661,3.0565,3.229,3.2461,3.2162,3.266,3.281,3.2853,3.3068,3.3111,3.3111,3.3111,3.3111,3.3111,3.3111,3.3111,3.3111,3.3111,3.3111,3.3111,3.3111,3.3111,3.2842,3.219,3.2089,3.1712,3.0633,3.0482,3.0306,2.9854,2.9804,2.9804,2.9804,2.9804,2.9804,2.9804,2.9704,2.9202,2.8147,2.7153,2.6549,2.6373,2.6273,2.6248,2.6248,2.5711,2.5485,2.546,2.5001,2.48,1.9803,2.0546,2.1133,2.0977,2.1602,2.2168,2.1719,2.1445,2.131,2.131,2.1445,2.1855,2.2715,2.3555,2.4941,2.7402,2.9043,3.0644,3.2519,3.293,3.3379,3.4258,3.4863,3.5,3.4453,3.4746,3.4629,3.3789,3.332,3.2715,3.1855,3.1621,3.1328,3.0898,3.0898,3.0762,3.0527,3.0508,3.041,3.0195,3.0195,2.9844,2.9274,2.9802,2.9527,2.8609,2.8951,3.0155,3.1878,3.1609,3.3123,3.5504,3.5805,3.5253,3.4248,3.3947,3.352,3.3111,3.3111,3.2698,3.2326,3.2896,3.2524,3.2007,3.2864,3.2893,3.2742,3.2993,3.3111,3.3111,3.3111,3.3111,3.3111,3.3111,3.3111,3.3111,3.3111,3.3111,3.3111,3.3111,3.3111,3.3111,3.3111,3.3111,3.2893,3.229,3.1964,3.1486,3.0708,3.0357,3.008,2.9829,2.9804,2.9804,2.9804,2.9804,2.9804,2.9804,2.9227,2.8649,2.8122,2.7077,2.6499,2.6499,2.6499,2.6499,2.6499,2.6223,2.6097,2.6097,2.5812,2.5711,1.9258,1.9959,2.0703,2.1093,2.1973,2.2754,2.291,2.2559,2.2305,2.2695,2.2793,2.2969,2.356,2.4473,2.6172,2.9219,3.0547,3.1641,3.291,3.2812,3.3008,3.4101,3.3848,3.3789,3.4336,3.4023,3.3594,3.3164,3.2734,3.2207,3.1562,3.1426,3.1172,3.0742,3.0723,3.0508,3.0059,3.0059,3.0,2.9902,2.9902,2.9492,2.8824,3.0183,2.9831,2.8231,2.924,3.0328,3.1363,3.1031,3.2418,3.4731,3.5132,3.4705,3.3847,3.3294,3.3111,3.3111,3.3111,3.3111,3.3111,3.3111,3.2993,3.2893,3.3086,3.2993,3.2893,3.3043,3.3111,3.3111,3.3111,3.3111,3.3111,3.3111,3.3111,3.3111,3.3111,3.3111,3.3111,3.3111,3.3111,3.3111,3.3111,3.2968,3.2767,3.2466,3.1838,3.1235,3.0859,3.0331,2.993,2.9804,2.9804,2.9804,2.9804,2.9804,2.9804,2.9804,2.8725,2.8097,2.8097,2.7077,2.6499,2.6499,2.6499,2.6499,2.6499,2.6499,2.6499,2.6499,2.6499,2.6499,1.918,1.9959,2.0703,2.1093,2.1268,2.1853,2.3828,2.3633,2.3471,2.507,2.5421,2.5352,2.5047,2.6358,2.8027,2.9863,3.123,3.2519,3.3809,3.3965,3.4121,3.459,3.4277,3.3887,3.3535,3.3125,3.2715,3.2285,3.1855,3.1582,3.1523,3.1152,3.0723,3.0254,3.0254,3.0039,2.9685,2.9609,2.9414,2.9004,2.9004,2.8769,2.8393,2.9764,2.9413,2.78,2.9116,3.0184,3.0942,3.0897,3.2418,3.468,3.4731,3.4424,3.3847,3.3294,3.3111,3.3111,3.3111,3.3111,3.3111,3.3111,3.2717,3.2365,3.2918,3.2692,3.239,3.2918,3.3111,3.3111,3.3111,3.3111,3.3111,3.3111,3.3111,3.3111,3.3111,3.3111,3.3111,3.3111,3.3111,3.3111,3.3111,3.2641,3.2441,3.2943,3.2089,3.1386,3.1336,3.0884,3.0357,2.9854,2.9804,2.9804,2.9804,2.9804,2.9804,2.9804,2.8725,2.8097,2.8097,2.7077,2.6499,2.6499,2.6499,2.6499,2.6499,2.6499,2.6499,2.6499,2.6499,2.6499,1.8457,1.9512,2.0703,2.1093,2.16,2.2441,2.4043,2.4543,2.505,2.6289,2.6738,2.6894,2.6769,2.7924,2.9316,3.0781,3.2109,3.3301,3.4316,3.4004,3.373,3.3887,3.3301,3.2832,3.2656,3.3376,3.3256,3.1857,3.2453,3.2349,3.1192,3.0703,3.0371,3.0195,2.9941,2.959,2.916,2.916,2.8945,2.8535,2.8789,2.8691,2.8388,3.0566,3.0128,2.7845,3.0515,3.1162,3.0382,3.0882,3.2112,3.3696,3.3696,3.3771,3.3847,3.3294,3.3111,3.3111,3.3111,3.3111,3.3111,3.3111,3.2943,3.2792,3.3061,3.2918,3.2792,3.3061,3.3111,3.3111,3.3111,3.2817,3.2541,3.2541,3.2541,3.2541,3.2541,3.2817,3.3111,3.3111,3.2792,3.2541,3.2541,3.2064,3.1888,3.2466,3.1612,3.1035,3.1361,3.0633,3.003,2.9804,2.9804,2.9804,2.9804,2.9804,2.9804,2.9804,2.9051,2.8624,2.8624,2.7896,2.7318,2.7002,2.7002,2.6826,2.6499,2.6499,2.6499,2.6499,2.6499,2.6499,1.8242,1.9258,2.0469,2.0918,2.1875,2.3125,2.4687,2.5605,2.6493,2.7949,2.8144,2.8105,2.8295,2.8824,2.959,3.0898,3.207,3.3066,3.3809,3.3398,3.3027,3.3027,3.2402,3.2134,3.2655,3.3482,3.3605,3.2735,3.3069,3.2747,3.1471,3.0519,2.9941,2.9805,2.9512,2.916,2.873,2.8711,2.8574,2.8301,2.8457,2.8573,2.8753,3.0997,3.0723,2.8613,3.1428,3.1785,3.0422,3.0939,3.1952,3.3111,3.3111,3.3294,3.3596,3.3262,3.3111,3.3111,3.3111,3.3111,3.3111,3.3111,3.3111,3.3111,3.3111,3.3111,3.3111,3.3111,3.3111,3.3111,3.3111,3.2792,3.2491,3.2491,3.2491,3.2491,3.2491,3.2792,3.3111,3.3111,3.2767,3.2416,3.224,3.1763,3.1587,3.2139,3.116,3.0608,3.1311,3.0457,2.9804,2.9804,2.9804,2.9804,2.9804,2.9804,2.9804,2.9804,2.9428,2.9088,2.8888,2.8361,2.7921,2.7544,2.7544,2.7268,2.6751,2.6751,2.6675,2.6499,2.6499,2.6499,1.8715,1.9221,2.0019,2.0507,2.1936,2.3795,2.5898,2.6719,2.7754,3.0371,2.9863,2.9062,2.9492,2.8887,2.873,3.0,3.0937,3.168,3.2109,3.2229,3.2168,3.2168,3.1777,3.2077,3.3576,3.3329,3.3733,3.5178,3.3504,3.2419,3.2419,3.0661,2.9411,2.8926,2.8906,2.8711,2.8301,2.8281,2.8281,2.8281,2.7904,2.8344,2.9534,3.0899,3.0957,3.0066,3.1505,3.1767,3.1199,3.1199,3.1952,3.3111,3.3111,3.3111,3.3111,3.3111,3.3111,3.3111,3.3111,3.3111,3.3111,3.3111,3.3111,3.3111,3.3111,3.3111,3.3111,3.3111,3.3111,3.3111,3.3111,3.3111,3.3111,3.3111,3.3111,3.3111,3.3111,3.3111,3.3111,3.3111,3.3111,3.2893,3.2315,3.1738,3.1562,3.2114,3.0834,3.0181,3.1235,3.0457,2.9804,2.9804,2.9804,2.9804,2.9804,2.9804,2.9804,2.9804,2.9804,2.9528,2.8913,2.8423,2.8122,2.8122,2.8122,2.7846,2.7329,2.7293,2.7027,2.6524,2.6499,2.6499,1.8715,1.9492,2.0547,2.1349,2.3051,2.4949,2.6465,2.7402,2.8555,3.0859,3.0781,3.0254,3.0059,3.0078,3.0137,3.0195,3.0937,3.168,3.2109,3.1894,3.1719,3.1719,3.1328,3.1678,3.3116,3.372,3.4207,3.4642,3.4729,3.4351,3.3319,3.1569,3.0524,3.0401,2.9152,2.8281,2.7851,2.7851,2.8145,2.8655,2.8532,2.8817,2.9513,3.0619,3.0692,3.0113,3.2394,3.2333,3.0696,3.1149,3.1796,3.2466,3.2466,3.2717,3.3111,3.3111,3.3111,3.3111,3.3111,3.3111,3.3111,3.3111,3.3111,3.3111,3.3111,3.3111,3.2993,3.2591,3.2767,3.2993,3.2566,3.2767,3.2968,3.2566,3.2466,3.2466,3.2466,3.2792,3.3111,3.3111,3.2742,3.229,3.1738,3.1738,3.1667,3.114,3.0906,3.0674,3.0324,2.998,2.9804,2.9804,2.9804,2.9804,2.9804,2.9804,2.9804,2.9804,2.9804,2.9704,2.9553,2.9377,2.9101,2.8662,2.8637,2.8423,2.7871,2.7469,2.7394,2.7595,2.6851,2.67,1.9336,2.0098,2.1113,2.2344,2.4121,2.6016,2.7656,2.8711,2.9785,3.1445,3.1152,3.0644,3.0703,3.0527,3.0391,3.0469,3.0918,3.1367,3.1621,3.1426,3.1269,3.1269,3.1325,3.1978,3.3454,3.4419,3.5212,3.5788,3.5679,3.5168,3.4274,3.2531,3.1218,3.0527,2.9891,2.8888,2.7454,2.8391,2.8885,2.8773,2.9125,2.9678,3.0475,3.1052,3.1252,3.1313,3.2616,3.2308,3.0876,3.1448,3.1913,3.224,3.2466,3.2767,3.3111,3.3111,3.3111,3.3086,3.2817,3.2893,3.3043,3.2817,3.2742,3.2742,3.2742,3.2591,3.234,3.1989,3.2139,3.2365,3.224,3.2466,3.2692,3.2591,3.2566,3.2566,3.2566,3.2817,3.3111,3.3111,3.2792,3.2416,3.2015,3.2176,3.2174,3.1771,3.1936,3.1505,2.9997,3.0139,3.0216,2.9818,2.9804,2.9804,2.9804,2.9804,2.9804,2.9804,2.9804,2.9804,2.9804,2.9804,2.9628,2.9239,2.9277,2.9001,2.8423,2.8097,2.7996,2.8097,2.7419,2.7329,2.0214,2.084,2.1561,2.3398,2.5215,2.709,2.9121,3.0195,3.1016,3.1875,3.1133,3.0566,3.1367,3.0547,3.0,3.0762,3.0898,3.0879,3.084,3.0937,3.0975,3.0994,3.1753,3.2886,3.4406,3.5242,3.6317,3.7841,3.6234,3.5228,3.5228,3.3369,3.1595,3.0048,3.0905,3.002,2.7157,2.9449,3.004,2.8782,2.9679,3.0721,3.1839,3.1796,3.2184,3.2893,3.2315,3.1788,3.1361,3.1813,3.2014,3.2114,3.2641,3.2893,3.296,3.296,3.296,3.2842,3.2315,3.2491,3.2842,3.2315,3.2164,3.2215,3.2164,3.1813,3.1436,3.1336,3.1361,3.1512,3.2014,3.2164,3.234,3.2867,3.3043,3.3111,3.3111,3.3111,3.3068,3.3061,3.2993,3.2912,3.2645,3.2751,3.3005,3.3395,3.3385,3.2496,3.0215,3.0658,3.0846,2.9895,2.9804,2.9804,2.9804,2.9804,2.9804,2.9804,2.9804,2.9804,2.9804,2.9804,2.9804,2.9804,2.9804,2.9528,2.8963,2.8913,2.8662,2.8247,2.8147,2.8122,1.9883,2.0371,2.1289,2.3691,2.6094,2.8184,2.9316,2.9783,3.0098,3.0976,3.1191,3.1289,3.1484,3.1289,3.1055,3.0918,3.0898,3.0762,3.0391,3.1261,3.1793,3.1498,3.2533,3.3891,3.5352,3.5294,3.5763,3.7265,3.6148,3.5459,3.5459,3.3647,3.244,3.2038,3.1273,2.9937,2.793,2.9389,2.9609,2.8648,3.0192,3.1137,3.1497,3.0951,3.1113,3.1712,3.1185,3.0884,3.0758,3.0432,3.0557,3.0959,3.111,3.1386,3.1763,3.1763,3.1763,3.1738,3.1612,3.1637,3.1738,3.1612,3.1863,3.2139,3.1687,3.1788,3.1863,3.1009,3.1085,3.1411,3.1537,3.1888,3.224,3.2365,3.2742,3.3111,3.3111,3.3111,3.2943,3.2491,3.239,3.2122,3.124,3.2326,3.3404,3.3817,3.3248,3.2327,3.1071,3.1082,3.0846,2.9895,2.9804,2.9804,2.9804,2.9804,2.9804,2.9804,2.9804,2.9804,2.9804,2.9804,2.9804,2.9804,2.9804,2.9729,2.9603,2.9113,2.9063,2.9402,2.8524,2.8348,2.0054,2.0547,2.166,2.4863,2.6992,2.8516,2.9375,2.9626,2.9707,3.0156,3.043,3.0586,3.0586,3.0742,3.0742,3.0332,3.043,3.062,3.0822,3.1443,3.2053,3.2502,3.3586,3.456,3.5348,3.5305,3.5548,3.636,3.5583,3.5107,3.5107,3.4188,3.3252,3.2435,3.2273,3.102,2.8445,3.0147,3.0402,2.9109,3.0601,3.1206,3.0994,3.0918,3.091,3.1009,3.0733,3.0457,3.0231,3.0206,3.0357,3.0633,3.0884,3.116,3.1386,3.1386,3.1386,3.1361,3.111,3.1185,3.1361,3.111,3.121,3.1386,3.111,3.1035,3.0934,3.0382,3.0407,3.0683,3.0959,3.1235,3.1512,3.1763,3.224,3.2591,3.2315,3.2265,3.219,3.1888,3.1813,3.1863,3.1914,3.332,3.4312,3.4036,3.4007,3.3325,3.1426,3.1609,3.1341,2.9934,2.9804,2.9804,2.9804,2.9804,2.9804,2.9804,2.9804,2.9804,2.9804,2.9804,2.9804,2.9804,2.9804,2.9804,2.9804,2.9478,2.9503,2.9779,2.9176,2.9076,2.0352,2.1056,2.2383,2.582,2.7383,2.8281,2.9117,2.9293,2.9258,2.9336,2.9528,2.9626,2.9626,3.0069,3.0356,3.0,3.0386,3.1005,3.1737,3.2051,3.2596,3.3615,3.4637,3.5228,3.5083,3.5348,3.5458,3.5357,3.4856,3.4575,3.4575,3.4399,3.3603,3.2154,3.3014,3.1972,2.8811,3.0962,3.1181,2.9492,3.0606,3.0934,3.0633,3.0959,3.0884,3.0482,3.0482,3.0206,2.9829,3.0281,3.0482,3.0507,3.0959,3.111,3.111,3.111,3.111,3.106,3.0633,3.0758,3.1035,3.0608,3.0532,3.0608,3.0507,3.0231,2.9905,2.9829,2.9804,2.9905,3.0482,3.0608,3.0733,3.116,3.1612,3.1838,3.1461,3.1386,3.1361,3.126,3.1322,3.1823,3.3239,3.4456,3.5034,3.4346,3.4968,3.4539,3.1792,3.2128,3.1865,3.0011,2.9804,2.9804,2.9804,2.9804,2.9804,2.9804,2.9934,3.0024,3.0024,3.0177,3.0292,3.0292,3.0101,3.0024,3.0024,3.0024,2.9972,2.9804,2.9804,2.9804,2.0357,2.1748,2.3345,2.4969,2.6269,2.7305,2.7812,2.7963,2.808,2.8379,2.9043,2.9626,2.9626,3.057,3.1394,3.1332,3.2362,3.3087,3.2834,3.38,3.4474,3.4327,3.5405,3.6021,3.5478,3.549,3.5307,3.4831,3.4324,3.3997,3.3997,3.3068,3.2431,3.2162,3.188,3.0991,2.9475,3.0802,3.0614,2.8905,2.9668,3.0231,3.0608,3.0181,2.9955,2.9905,2.9905,2.9854,2.9804,2.988,2.9905,2.9905,2.998,3.0005,3.0005,3.0005,3.0005,3.0005,2.993,2.9955,3.0005,2.993,3.0231,3.0532,3.0055,3.0181,3.0407,2.993,2.9804,2.9905,3.0482,3.0608,3.0633,3.0708,3.0783,3.0934,3.1311,3.1386,3.126,3.0809,3.0997,3.1823,3.3605,3.4099,3.4476,3.5166,3.5392,3.4739,3.2664,3.2522,3.1865,3.0011,2.9804,2.9804,2.9804,2.9804,2.9804,2.9804,3.0545,3.1007,3.1007,3.1792,3.2227,3.2227,3.1426,3.1007,3.1007,3.1007,3.0582,2.9804,2.9804,2.9804,2.0892,2.1504,2.2441,2.3965,2.5137,2.6113,2.6797,2.7129,2.7363,2.7539,2.8408,2.9221,2.9518,3.1116,3.2184,3.1641,3.2237,3.2903,3.3231,3.352,3.3935,3.4499,3.5105,3.5353,3.5056,3.4756,3.4525,3.4274,3.3445,3.2968,3.2968,3.219,3.1763,3.1763,3.1512,3.0991,3.0163,3.0692,3.0418,2.9331,2.9646,2.9905,3.0156,2.9905,2.9804,2.9804,2.9804,2.9804,2.9804,2.9804,2.9804,2.9804,2.9804,2.9804,2.9804,2.9804,2.9804,2.9804,2.9804,2.9804,2.9804,2.9804,2.9955,3.0105,2.9854,2.9955,3.0105,2.9854,2.9804,2.9854,3.008,3.0156,3.0156,3.0156,3.0156,3.0206,3.0457,3.0507,3.0604,3.0868,3.1944,3.3017,3.3842,3.4476,3.5001,3.5424,3.5519,3.5001,3.3567,3.2912,3.2083,3.0733,3.0101,2.9804,2.9804,2.9804,3.0024,3.057,3.097,3.1426,3.1947,3.2379,3.2841,3.3394,3.2451,3.1983,3.1983,3.1983,3.1792,3.1378,3.1378,3.1378,2.0963,2.0797,2.1094,2.2598,2.3789,2.4785,2.5547,2.6133,2.6543,2.666,2.7787,2.8891,2.9204,3.1274,3.2687,3.1939,3.2365,3.3089,3.3719,3.3475,3.3557,3.4565,3.468,3.458,3.4324,3.3922,3.3571,3.3294,3.2491,3.2014,3.2014,3.1486,3.1185,3.1185,3.106,3.0809,3.0407,3.0407,3.0206,2.9804,2.9804,2.9804,2.9804,2.9804,2.9804,2.9804,2.9804,2.9804,2.9804,2.9804,2.9804,2.9804,2.9804,2.9804,2.9804,2.9804,2.9804,2.9804,2.9804,2.9804,2.9804,2.9804,2.9804,2.9804,2.9804,2.9804,2.9804,2.9804,2.9804,2.9804,2.9804,2.9804,2.9804,2.9804,2.9804,2.9804,2.9804,2.9804,3.0062,3.1007,3.2522,3.3705,3.3945,3.4839,3.5519,3.5519,3.5519,3.5133,3.4143,3.3157,3.2307,3.1646,3.0495,3.0011,3.0457,3.0292,3.057,3.1499,3.1792,3.2236,3.2912,3.322,3.3671,3.4346,3.3671,3.322,3.2947,3.2947,3.2806,3.2593,3.2593,3.2593,1.9954,1.9682,1.9609,2.0546,2.1992,2.3315,2.3828,2.457,2.5293,2.5674,2.7399,2.8768,2.8678,3.0905,3.27,3.2653,3.3722,3.4595,3.4615,3.459,3.4635,3.468,3.468,3.4299,3.3269,3.3187,3.2667,3.1587,3.1461,3.1436,3.1436,3.0934,3.0658,3.0658,3.0156,2.9854,2.9829,2.9829,2.9829,2.9804,2.9804,2.9804,2.9804,2.9804,2.9804,2.9804,2.9804,2.9804,2.9804,2.9804,2.9804,2.9804,2.9804,2.9804,2.9804,2.9804,2.9804,2.9804,2.9804,2.9804,2.9804,2.9804,2.9804,2.9804,2.9804,2.9804,2.9804,2.9804,2.9804,2.9804,2.9804,2.9804,2.9804,2.9804,2.9804,2.9804,2.9804,2.9804,3.0062,3.1007,3.1983,3.2947,3.3842,3.4839,3.5519,3.5519,3.5519,3.5133,3.4143,3.3157,3.2558,3.2522,3.0884,3.0533,3.2272,3.1646,3.1536,3.2451,3.3359,3.3876,3.391,3.4839,3.5359,3.5424,3.5359,3.4872,3.391,3.391,3.3463,3.2593,3.2593,3.2593,2.0442,1.9601,1.9082,1.9941,2.1035,2.1912,2.2068,2.3027,2.3932,2.4043,2.6098,2.7914,2.8097,3.0785,3.2838,3.2425,3.2791,3.3244,3.3621,3.3345,3.3244,3.3621,3.3671,3.337,3.2591,3.2516,3.2215,3.1461,3.1085,3.0884,3.0884,3.0382,3.008,3.008,2.9905,2.9804,2.9804,2.9804,2.9804,2.9804,2.9804,2.9804,2.9804,2.9804,2.9804,2.9804,2.9804,2.9804,2.9804,2.9804,2.9804,2.9804,2.9804,2.9804,2.9804,2.9804,2.9804,2.9804,2.9804,2.9804,2.9804,2.9804,2.9804,2.9804,2.9804,2.9804,2.9804,2.9804,2.9804,2.9804,2.9804,2.9804,2.9804,2.9804,2.9804,2.9804,2.9804,3.0266,3.0809,3.113,3.2451,3.3602,3.3945,3.4839,3.5519,3.5519,3.5519,3.5359,3.5034,3.4109,3.3498,3.3498,3.2371,3.1865,3.2522,3.2272,3.2486,3.3463,3.3808,3.4279,3.4938,3.5326,3.5519,3.5519,3.5519,3.5326,3.4938,3.4938,3.4806,3.4442,3.4442,3.4442,2.1623,2.0581,1.9669,2.0099,2.0609,2.0955,2.0801,2.1562,2.2451,2.2926,2.4783,2.658,2.7527,2.988,3.1738,3.1913,3.1938,3.2064,3.2466,3.219,3.2089,3.2466,3.2516,3.229,3.1738,3.1662,3.1436,3.0884,3.0532,3.0331,3.0331,2.998,2.9804,2.9804,2.9804,2.9804,2.9804,2.9804,2.9804,2.9804,2.9804,2.9804,2.9804,2.9804,2.9804,2.9804,2.9804,2.9804,2.9804,2.9804,2.9804,2.9804,2.9804,2.9804,2.9804,2.9804,2.9804,2.9804,2.9804,2.9804,2.9804,2.9804,2.9804,2.9804,2.9804,2.9804,2.9804,2.9804,2.9804,2.9804,2.9804,2.9804,2.9804,2.9804,2.9804,2.9804,2.9804,3.0292,3.082,3.1156,3.2651,3.3864,3.4002,3.5016,3.5759,3.5549,3.5519,3.5519,3.5519,3.461,3.4143,3.4476,3.3359,3.2841,3.3498,3.3255,3.3498,3.4442,3.4509,3.4806,3.5457,3.5519,3.5519,3.5519,3.5519,3.5519,3.5519,3.5519,3.5519,3.5519,3.5519,3.5519,0.0,0.0,0.0,2.0954,2.0744,2.0514,2.0046,2.0253,2.0975,2.2312,2.3476,2.4854,2.683,2.8107,2.9402,3.1009,3.1311,3.1361,3.1361,3.1361,3.1361,3.1386,3.1386,3.1185,3.0658,3.0608,3.0382,2.9829,2.9804,2.9804,2.9804,2.9804,2.9804,2.9804,2.9804,2.9804,2.9804,2.9804,2.9804,2.9804,2.9804,2.9804,2.9804,2.9804,2.9804,2.9804,2.9804,2.9804,2.9804,2.9804,2.9804,2.9804,2.9804,2.9804,2.9804,2.9804,2.9804,2.9804,2.9804,2.9804,2.9804,2.9804,2.9804,2.9804,2.9804,2.9804,2.9804,2.9804,2.9804,2.9804,2.9804,2.9804,2.9804,2.9804,2.9804,2.9804,2.9804,2.9804,3.0062,3.097,3.2444,3.3645,3.3922,3.5369,3.6237,3.5609,3.5519,3.5519,3.5519,3.4643,3.4442,3.5392,3.3802,3.3429,3.5359,3.461,3.4476,3.5424,3.5519,3.5519,3.5519,3.5519,3.5519,3.5519,3.5519,3.5519,3.5519,3.5519,3.5519,3.5519,3.5519,3.5519,2.3225,0.0,0.0,0.0,0.0,0.0,2.0261,2.0344,2.0533,2.0286,2.188,2.3537,2.4391,2.6274,2.7896,2.8348,2.9453,3.0382,3.0783,3.0834,3.0959,3.1336,3.1386,3.1185,3.0658,3.0608,3.0382,2.9829,2.9804,2.9804,2.9804,2.9804,2.9804,2.9804,2.9804,2.9804,2.9804,2.9804,2.9804,2.9804,2.9804,2.9804,2.9804,2.9804,2.9804,2.9804,2.9804,2.9804,2.9804,2.9804,2.9804,2.9804,2.9804,2.9804,2.9804,2.9804,2.9804,2.9804,2.9804,2.9804,2.9804,2.9804,2.9804,2.9804,2.9804,2.9804,2.9804,2.9804,2.9804,2.9804,2.9804,2.9804,2.9804,2.9804,2.9804,2.9804,2.9804,2.9804,2.9856,3.0139,3.1633,3.2894,3.2975,3.4554,3.5699,3.5519,3.5519,3.5519,3.5519,3.5261,3.5166,3.5457,3.5034,3.4935,3.5457,3.5231,3.5198,3.5457,3.5519,3.5519,3.5519,3.5519,3.5519,3.5519,3.5519,3.5519,3.5519,3.5519,3.5519,3.5519,3.5519,3.5519,2.4588,2.3999,2.36,2.3398,0.0,0.0,2.1144,2.0904,2.09,2.0762,2.1842,2.3132,2.4179,2.5589,2.6741,2.7193,2.8097,2.9026,2.9765,3.0131,3.0382,3.0683,3.0733,3.0608,3.0306,3.0281,3.0131,2.9804,2.9804,2.9679,2.9453,2.9428,2.9327,2.9101,2.9101,2.9101,2.9101,2.9327,2.9327,2.9101,2.9553,2.9654,2.9428,2.9428,2.9578,2.9779,2.9528,2.9578,2.9804,2.9804,2.9804,2.9804,2.9804,2.9804,2.9804,2.9804,2.9804,2.9804,2.9804,2.9804,2.9804,2.9804,2.9804,2.9804,2.9804,2.9804,2.9804,2.9804,2.9804,2.9804,2.9804,2.9804,2.9804,2.9804,2.9804,2.9804,2.9804,2.9804,2.9934,3.033,3.1823,3.304,3.3178,3.4709,3.5818,3.5549,3.5519,3.5519,3.5519,3.5519,3.5519,3.5519,3.5519,3.5519,3.5519,3.5519,3.5519,3.5519,3.5519,3.5519,3.5519,3.5519,3.5519,3.5519,3.5519,3.5519,3.5519,3.5519,3.5519,3.5519,3.5519,3.5519,2.6801,2.6298,2.5784,2.5346,2.4571,0.0,2.2514,2.1925,2.1828,2.2436,2.2582,2.3144,2.4872,2.5294,2.5737,2.6766,2.7017,2.7494,2.8637,2.9277,2.9603,2.9603,2.9603,2.9603,2.9603,2.9654,2.9679,2.9603,2.9603,2.9377,2.8838,2.8787,2.8587,2.8122,2.8097,2.8097,2.8097,2.8612,2.8612,2.8122,2.9252,2.9478,2.8888,2.8888,2.9252,2.9754,2.9176,2.9252,2.9804,2.9804,2.9804,2.9804,2.9804,2.9804,2.9804,2.9804,2.9804,2.9804,2.9804,2.9804,2.9804,2.9804,2.9804,2.9804,2.9804,2.9804,2.9804,2.9804,2.9804,2.9804,2.9804,2.9804,2.9804,2.9804,2.9804,2.9804,2.9804,2.9804,3.0049,3.0857,3.238,3.3553,3.3791,3.5242,3.6178,3.5579,3.5519,3.5519,3.5519,3.5519,3.5519,3.5519,3.5519,3.5519,3.5519,3.5519,3.5519,3.5519,3.5519,3.5519,3.5519,3.5519,3.5519,3.5519,3.5519,3.5519,3.5519,3.5519,3.5519,3.5519,3.5519,3.5519,2.7695,2.7695,2.7509,2.698,2.6696,0.0,2.4266,2.3469,2.2831,2.1828,2.1859,2.2154,2.2558,2.354,2.4381,2.4607,2.536,2.6465,2.8047,2.8373,2.8423,2.8423,2.8423,2.8423,2.8423,2.8825,2.8925,2.8473,2.8423,2.8373,2.8273,2.8273,2.8222,2.8097,2.8097,2.8097,2.8097,2.8612,2.8612,2.8122,2.9252,2.9478,2.8888,2.8888,2.9252,2.9754,2.9176,2.9252,2.9804,2.9804,2.9804,2.9804,2.9804,2.9804,2.9804,2.9804,2.9804,2.9804,2.9804,2.9804,2.9804,2.9804,2.9804,2.9804,2.9804,2.9804,2.9804,2.9804,2.9804,2.9804,2.9804,2.9804,2.9804,2.9804,2.9804,2.9804,2.9804,2.9804,2.9856,3.0049,3.1532,3.2803,3.2869,3.4428,3.5639,3.5519,3.5519,3.5519,3.5519,3.5519,3.5519,3.5519,3.5519,3.5519,3.5519,3.5519,3.5519,3.5519,3.5519,3.5519,3.5519,3.5519,3.5519,3.5519,3.5519,3.5519,3.5519,3.5519,3.5519,3.5519,3.5519,3.5519,2.8097,2.8097,2.8047,2.777,2.7695,0.0,0.0,2.5178,2.4734,2.3685,2.3216,2.3039,2.3308,2.3474,2.3653,2.3954,2.4456,2.5184,2.6314,2.6942,2.7293,2.7293,2.7293,2.7394,2.767,2.7946,2.8097,2.8097,2.8097,2.7971,2.772,2.7695,2.757,2.7329,2.7293,2.7293,2.7293,2.7821,2.7971,2.7695,2.8549,2.88,2.8499,2.8222,2.8423,2.8925,2.8649,2.8825,2.9377,2.9679,2.9804,2.9804,2.9804,2.9804,2.9804,2.9804,2.9804,2.9804,2.9804,2.9804,2.9804,2.9804,2.9804,2.9804,2.9804,2.9804,2.9804,2.9804,2.9804,2.9804,2.9804,2.9804,2.9804,2.9804,2.9804,2.9804,2.9804,2.9804,2.9934,3.0419,3.1646,3.2593,3.2593,3.424,3.5519,3.5519,3.5519,3.5519,3.5519,3.5519,3.5519,3.5519,3.5519,3.5519,3.5519,3.5519,3.5519,3.5519,3.5519,3.5519,3.5519,3.5519,3.5519,3.5519,3.5519,3.5519,3.5519,3.5519,3.5519,3.5519,3.5519,3.5519,2.8524,2.8499,2.8549,2.8323,2.8423,2.8273,0.0,0.0,0.0,2.5912,2.4983,2.4406,2.4725,2.3948,2.3421,2.3929,2.3904,2.3979,2.4399,2.5259,2.5921,2.6147,2.6172,2.6348,2.6766,2.6892,2.7193,2.7745,2.7795,2.7595,2.7178,2.7153,2.6952,2.6499,2.6499,2.6499,2.6499,2.7153,2.7344,2.7178,2.7896,2.8147,2.7921,2.7494,2.7595,2.8097,2.8097,2.8423,2.8938,2.9553,2.9804,2.9804,2.9804,2.9804,2.9804,2.9804,2.9804,2.9804,2.9804,2.9804,2.9804,2.9804,2.9804,2.9804,2.9804,2.9804,2.9804,2.9804,2.9804,2.9804,2.9804,2.9804,2.9804,2.9804,2.9804,2.9804,2.9804,2.9804,3.0062,3.1007,3.1947,3.2664,3.2841,3.4341,3.5519,3.5519,3.5519,3.5519,3.5519,3.5519,3.5519,3.5519,3.5519,3.5519,3.5519,3.5519,3.5519,3.5519,3.5519,3.5519,3.5519,3.5519,3.5519,3.5519,3.5519,3.5519,3.5519,3.5519,3.5519,3.5519,3.5519,3.5519,2.9478,2.9955,3.008,2.9038,2.954,2.9905,2.8273,0.0,2.762,2.6625,0.0,2.5285,2.4883,0.0,0.0,2.3979,2.3547,2.3221,2.3296,2.3396,2.3847,2.4883,2.4976,2.5034,2.5084,2.5511,2.6038,2.665,2.6675,2.665,2.66,2.6575,2.6549,2.6499,2.6499,2.6499,2.6499,2.7494,2.7519,2.66,2.8097,2.8323,2.7369,2.7354,2.7595,2.8097,2.8097,2.8423,2.8938,2.9553,2.9804,2.9804,2.9804,2.9804,2.9804,2.9804,2.9804,2.9804,2.9804,2.9804,2.9804,2.9804,2.9804,2.9804,2.9804,2.9804,2.9804,2.9804,2.9804,2.9804,2.9804,2.9804,2.9804,2.9804,2.9804,2.9804,2.9804,2.9804,3.0062,3.1007,3.1947,3.2841,3.3705,3.4773,3.5519,3.5519,3.5519,3.5519,3.5519,3.5519,3.5519,3.5519,3.5519,3.5519,3.5519,3.5519,3.5519,3.5519,3.5519,3.5519,3.5519,3.5519,3.5519,3.5519,3.5519,3.5519,3.5519,3.5519,3.5519,3.5519,3.5519,3.5519,2.9729,2.9955,3.003,2.9553,2.9779,2.9854,2.8825,2.8537,2.8373,2.757,0.0,0.0,0.0,0.0,0.0,0.0,2.4004,2.3627,2.3627,2.3321,2.3271,2.3747,2.3822,2.3948,2.4305,2.4833,2.5385,2.5946,2.5996,2.6147,2.6474,2.6499,2.6499,2.6499,2.6499,2.6499,2.6499,2.6952,2.7102,2.6977,2.7318,2.7419,2.7293,2.7293,2.7394,2.767,2.8298,2.8687,2.8938,2.9553,2.9804,2.9804,2.9804,2.9804,2.9804,2.9804,2.9804,2.9804,2.9804,2.9804,2.9804,2.9804,2.9804,2.9804,2.9804,2.9804,2.9804,2.9804,2.9804,2.9804,2.9804,2.9804,2.9804,2.9804,2.9804,2.9804,2.9804,2.9804,3.0254,3.1719,3.2307,3.308,3.461,3.5198,3.5519,3.5519,3.5519,3.5519,3.5519,3.5519,3.5519,3.5519,3.5519,3.5519,3.5519,3.5519,3.5519,3.5519,3.5519,3.5519,3.5519,3.5519,3.5519,3.5519,3.5519,3.5519,3.5519,3.5519,3.5519,3.5519,3.5519,3.5519,2.9804,2.9905,2.998,2.9829,2.9905,2.988,2.9302,2.9239,2.9164,2.8473,2.7821,0.0,0.0,0.0,2.5184,2.485,0.0,2.3954,2.3778,2.3371,2.3095,2.3095,2.3095,2.3271,2.3728,2.428,2.4757,2.5134,2.531,2.5636,2.6223,2.6248,2.6323,2.6474,2.6499,2.6499,2.6499,2.665,2.6851,2.7077,2.6851,2.6927,2.7293,2.7293,2.7369,2.757,2.8524,2.8888,2.8938,2.9553,2.9804,2.9804,2.9804,2.9804,2.9804,2.9804,2.9804,2.9804,2.9804,2.9804,2.9804,2.9804,2.9804,2.9804,2.9804,2.9804,2.9804,2.9804,2.9804,2.9804,2.9804,2.9804,2.9856,3.0101,3.0177,3.0254,3.0495,3.057,3.1071,3.2664,3.2982,3.3533,3.5228,3.5519,3.5519,3.5519,3.5519,3.5519,3.5519,3.5519,3.5519,3.5519,3.5519,3.5519,3.5519,3.5519,3.5519,3.5519,3.5519,3.5519,3.5519,3.5519,3.5519,3.5519,3.5519,3.5519,3.5519,3.5519,3.5519,3.5519,3.5519,3.5519,2.9804,3.0181,3.0457,2.993,3.0206,3.0432,2.988,3.0181,3.0256,2.9088,2.9327,2.9202,2.7544,2.6826,2.6097,2.4983,2.4356,0.0,0.0,2.312,2.3095,2.3095,2.3095,2.312,2.312,2.3678,2.4029,2.4054,2.4531,2.5084,2.5586,2.5611,2.5921,2.6474,2.6499,2.6499,2.6499,2.7027,2.7027,2.6524,2.7052,2.7268,2.7293,2.7293,2.757,2.8122,2.8637,2.8888,2.8938,2.9553,2.9804,2.9804,2.9804,2.9804,2.9804,2.9804,2.9804,2.9804,2.9804,2.9804,2.9804,2.9804,2.9804,2.9804,2.9804,2.9804,2.9804,2.9804,2.9804,2.9804,2.9804,2.9804,3.0024,3.0932,3.1156,3.1389,3.2307,3.2486,3.277,3.3774,3.3945,3.4279,3.5326,3.5519,3.5519,3.5519,3.5519,3.5519,3.5519,3.5519,3.5519,3.5519,3.5519,3.5519,3.5519,3.5519,3.5519,3.5519,3.5519,3.5519,3.5519,3.5519,3.5519,3.5519,3.5519,3.5519,3.5519,3.5519,3.5519,3.5519,3.5519,3.5519,2.9804,2.993,3.003,2.9854,2.993,3.003,2.9829,3.0206,3.0306,2.9113,2.9377,2.9277,2.7595,2.7153,2.6801,2.6072,2.5134,2.4481,0.0,2.3572,2.3095,2.3095,2.3095,2.3095,2.3095,2.2945,2.3201,2.3929,2.3797,2.4224,2.5536,2.5586,2.5862,2.6474,2.6499,2.6675,2.7027,2.7228,2.7369,2.7544,2.7745,2.7821,2.7846,2.8197,2.8473,2.8637,2.9252,2.9503,2.9528,2.9704,2.9804,2.9804,2.9804,2.9804,2.9804,2.9804,2.9804,2.9804,2.9804,2.9804,2.9804,2.9804,2.9804,2.9804,2.9804,2.9804,2.9804,2.9804,2.9804,2.9804,2.9804,3.0254,3.0809,3.1093,3.1683,3.22,3.2522,3.2593,3.2876,3.3808,3.3979,3.4312,3.5326,3.5519,3.5519,3.5519,3.5519,3.5519,3.5519,3.5519,3.5519,3.5519,3.5519,3.5519,3.5519,3.5519,3.5519,3.5519,3.5519,3.5519,3.5519,3.5519,3.5519,3.5519,3.5519,3.5519,3.5519,3.5519,3.5519,3.5519,3.5519,3.5519,2.9804,2.9804,2.9804,2.9804,2.9804,2.9804,2.9804,3.0206,3.0357,2.9428,2.9679,2.9628,2.8147,2.772,2.7344,2.6625,2.5686,2.4958,0.0,2.3873,2.3346,2.312,2.3095,2.3095,2.3095,2.2794,2.2869,2.3627,2.3321,2.3747,2.5234,2.5335,2.5661,2.6474,2.6675,2.6952,2.7293,2.7469,2.7745,2.8097,2.8097,2.8197,2.8423,2.8737,2.9013,2.9252,2.9628,2.9804,2.9804,2.9804,2.9804,2.9804,2.9804,2.9804,2.9804,2.9804,2.9804,2.9804,2.9804,2.9804,2.9804,2.9804,2.9804,2.9804,2.9804,3.0024,3.033,3.033,3.0533,3.0809,3.0809,3.123,3.1792,3.2128,3.2664,3.322,3.3533,3.3636,3.3802,3.4442,3.4543,3.4739,3.5392,3.5519,3.5519,3.5519,3.5519,3.5519,3.5519,3.5519,3.5519,3.5519,3.5519,3.5519,3.5519,3.5519,3.5519,3.5519,3.5519,3.5519,3.5519,3.5519,3.5609,3.5848,3.5639,3.5609,3.5848,3.5609,3.5519,3.5519,3.5519,3.5519]}]]